<?xml version="1.0" encoding="UTF-8" standalone="no" ?>
<gpx xmlns="http://www.topografix.com/GPX/1/1" xmlns:xsi="http://www.w3.org/2001/XMLSchema-instance" xsi:schemaLocation="http://www.topografix.com/GPX/1/1 http://www.topografix.com/GPX/1/1/gpx.xsd" version="1.1" creator="VisuGPX - https://www.visugpx.com">
  <metadata>
    <name>Boucle des étangs de Rambouillet 24 km</name>
    <desc><![CDATA[Boucle des étangs de Rambouillet 24 km

]]></desc>
  </metadata>
  <trk>
    <name><![CDATA[11 nov. 2018 à 09:45:47]]></name>
    <cmt><![CDATA[11 nov. 2018 à 09:45:47]]></cmt>
    <trkseg>
      <trkpt lat="48.6438" lon="1.8313">
        <ele>152</ele>
        <time>2018-11-11T08:45:48Z</time>
      </trkpt>
      <trkpt lat="48.64373" lon="1.83111">
        <ele>148</ele>
        <time>2018-11-11T08:49:03Z</time>
      </trkpt>
      <trkpt lat="48.64366" lon="1.831">
        <ele>148</ele>
        <time>2018-11-11T08:49:11Z</time>
      </trkpt>
      <trkpt lat="48.64357" lon="1.83093">
        <ele>149</ele>
        <time>2018-11-11T08:49:19Z</time>
      </trkpt>
      <trkpt lat="48.64352" lon="1.83092">
        <ele>148</ele>
        <time>2018-11-11T08:49:23Z</time>
      </trkpt>
      <trkpt lat="48.64348" lon="1.83092">
        <ele>148</ele>
        <time>2018-11-11T08:49:27Z</time>
      </trkpt>
      <trkpt lat="48.64339" lon="1.83085">
        <ele>147</ele>
        <time>2018-11-11T08:49:34Z</time>
      </trkpt>
      <trkpt lat="48.64307" lon="1.83036">
        <ele>144</ele>
        <time>2018-11-11T08:50:08Z</time>
      </trkpt>
      <trkpt lat="48.64291" lon="1.83016">
        <ele>143</ele>
        <time>2018-11-11T08:50:25Z</time>
      </trkpt>
      <trkpt lat="48.64286" lon="1.83013">
        <ele>142</ele>
        <time>2018-11-11T08:50:29Z</time>
      </trkpt>
      <trkpt lat="48.64281" lon="1.83013">
        <ele>142</ele>
        <time>2018-11-11T08:50:33Z</time>
      </trkpt>
      <trkpt lat="48.6427" lon="1.83014">
        <ele>142</ele>
        <time>2018-11-11T08:50:43Z</time>
      </trkpt>
      <trkpt lat="48.64268" lon="1.83022">
        <ele>142</ele>
        <time>2018-11-11T08:50:47Z</time>
      </trkpt>
      <trkpt lat="48.64263" lon="1.83028">
        <ele>142</ele>
        <time>2018-11-11T08:51:02Z</time>
      </trkpt>
      <trkpt lat="48.64262" lon="1.83039">
        <ele>143</ele>
        <time>2018-11-11T08:51:12Z</time>
      </trkpt>
      <trkpt lat="48.6426" lon="1.83047">
        <ele>143</ele>
        <time>2018-11-11T08:51:16Z</time>
      </trkpt>
      <trkpt lat="48.64261" lon="1.83054">
        <ele>144</ele>
        <time>2018-11-11T08:51:20Z</time>
      </trkpt>
      <trkpt lat="48.6426" lon="1.8306">
        <ele>144</ele>
        <time>2018-11-11T08:51:24Z</time>
      </trkpt>
      <trkpt lat="48.64255" lon="1.83064">
        <ele>144</ele>
        <time>2018-11-11T08:51:31Z</time>
      </trkpt>
      <trkpt lat="48.64242" lon="1.83081">
        <ele>145</ele>
        <time>2018-11-11T08:51:47Z</time>
      </trkpt>
      <trkpt lat="48.64216" lon="1.83107">
        <ele>148</ele>
        <time>2018-11-11T08:52:13Z</time>
      </trkpt>
      <trkpt lat="48.64187" lon="1.83149">
        <ele>151</ele>
        <time>2018-11-11T08:52:44Z</time>
      </trkpt>
      <trkpt lat="48.6417" lon="1.83177">
        <ele>152</ele>
        <time>2018-11-11T08:53:03Z</time>
      </trkpt>
      <trkpt lat="48.6417" lon="1.83184">
        <ele>153</ele>
        <time>2018-11-11T08:53:08Z</time>
      </trkpt>
      <trkpt lat="48.64163" lon="1.83196">
        <ele>153</ele>
        <time>2018-11-11T08:53:16Z</time>
      </trkpt>
      <trkpt lat="48.64151" lon="1.83214">
        <ele>154</ele>
        <time>2018-11-11T08:53:28Z</time>
      </trkpt>
      <trkpt lat="48.64147" lon="1.83221">
        <ele>154</ele>
        <time>2018-11-11T08:53:32Z</time>
      </trkpt>
      <trkpt lat="48.64145" lon="1.83226">
        <ele>154</ele>
        <time>2018-11-11T08:53:35Z</time>
      </trkpt>
      <trkpt lat="48.6414" lon="1.83231">
        <ele>155</ele>
        <time>2018-11-11T08:53:38Z</time>
      </trkpt>
      <trkpt lat="48.64136" lon="1.83237">
        <ele>155</ele>
        <time>2018-11-11T08:53:42Z</time>
      </trkpt>
      <trkpt lat="48.64133" lon="1.83245">
        <ele>154</ele>
        <time>2018-11-11T08:53:46Z</time>
      </trkpt>
      <trkpt lat="48.64128" lon="1.83256">
        <ele>155</ele>
        <time>2018-11-11T08:53:52Z</time>
      </trkpt>
      <trkpt lat="48.6412" lon="1.83268">
        <ele>155</ele>
        <time>2018-11-11T08:54:00Z</time>
      </trkpt>
      <trkpt lat="48.64112" lon="1.83279">
        <ele>155</ele>
        <time>2018-11-11T08:54:08Z</time>
      </trkpt>
      <trkpt lat="48.64108" lon="1.83285">
        <ele>155</ele>
        <time>2018-11-11T08:54:12Z</time>
      </trkpt>
      <trkpt lat="48.64106" lon="1.83291">
        <ele>155</ele>
        <time>2018-11-11T08:54:16Z</time>
      </trkpt>
      <trkpt lat="48.64091" lon="1.83315">
        <ele>156</ele>
        <time>2018-11-11T08:54:32Z</time>
      </trkpt>
      <trkpt lat="48.64079" lon="1.83339">
        <ele>156</ele>
        <time>2018-11-11T08:54:48Z</time>
      </trkpt>
      <trkpt lat="48.64071" lon="1.83347">
        <ele>156</ele>
        <time>2018-11-11T08:54:55Z</time>
      </trkpt>
      <trkpt lat="48.64063" lon="1.8336">
        <ele>156</ele>
        <time>2018-11-11T08:55:03Z</time>
      </trkpt>
      <trkpt lat="48.64028" lon="1.83409">
        <ele>157</ele>
        <time>2018-11-11T08:55:37Z</time>
      </trkpt>
      <trkpt lat="48.64025" lon="1.83416">
        <ele>157</ele>
        <time>2018-11-11T08:55:41Z</time>
      </trkpt>
      <trkpt lat="48.64022" lon="1.83422">
        <ele>157</ele>
        <time>2018-11-11T08:55:44Z</time>
      </trkpt>
      <trkpt lat="48.63991" lon="1.83468">
        <ele>157</ele>
        <time>2018-11-11T08:56:15Z</time>
      </trkpt>
      <trkpt lat="48.63974" lon="1.83487">
        <ele>158</ele>
        <time>2018-11-11T08:56:31Z</time>
      </trkpt>
      <trkpt lat="48.63971" lon="1.83494">
        <ele>157</ele>
        <time>2018-11-11T08:56:36Z</time>
      </trkpt>
      <trkpt lat="48.63969" lon="1.83501">
        <ele>157</ele>
        <time>2018-11-11T08:56:41Z</time>
      </trkpt>
      <trkpt lat="48.63965" lon="1.83506">
        <ele>158</ele>
        <time>2018-11-11T08:56:46Z</time>
      </trkpt>
      <trkpt lat="48.63962" lon="1.83513">
        <ele>158</ele>
        <time>2018-11-11T08:56:51Z</time>
      </trkpt>
      <trkpt lat="48.63958" lon="1.83518">
        <ele>158</ele>
        <time>2018-11-11T08:56:55Z</time>
      </trkpt>
      <trkpt lat="48.63954" lon="1.83521">
        <ele>158</ele>
        <time>2018-11-11T08:56:59Z</time>
      </trkpt>
      <trkpt lat="48.63943" lon="1.83536">
        <ele>158</ele>
        <time>2018-11-11T08:57:08Z</time>
      </trkpt>
      <trkpt lat="48.6391" lon="1.83578">
        <ele>159</ele>
        <time>2018-11-11T08:57:41Z</time>
      </trkpt>
      <trkpt lat="48.639" lon="1.83595">
        <ele>159</ele>
        <time>2018-11-11T08:57:52Z</time>
      </trkpt>
      <trkpt lat="48.63896" lon="1.83604">
        <ele>160</ele>
        <time>2018-11-11T08:57:57Z</time>
      </trkpt>
      <trkpt lat="48.63869" lon="1.83649">
        <ele>159</ele>
        <time>2018-11-11T08:58:26Z</time>
      </trkpt>
      <trkpt lat="48.63863" lon="1.83663">
        <ele>159</ele>
        <time>2018-11-11T08:58:34Z</time>
      </trkpt>
      <trkpt lat="48.63839" lon="1.83712">
        <ele>159</ele>
        <time>2018-11-11T08:59:07Z</time>
      </trkpt>
      <trkpt lat="48.63833" lon="1.83727">
        <ele>159</ele>
        <time>2018-11-11T08:59:15Z</time>
      </trkpt>
      <trkpt lat="48.63831" lon="1.83733">
        <ele>159</ele>
        <time>2018-11-11T08:59:19Z</time>
      </trkpt>
      <trkpt lat="48.63826" lon="1.83735">
        <ele>159</ele>
        <time>2018-11-11T08:59:23Z</time>
      </trkpt>
      <trkpt lat="48.63823" lon="1.83742">
        <ele>158</ele>
        <time>2018-11-11T08:59:26Z</time>
      </trkpt>
      <trkpt lat="48.63821" lon="1.83749">
        <ele>158</ele>
        <time>2018-11-11T08:59:29Z</time>
      </trkpt>
      <trkpt lat="48.6382" lon="1.83756">
        <ele>158</ele>
        <time>2018-11-11T08:59:33Z</time>
      </trkpt>
      <trkpt lat="48.63818" lon="1.83763">
        <ele>158</ele>
        <time>2018-11-11T08:59:38Z</time>
      </trkpt>
      <trkpt lat="48.63809" lon="1.83783">
        <ele>157</ele>
        <time>2018-11-11T08:59:49Z</time>
      </trkpt>
      <trkpt lat="48.63807" lon="1.8379">
        <ele>157</ele>
        <time>2018-11-11T08:59:52Z</time>
      </trkpt>
      <trkpt lat="48.63803" lon="1.83795">
        <ele>156</ele>
        <time>2018-11-11T08:59:56Z</time>
      </trkpt>
      <trkpt lat="48.63798" lon="1.83798">
        <ele>157</ele>
        <time>2018-11-11T09:00:00Z</time>
      </trkpt>
      <trkpt lat="48.6378" lon="1.83826">
        <ele>158</ele>
        <time>2018-11-11T09:00:17Z</time>
      </trkpt>
      <trkpt lat="48.63771" lon="1.83832">
        <ele>158</ele>
        <time>2018-11-11T09:00:23Z</time>
      </trkpt>
      <trkpt lat="48.63765" lon="1.83834">
        <ele>158</ele>
        <time>2018-11-11T09:00:27Z</time>
      </trkpt>
      <trkpt lat="48.63759" lon="1.83833">
        <ele>158</ele>
        <time>2018-11-11T09:00:31Z</time>
      </trkpt>
      <trkpt lat="48.6375" lon="1.83829">
        <ele>158</ele>
        <time>2018-11-11T09:00:39Z</time>
      </trkpt>
      <trkpt lat="48.63745" lon="1.83831">
        <ele>158</ele>
        <time>2018-11-11T09:00:43Z</time>
      </trkpt>
      <trkpt lat="48.63741" lon="1.83835">
        <ele>159</ele>
        <time>2018-11-11T09:00:48Z</time>
      </trkpt>
      <trkpt lat="48.63725" lon="1.83829">
        <ele>158</ele>
        <time>2018-11-11T09:00:59Z</time>
      </trkpt>
      <trkpt lat="48.63697" lon="1.83806">
        <ele>159</ele>
        <time>2018-11-11T09:01:23Z</time>
      </trkpt>
      <trkpt lat="48.63681" lon="1.83784">
        <ele>158</ele>
        <time>2018-11-11T09:01:38Z</time>
      </trkpt>
      <trkpt lat="48.63649" lon="1.83735">
        <ele>160</ele>
        <time>2018-11-11T09:02:12Z</time>
      </trkpt>
      <trkpt lat="48.63619" lon="1.83691">
        <ele>161</ele>
        <time>2018-11-11T09:02:44Z</time>
      </trkpt>
      <trkpt lat="48.6358" lon="1.83663">
        <ele>161</ele>
        <time>2018-11-11T09:03:15Z</time>
      </trkpt>
      <trkpt lat="48.63548" lon="1.8364">
        <ele>161</ele>
        <time>2018-11-11T09:03:43Z</time>
      </trkpt>
      <trkpt lat="48.63551" lon="1.83657">
        <ele>161</ele>
        <time>2018-11-11T09:04:03Z</time>
      </trkpt>
      <trkpt lat="48.63552" lon="1.8368">
        <ele>161</ele>
        <time>2018-11-11T09:04:16Z</time>
      </trkpt>
      <trkpt lat="48.63551" lon="1.83687">
        <ele>161</ele>
        <time>2018-11-11T09:04:20Z</time>
      </trkpt>
      <trkpt lat="48.63552" lon="1.83697">
        <ele>161</ele>
        <time>2018-11-11T09:04:27Z</time>
      </trkpt>
      <trkpt lat="48.63547" lon="1.83728">
        <ele>161</ele>
        <time>2018-11-11T09:04:41Z</time>
      </trkpt>
      <trkpt lat="48.63539" lon="1.8374">
        <ele>160</ele>
        <time>2018-11-11T09:04:49Z</time>
      </trkpt>
      <trkpt lat="48.63534" lon="1.83745">
        <ele>160</ele>
        <time>2018-11-11T09:04:53Z</time>
      </trkpt>
      <trkpt lat="48.6353" lon="1.8375">
        <ele>160</ele>
        <time>2018-11-11T09:04:56Z</time>
      </trkpt>
      <trkpt lat="48.63526" lon="1.83755">
        <ele>160</ele>
        <time>2018-11-11T09:05:00Z</time>
      </trkpt>
      <trkpt lat="48.63519" lon="1.83758">
        <ele>160</ele>
        <time>2018-11-11T09:05:08Z</time>
      </trkpt>
      <trkpt lat="48.63519" lon="1.83767">
        <ele>160</ele>
        <time>2018-11-11T09:05:31Z</time>
      </trkpt>
      <trkpt lat="48.6352" lon="1.83774">
        <ele>162</ele>
        <time>2018-11-11T09:07:50Z</time>
      </trkpt>
      <trkpt lat="48.63517" lon="1.8378">
        <ele>162</ele>
        <time>2018-11-11T09:08:32Z</time>
      </trkpt>
      <trkpt lat="48.63511" lon="1.83785">
        <ele>162</ele>
        <time>2018-11-11T09:11:38Z</time>
      </trkpt>
      <trkpt lat="48.63503" lon="1.83792">
        <ele>162</ele>
        <time>2018-11-11T09:11:47Z</time>
      </trkpt>
      <trkpt lat="48.63491" lon="1.83823">
        <ele>162</ele>
        <time>2018-11-11T09:12:15Z</time>
      </trkpt>
      <trkpt lat="48.63482" lon="1.83851">
        <ele>162</ele>
        <time>2018-11-11T09:12:30Z</time>
      </trkpt>
      <trkpt lat="48.63477" lon="1.8388">
        <ele>161</ele>
        <time>2018-11-11T09:12:51Z</time>
      </trkpt>
      <trkpt lat="48.63469" lon="1.83891">
        <ele>160</ele>
        <time>2018-11-11T09:13:00Z</time>
      </trkpt>
      <trkpt lat="48.63452" lon="1.83898">
        <ele>161</ele>
        <time>2018-11-11T09:13:11Z</time>
      </trkpt>
      <trkpt lat="48.63416" lon="1.83926">
        <ele>161</ele>
        <time>2018-11-11T09:13:40Z</time>
      </trkpt>
      <trkpt lat="48.63403" lon="1.83948">
        <ele>160</ele>
        <time>2018-11-11T09:13:56Z</time>
      </trkpt>
      <trkpt lat="48.63397" lon="1.83961">
        <ele>160</ele>
        <time>2018-11-11T09:14:04Z</time>
      </trkpt>
      <trkpt lat="48.63367" lon="1.83981">
        <ele>160</ele>
        <time>2018-11-11T09:14:22Z</time>
      </trkpt>
      <trkpt lat="48.63356" lon="1.83981">
        <ele>161</ele>
        <time>2018-11-11T09:14:29Z</time>
      </trkpt>
      <trkpt lat="48.63341" lon="1.83988">
        <ele>161</ele>
        <time>2018-11-11T09:14:41Z</time>
      </trkpt>
      <trkpt lat="48.63337" lon="1.83988">
        <ele>161</ele>
        <time>2018-11-11T09:14:45Z</time>
      </trkpt>
      <trkpt lat="48.63333" lon="1.83992">
        <ele>161</ele>
        <time>2018-11-11T09:14:49Z</time>
      </trkpt>
      <trkpt lat="48.63327" lon="1.83992">
        <ele>160</ele>
        <time>2018-11-11T09:14:54Z</time>
      </trkpt>
      <trkpt lat="48.63322" lon="1.83996">
        <ele>160</ele>
        <time>2018-11-11T09:14:59Z</time>
      </trkpt>
      <trkpt lat="48.63313" lon="1.83997">
        <ele>160</ele>
        <time>2018-11-11T09:15:05Z</time>
      </trkpt>
      <trkpt lat="48.63285" lon="1.83996">
        <ele>160</ele>
        <time>2018-11-11T09:15:24Z</time>
      </trkpt>
      <trkpt lat="48.63274" lon="1.84002">
        <ele>160</ele>
        <time>2018-11-11T09:15:32Z</time>
      </trkpt>
      <trkpt lat="48.63265" lon="1.84008">
        <ele>160</ele>
        <time>2018-11-11T09:15:39Z</time>
      </trkpt>
      <trkpt lat="48.63245" lon="1.84013">
        <ele>160</ele>
        <time>2018-11-11T09:15:56Z</time>
      </trkpt>
      <trkpt lat="48.63218" lon="1.84039">
        <ele>159</ele>
        <time>2018-11-11T09:16:18Z</time>
      </trkpt>
      <trkpt lat="48.63214" lon="1.84045">
        <ele>159</ele>
        <time>2018-11-11T09:16:22Z</time>
      </trkpt>
      <trkpt lat="48.6321" lon="1.84049">
        <ele>159</ele>
        <time>2018-11-11T09:16:26Z</time>
      </trkpt>
      <trkpt lat="48.6318" lon="1.84054">
        <ele>159</ele>
        <time>2018-11-11T09:16:49Z</time>
      </trkpt>
      <trkpt lat="48.63169" lon="1.8406">
        <ele>158</ele>
        <time>2018-11-11T09:16:57Z</time>
      </trkpt>
      <trkpt lat="48.63151" lon="1.84072">
        <ele>158</ele>
        <time>2018-11-11T09:17:09Z</time>
      </trkpt>
      <trkpt lat="48.63145" lon="1.84076">
        <ele>158</ele>
        <time>2018-11-11T09:17:13Z</time>
      </trkpt>
      <trkpt lat="48.6314" lon="1.84073">
        <ele>158</ele>
        <time>2018-11-11T09:17:16Z</time>
      </trkpt>
      <trkpt lat="48.63135" lon="1.84075">
        <ele>158</ele>
        <time>2018-11-11T09:17:20Z</time>
      </trkpt>
      <trkpt lat="48.6313" lon="1.84077">
        <ele>158</ele>
        <time>2018-11-11T09:17:24Z</time>
      </trkpt>
      <trkpt lat="48.63118" lon="1.84079">
        <ele>158</ele>
        <time>2018-11-11T09:17:32Z</time>
      </trkpt>
      <trkpt lat="48.63113" lon="1.84079">
        <ele>158</ele>
        <time>2018-11-11T09:17:36Z</time>
      </trkpt>
      <trkpt lat="48.63103" lon="1.84086">
        <ele>158</ele>
        <time>2018-11-11T09:17:44Z</time>
      </trkpt>
      <trkpt lat="48.63102" lon="1.84093">
        <ele>157</ele>
        <time>2018-11-11T09:17:48Z</time>
      </trkpt>
      <trkpt lat="48.63105" lon="1.84106">
        <ele>157</ele>
        <time>2018-11-11T09:17:58Z</time>
      </trkpt>
      <trkpt lat="48.63101" lon="1.84113">
        <ele>157</ele>
        <time>2018-11-11T09:18:05Z</time>
      </trkpt>
      <trkpt lat="48.63098" lon="1.84119">
        <ele>157</ele>
        <time>2018-11-11T09:18:10Z</time>
      </trkpt>
      <trkpt lat="48.63093" lon="1.84123">
        <ele>157</ele>
        <time>2018-11-11T09:18:14Z</time>
      </trkpt>
      <trkpt lat="48.63089" lon="1.84127">
        <ele>157</ele>
        <time>2018-11-11T09:18:18Z</time>
      </trkpt>
      <trkpt lat="48.63083" lon="1.84129">
        <ele>157</ele>
        <time>2018-11-11T09:18:22Z</time>
      </trkpt>
      <trkpt lat="48.63079" lon="1.84133">
        <ele>156</ele>
        <time>2018-11-11T09:18:27Z</time>
      </trkpt>
      <trkpt lat="48.63074" lon="1.84138">
        <ele>156</ele>
        <time>2018-11-11T09:18:30Z</time>
      </trkpt>
      <trkpt lat="48.63069" lon="1.8414">
        <ele>156</ele>
        <time>2018-11-11T09:18:33Z</time>
      </trkpt>
      <trkpt lat="48.63061" lon="1.8415">
        <ele>156</ele>
        <time>2018-11-11T09:18:40Z</time>
      </trkpt>
      <trkpt lat="48.63048" lon="1.84154">
        <ele>155</ele>
        <time>2018-11-11T09:18:52Z</time>
      </trkpt>
      <trkpt lat="48.63043" lon="1.84162">
        <ele>156</ele>
        <time>2018-11-11T09:19:01Z</time>
      </trkpt>
      <trkpt lat="48.63036" lon="1.84174">
        <ele>155</ele>
        <time>2018-11-11T09:19:11Z</time>
      </trkpt>
      <trkpt lat="48.63032" lon="1.8418">
        <ele>155</ele>
        <time>2018-11-11T09:19:16Z</time>
      </trkpt>
      <trkpt lat="48.63027" lon="1.84193">
        <ele>155</ele>
        <time>2018-11-11T09:19:22Z</time>
      </trkpt>
      <trkpt lat="48.63029" lon="1.842">
        <ele>155</ele>
        <time>2018-11-11T09:19:26Z</time>
      </trkpt>
      <trkpt lat="48.6306" lon="1.84209">
        <ele>155</ele>
        <time>2018-11-11T09:19:49Z</time>
      </trkpt>
      <trkpt lat="48.63071" lon="1.84226">
        <ele>155</ele>
        <time>2018-11-11T09:20:01Z</time>
      </trkpt>
      <trkpt lat="48.63076" lon="1.8423">
        <ele>155</ele>
        <time>2018-11-11T09:20:05Z</time>
      </trkpt>
      <trkpt lat="48.63078" lon="1.84236">
        <ele>155</ele>
        <time>2018-11-11T09:20:08Z</time>
      </trkpt>
      <trkpt lat="48.63079" lon="1.84245">
        <ele>155</ele>
        <time>2018-11-11T09:20:15Z</time>
      </trkpt>
      <trkpt lat="48.6308" lon="1.84255">
        <ele>155</ele>
        <time>2018-11-11T09:20:23Z</time>
      </trkpt>
      <trkpt lat="48.63076" lon="1.84262">
        <ele>155</ele>
        <time>2018-11-11T09:20:26Z</time>
      </trkpt>
      <trkpt lat="48.63074" lon="1.84268">
        <ele>155</ele>
        <time>2018-11-11T09:20:29Z</time>
      </trkpt>
      <trkpt lat="48.63066" lon="1.8428">
        <ele>156</ele>
        <time>2018-11-11T09:20:37Z</time>
      </trkpt>
      <trkpt lat="48.63057" lon="1.84283">
        <ele>156</ele>
        <time>2018-11-11T09:20:46Z</time>
      </trkpt>
      <trkpt lat="48.63051" lon="1.84282">
        <ele>157</ele>
        <time>2018-11-11T09:20:51Z</time>
      </trkpt>
      <trkpt lat="48.63047" lon="1.84285">
        <ele>157</ele>
        <time>2018-11-11T09:20:56Z</time>
      </trkpt>
      <trkpt lat="48.63036" lon="1.84287">
        <ele>155</ele>
        <time>2018-11-11T09:21:06Z</time>
      </trkpt>
      <trkpt lat="48.63024" lon="1.84289">
        <ele>155</ele>
        <time>2018-11-11T09:21:12Z</time>
      </trkpt>
      <trkpt lat="48.63019" lon="1.84288">
        <ele>155</ele>
        <time>2018-11-11T09:21:16Z</time>
      </trkpt>
      <trkpt lat="48.63009" lon="1.84286">
        <ele>156</ele>
        <time>2018-11-11T09:21:22Z</time>
      </trkpt>
      <trkpt lat="48.63005" lon="1.84286">
        <ele>156</ele>
        <time>2018-11-11T09:21:26Z</time>
      </trkpt>
      <trkpt lat="48.62994" lon="1.84282">
        <ele>156</ele>
        <time>2018-11-11T09:21:36Z</time>
      </trkpt>
      <trkpt lat="48.62983" lon="1.84286">
        <ele>155</ele>
        <time>2018-11-11T09:21:45Z</time>
      </trkpt>
      <trkpt lat="48.62968" lon="1.8429">
        <ele>155</ele>
        <time>2018-11-11T09:21:56Z</time>
      </trkpt>
      <trkpt lat="48.62958" lon="1.84295">
        <ele>155</ele>
        <time>2018-11-11T09:22:04Z</time>
      </trkpt>
      <trkpt lat="48.62953" lon="1.84297">
        <ele>154</ele>
        <time>2018-11-11T09:22:08Z</time>
      </trkpt>
      <trkpt lat="48.62948" lon="1.84299">
        <ele>154</ele>
        <time>2018-11-11T09:22:12Z</time>
      </trkpt>
      <trkpt lat="48.62943" lon="1.84303">
        <ele>155</ele>
        <time>2018-11-11T09:22:16Z</time>
      </trkpt>
      <trkpt lat="48.62938" lon="1.84305">
        <ele>154</ele>
        <time>2018-11-11T09:22:21Z</time>
      </trkpt>
      <trkpt lat="48.6293" lon="1.84313">
        <ele>154</ele>
        <time>2018-11-11T09:22:29Z</time>
      </trkpt>
      <trkpt lat="48.62927" lon="1.84319">
        <ele>154</ele>
        <time>2018-11-11T09:22:33Z</time>
      </trkpt>
      <trkpt lat="48.62913" lon="1.84332">
        <ele>154</ele>
        <time>2018-11-11T09:22:45Z</time>
      </trkpt>
      <trkpt lat="48.62909" lon="1.84337">
        <ele>154</ele>
        <time>2018-11-11T09:22:49Z</time>
      </trkpt>
      <trkpt lat="48.62897" lon="1.84352">
        <ele>155</ele>
        <time>2018-11-11T09:23:02Z</time>
      </trkpt>
      <trkpt lat="48.62893" lon="1.84355">
        <ele>155</ele>
        <time>2018-11-11T09:23:05Z</time>
      </trkpt>
      <trkpt lat="48.62889" lon="1.84361">
        <ele>155</ele>
        <time>2018-11-11T09:23:09Z</time>
      </trkpt>
      <trkpt lat="48.62876" lon="1.84376">
        <ele>155</ele>
        <time>2018-11-11T09:23:20Z</time>
      </trkpt>
      <trkpt lat="48.62874" lon="1.84381">
        <ele>155</ele>
        <time>2018-11-11T09:23:23Z</time>
      </trkpt>
      <trkpt lat="48.62872" lon="1.84388">
        <ele>155</ele>
        <time>2018-11-11T09:23:26Z</time>
      </trkpt>
      <trkpt lat="48.62869" lon="1.84394">
        <ele>155</ele>
        <time>2018-11-11T09:23:30Z</time>
      </trkpt>
      <trkpt lat="48.62868" lon="1.84403">
        <ele>154</ele>
        <time>2018-11-11T09:23:34Z</time>
      </trkpt>
      <trkpt lat="48.62865" lon="1.84417">
        <ele>153</ele>
        <time>2018-11-11T09:23:44Z</time>
      </trkpt>
      <trkpt lat="48.62871" lon="1.84429">
        <ele>154</ele>
        <time>2018-11-11T09:23:53Z</time>
      </trkpt>
      <trkpt lat="48.62872" lon="1.84436">
        <ele>154</ele>
        <time>2018-11-11T09:23:57Z</time>
      </trkpt>
      <trkpt lat="48.62872" lon="1.84443">
        <ele>154</ele>
        <time>2018-11-11T09:24:01Z</time>
      </trkpt>
      <trkpt lat="48.62873" lon="1.84452">
        <ele>154</ele>
        <time>2018-11-11T09:24:08Z</time>
      </trkpt>
      <trkpt lat="48.62873" lon="1.8446">
        <ele>155</ele>
        <time>2018-11-11T09:24:11Z</time>
      </trkpt>
      <trkpt lat="48.62871" lon="1.84475">
        <ele>154</ele>
        <time>2018-11-11T09:24:18Z</time>
      </trkpt>
      <trkpt lat="48.62873" lon="1.84508">
        <ele>155</ele>
        <time>2018-11-11T09:24:34Z</time>
      </trkpt>
      <trkpt lat="48.62875" lon="1.84515">
        <ele>154</ele>
        <time>2018-11-11T09:24:38Z</time>
      </trkpt>
      <trkpt lat="48.62883" lon="1.84545">
        <ele>154</ele>
        <time>2018-11-11T09:24:52Z</time>
      </trkpt>
      <trkpt lat="48.62884" lon="1.84568">
        <ele>154</ele>
        <time>2018-11-11T09:25:02Z</time>
      </trkpt>
      <trkpt lat="48.62887" lon="1.84574">
        <ele>154</ele>
        <time>2018-11-11T09:25:06Z</time>
      </trkpt>
      <trkpt lat="48.6289" lon="1.84579">
        <ele>154</ele>
        <time>2018-11-11T09:25:10Z</time>
      </trkpt>
      <trkpt lat="48.62895" lon="1.84581">
        <ele>154</ele>
        <time>2018-11-11T09:25:14Z</time>
      </trkpt>
      <trkpt lat="48.62905" lon="1.84602">
        <ele>154</ele>
        <time>2018-11-11T09:25:26Z</time>
      </trkpt>
      <trkpt lat="48.62918" lon="1.84614">
        <ele>155</ele>
        <time>2018-11-11T09:25:39Z</time>
      </trkpt>
      <trkpt lat="48.62921" lon="1.84621">
        <ele>155</ele>
        <time>2018-11-11T09:25:43Z</time>
      </trkpt>
      <trkpt lat="48.6294" lon="1.84651">
        <ele>156</ele>
        <time>2018-11-11T09:26:00Z</time>
      </trkpt>
      <trkpt lat="48.62945" lon="1.84654">
        <ele>156</ele>
        <time>2018-11-11T09:26:04Z</time>
      </trkpt>
      <trkpt lat="48.62948" lon="1.84659">
        <ele>156</ele>
        <time>2018-11-11T09:26:08Z</time>
      </trkpt>
      <trkpt lat="48.62952" lon="1.84663">
        <ele>156</ele>
        <time>2018-11-11T09:26:12Z</time>
      </trkpt>
      <trkpt lat="48.62962" lon="1.84683">
        <ele>156</ele>
        <time>2018-11-11T09:26:25Z</time>
      </trkpt>
      <trkpt lat="48.62967" lon="1.84705">
        <ele>155</ele>
        <time>2018-11-11T09:26:37Z</time>
      </trkpt>
      <trkpt lat="48.62975" lon="1.84718">
        <ele>156</ele>
        <time>2018-11-11T09:26:46Z</time>
      </trkpt>
      <trkpt lat="48.62978" lon="1.84732">
        <ele>156</ele>
        <time>2018-11-11T09:26:52Z</time>
      </trkpt>
      <trkpt lat="48.6299" lon="1.84774">
        <ele>154</ele>
        <time>2018-11-11T09:27:15Z</time>
      </trkpt>
      <trkpt lat="48.62992" lon="1.8479">
        <ele>154</ele>
        <time>2018-11-11T09:27:22Z</time>
      </trkpt>
      <trkpt lat="48.62994" lon="1.84797">
        <ele>155</ele>
        <time>2018-11-11T09:27:27Z</time>
      </trkpt>
      <trkpt lat="48.62995" lon="1.84804">
        <ele>155</ele>
        <time>2018-11-11T09:27:30Z</time>
      </trkpt>
      <trkpt lat="48.63008" lon="1.84846">
        <ele>154</ele>
        <time>2018-11-11T09:27:49Z</time>
      </trkpt>
      <trkpt lat="48.63008" lon="1.84854">
        <ele>154</ele>
        <time>2018-11-11T09:27:53Z</time>
      </trkpt>
      <trkpt lat="48.63011" lon="1.84861">
        <ele>154</ele>
        <time>2018-11-11T09:27:58Z</time>
      </trkpt>
      <trkpt lat="48.63016" lon="1.84863">
        <ele>154</ele>
        <time>2018-11-11T09:28:03Z</time>
      </trkpt>
      <trkpt lat="48.6302" lon="1.84868">
        <ele>154</ele>
        <time>2018-11-11T09:28:06Z</time>
      </trkpt>
      <trkpt lat="48.63026" lon="1.84881">
        <ele>154</ele>
        <time>2018-11-11T09:28:14Z</time>
      </trkpt>
      <trkpt lat="48.63029" lon="1.84889">
        <ele>154</ele>
        <time>2018-11-11T09:28:18Z</time>
      </trkpt>
      <trkpt lat="48.63042" lon="1.84921">
        <ele>154</ele>
        <time>2018-11-11T09:28:36Z</time>
      </trkpt>
      <trkpt lat="48.63044" lon="1.84928">
        <ele>154</ele>
        <time>2018-11-11T09:28:39Z</time>
      </trkpt>
      <trkpt lat="48.63047" lon="1.84934">
        <ele>154</ele>
        <time>2018-11-11T09:28:43Z</time>
      </trkpt>
      <trkpt lat="48.63054" lon="1.84956">
        <ele>154</ele>
        <time>2018-11-11T09:28:56Z</time>
      </trkpt>
      <trkpt lat="48.63063" lon="1.84975">
        <ele>154</ele>
        <time>2018-11-11T09:29:07Z</time>
      </trkpt>
      <trkpt lat="48.63071" lon="1.84983">
        <ele>154</ele>
        <time>2018-11-11T09:29:14Z</time>
      </trkpt>
      <trkpt lat="48.63076" lon="1.84986">
        <ele>154</ele>
        <time>2018-11-11T09:29:18Z</time>
      </trkpt>
      <trkpt lat="48.63092" lon="1.85005">
        <ele>154</ele>
        <time>2018-11-11T09:29:32Z</time>
      </trkpt>
      <trkpt lat="48.63097" lon="1.85008">
        <ele>154</ele>
        <time>2018-11-11T09:29:36Z</time>
      </trkpt>
      <trkpt lat="48.63093" lon="1.85019">
        <ele>156</ele>
        <time>2018-11-11T09:29:44Z</time>
      </trkpt>
      <trkpt lat="48.63064" lon="1.85054">
        <ele>156</ele>
        <time>2018-11-11T09:30:08Z</time>
      </trkpt>
      <trkpt lat="48.63057" lon="1.85066">
        <ele>156</ele>
        <time>2018-11-11T09:30:14Z</time>
      </trkpt>
      <trkpt lat="48.63057" lon="1.85074">
        <ele>156</ele>
        <time>2018-11-11T09:30:18Z</time>
      </trkpt>
      <trkpt lat="48.63061" lon="1.85089">
        <ele>156</ele>
        <time>2018-11-11T09:30:27Z</time>
      </trkpt>
      <trkpt lat="48.63065" lon="1.85112">
        <ele>157</ele>
        <time>2018-11-11T09:30:39Z</time>
      </trkpt>
      <trkpt lat="48.63066" lon="1.85128">
        <ele>157</ele>
        <time>2018-11-11T09:30:45Z</time>
      </trkpt>
      <trkpt lat="48.6307" lon="1.85134">
        <ele>157</ele>
        <time>2018-11-11T09:30:49Z</time>
      </trkpt>
      <trkpt lat="48.63085" lon="1.85156">
        <ele>156</ele>
        <time>2018-11-11T09:31:06Z</time>
      </trkpt>
      <trkpt lat="48.63105" lon="1.85192">
        <ele>156</ele>
        <time>2018-11-11T09:31:27Z</time>
      </trkpt>
      <trkpt lat="48.63112" lon="1.85201">
        <ele>156</ele>
        <time>2018-11-11T09:31:34Z</time>
      </trkpt>
      <trkpt lat="48.63121" lon="1.85228">
        <ele>156</ele>
        <time>2018-11-11T09:31:49Z</time>
      </trkpt>
      <trkpt lat="48.6313" lon="1.85244">
        <ele>155</ele>
        <time>2018-11-11T09:32:01Z</time>
      </trkpt>
      <trkpt lat="48.63136" lon="1.85269">
        <ele>155</ele>
        <time>2018-11-11T09:32:13Z</time>
      </trkpt>
      <trkpt lat="48.6314" lon="1.85273">
        <ele>155</ele>
        <time>2018-11-11T09:32:16Z</time>
      </trkpt>
      <trkpt lat="48.63143" lon="1.8528">
        <ele>155</ele>
        <time>2018-11-11T09:32:20Z</time>
      </trkpt>
      <trkpt lat="48.63147" lon="1.85294">
        <ele>155</ele>
        <time>2018-11-11T09:32:26Z</time>
      </trkpt>
      <trkpt lat="48.63153" lon="1.85309">
        <ele>154</ele>
        <time>2018-11-11T09:32:34Z</time>
      </trkpt>
      <trkpt lat="48.6317" lon="1.85377">
        <ele>154</ele>
        <time>2018-11-11T09:33:08Z</time>
      </trkpt>
      <trkpt lat="48.63172" lon="1.85382">
        <ele>154</ele>
        <time>2018-11-11T09:33:12Z</time>
      </trkpt>
      <trkpt lat="48.63175" lon="1.85392">
        <ele>154</ele>
        <time>2018-11-11T09:33:16Z</time>
      </trkpt>
      <trkpt lat="48.63179" lon="1.85407">
        <ele>154</ele>
        <time>2018-11-11T09:33:26Z</time>
      </trkpt>
      <trkpt lat="48.63182" lon="1.85412">
        <ele>154</ele>
        <time>2018-11-11T09:33:29Z</time>
      </trkpt>
      <trkpt lat="48.63199" lon="1.85426">
        <ele>154</ele>
        <time>2018-11-11T09:33:44Z</time>
      </trkpt>
      <trkpt lat="48.63215" lon="1.85459">
        <ele>154</ele>
        <time>2018-11-11T09:34:06Z</time>
      </trkpt>
      <trkpt lat="48.63218" lon="1.85475">
        <ele>155</ele>
        <time>2018-11-11T09:34:15Z</time>
      </trkpt>
      <trkpt lat="48.63245" lon="1.85533">
        <ele>154</ele>
        <time>2018-11-11T09:34:49Z</time>
      </trkpt>
      <trkpt lat="48.6325" lon="1.85545">
        <ele>154</ele>
        <time>2018-11-11T09:34:55Z</time>
      </trkpt>
      <trkpt lat="48.63264" lon="1.85568">
        <ele>154</ele>
        <time>2018-11-11T09:35:12Z</time>
      </trkpt>
      <trkpt lat="48.63269" lon="1.85581">
        <ele>154</ele>
        <time>2018-11-11T09:35:19Z</time>
      </trkpt>
      <trkpt lat="48.63276" lon="1.8559">
        <ele>154</ele>
        <time>2018-11-11T09:35:26Z</time>
      </trkpt>
      <trkpt lat="48.63295" lon="1.856">
        <ele>154</ele>
        <time>2018-11-11T09:35:44Z</time>
      </trkpt>
      <trkpt lat="48.63308" lon="1.85614">
        <ele>154</ele>
        <time>2018-11-11T09:35:53Z</time>
      </trkpt>
      <trkpt lat="48.63311" lon="1.8562">
        <ele>154</ele>
        <time>2018-11-11T09:35:57Z</time>
      </trkpt>
      <trkpt lat="48.6331" lon="1.85628">
        <ele>154</ele>
        <time>2018-11-11T09:36:01Z</time>
      </trkpt>
      <trkpt lat="48.63306" lon="1.85642">
        <ele>154</ele>
        <time>2018-11-11T09:36:08Z</time>
      </trkpt>
      <trkpt lat="48.63309" lon="1.85648">
        <ele>154</ele>
        <time>2018-11-11T09:36:12Z</time>
      </trkpt>
      <trkpt lat="48.63316" lon="1.8566">
        <ele>154</ele>
        <time>2018-11-11T09:36:19Z</time>
      </trkpt>
      <trkpt lat="48.63321" lon="1.85663">
        <ele>154</ele>
        <time>2018-11-11T09:36:23Z</time>
      </trkpt>
      <trkpt lat="48.63325" lon="1.85665">
        <ele>154</ele>
        <time>2018-11-11T09:36:27Z</time>
      </trkpt>
      <trkpt lat="48.63329" lon="1.8567">
        <ele>154</ele>
        <time>2018-11-11T09:36:31Z</time>
      </trkpt>
      <trkpt lat="48.63336" lon="1.85673">
        <ele>154</ele>
        <time>2018-11-11T09:36:39Z</time>
      </trkpt>
      <trkpt lat="48.63341" lon="1.85676">
        <ele>154</ele>
        <time>2018-11-11T09:36:43Z</time>
      </trkpt>
      <trkpt lat="48.63351" lon="1.85675">
        <ele>154</ele>
        <time>2018-11-11T09:36:50Z</time>
      </trkpt>
      <trkpt lat="48.63355" lon="1.8567">
        <ele>154</ele>
        <time>2018-11-11T09:36:54Z</time>
      </trkpt>
      <trkpt lat="48.6336" lon="1.85667">
        <ele>154</ele>
        <time>2018-11-11T09:36:58Z</time>
      </trkpt>
      <trkpt lat="48.6337" lon="1.85665">
        <ele>153</ele>
        <time>2018-11-11T09:37:05Z</time>
      </trkpt>
      <trkpt lat="48.63407" lon="1.85668">
        <ele>153</ele>
        <time>2018-11-11T09:37:36Z</time>
      </trkpt>
      <trkpt lat="48.63422" lon="1.85672">
        <ele>153</ele>
        <time>2018-11-11T09:37:49Z</time>
      </trkpt>
      <trkpt lat="48.63429" lon="1.85676">
        <ele>153</ele>
        <time>2018-11-11T09:37:58Z</time>
      </trkpt>
      <trkpt lat="48.6344" lon="1.85679">
        <ele>153</ele>
        <time>2018-11-11T09:38:06Z</time>
      </trkpt>
      <trkpt lat="48.63459" lon="1.85689">
        <ele>153</ele>
        <time>2018-11-11T09:38:21Z</time>
      </trkpt>
      <trkpt lat="48.63464" lon="1.85688">
        <ele>153</ele>
        <time>2018-11-11T09:38:25Z</time>
      </trkpt>
      <trkpt lat="48.63478" lon="1.85695">
        <ele>153</ele>
        <time>2018-11-11T09:38:36Z</time>
      </trkpt>
      <trkpt lat="48.63504" lon="1.8572">
        <ele>153</ele>
        <time>2018-11-11T09:38:58Z</time>
      </trkpt>
      <trkpt lat="48.63505" lon="1.85729">
        <ele>153</ele>
        <time>2018-11-11T09:39:04Z</time>
      </trkpt>
      <trkpt lat="48.63509" lon="1.85737">
        <ele>153</ele>
        <time>2018-11-11T09:39:12Z</time>
      </trkpt>
      <trkpt lat="48.63516" lon="1.85737">
        <ele>153</ele>
        <time>2018-11-11T09:39:16Z</time>
      </trkpt>
      <trkpt lat="48.63536" lon="1.8573">
        <ele>153</ele>
        <time>2018-11-11T09:39:30Z</time>
      </trkpt>
      <trkpt lat="48.63541" lon="1.85732">
        <ele>153</ele>
        <time>2018-11-11T09:39:34Z</time>
      </trkpt>
      <trkpt lat="48.63561" lon="1.85722">
        <ele>154</ele>
        <time>2018-11-11T09:39:53Z</time>
      </trkpt>
      <trkpt lat="48.63591" lon="1.8573">
        <ele>154</ele>
        <time>2018-11-11T09:40:12Z</time>
      </trkpt>
      <trkpt lat="48.63598" lon="1.85742">
        <ele>154</ele>
        <time>2018-11-11T09:40:20Z</time>
      </trkpt>
      <trkpt lat="48.63602" lon="1.85746">
        <ele>154</ele>
        <time>2018-11-11T09:40:24Z</time>
      </trkpt>
      <trkpt lat="48.63609" lon="1.85745">
        <ele>154</ele>
        <time>2018-11-11T09:40:31Z</time>
      </trkpt>
      <trkpt lat="48.63614" lon="1.85743">
        <ele>154</ele>
        <time>2018-11-11T09:40:36Z</time>
      </trkpt>
      <trkpt lat="48.6362" lon="1.85744">
        <ele>153</ele>
        <time>2018-11-11T09:40:41Z</time>
      </trkpt>
      <trkpt lat="48.63624" lon="1.85742">
        <ele>153</ele>
        <time>2018-11-11T09:40:45Z</time>
      </trkpt>
      <trkpt lat="48.63634" lon="1.85744">
        <ele>153</ele>
        <time>2018-11-11T09:40:52Z</time>
      </trkpt>
      <trkpt lat="48.63643" lon="1.85749">
        <ele>153</ele>
        <time>2018-11-11T09:40:59Z</time>
      </trkpt>
      <trkpt lat="48.63672" lon="1.85758">
        <ele>152</ele>
        <time>2018-11-11T09:41:19Z</time>
      </trkpt>
      <trkpt lat="48.63676" lon="1.85761">
        <ele>153</ele>
        <time>2018-11-11T09:41:23Z</time>
      </trkpt>
      <trkpt lat="48.63687" lon="1.85764">
        <ele>153</ele>
        <time>2018-11-11T09:41:32Z</time>
      </trkpt>
      <trkpt lat="48.63692" lon="1.85764">
        <ele>153</ele>
        <time>2018-11-11T09:41:36Z</time>
      </trkpt>
      <trkpt lat="48.63701" lon="1.85772">
        <ele>153</ele>
        <time>2018-11-11T09:41:44Z</time>
      </trkpt>
      <trkpt lat="48.63706" lon="1.85772">
        <ele>153</ele>
        <time>2018-11-11T09:41:49Z</time>
      </trkpt>
      <trkpt lat="48.63713" lon="1.85776">
        <ele>153</ele>
        <time>2018-11-11T09:41:53Z</time>
      </trkpt>
      <trkpt lat="48.63739" lon="1.85772">
        <ele>153</ele>
        <time>2018-11-11T09:42:16Z</time>
      </trkpt>
      <trkpt lat="48.63764" lon="1.85779">
        <ele>153</ele>
        <time>2018-11-11T09:42:36Z</time>
      </trkpt>
      <trkpt lat="48.63773" lon="1.85786">
        <ele>152</ele>
        <time>2018-11-11T09:42:43Z</time>
      </trkpt>
      <trkpt lat="48.63821" lon="1.85793">
        <ele>152</ele>
        <time>2018-11-11T09:43:16Z</time>
      </trkpt>
      <trkpt lat="48.63858" lon="1.85802">
        <ele>152</ele>
        <time>2018-11-11T09:43:47Z</time>
      </trkpt>
      <trkpt lat="48.63868" lon="1.85806">
        <ele>152</ele>
        <time>2018-11-11T09:43:53Z</time>
      </trkpt>
      <trkpt lat="48.63879" lon="1.85807">
        <ele>152</ele>
        <time>2018-11-11T09:43:59Z</time>
      </trkpt>
      <trkpt lat="48.63897" lon="1.85814">
        <ele>153</ele>
        <time>2018-11-11T09:44:13Z</time>
      </trkpt>
      <trkpt lat="48.63902" lon="1.85814">
        <ele>153</ele>
        <time>2018-11-11T09:44:16Z</time>
      </trkpt>
      <trkpt lat="48.63906" lon="1.85811">
        <ele>153</ele>
        <time>2018-11-11T09:44:21Z</time>
      </trkpt>
      <trkpt lat="48.63911" lon="1.85812">
        <ele>153</ele>
        <time>2018-11-11T09:44:25Z</time>
      </trkpt>
      <trkpt lat="48.63956" lon="1.85825">
        <ele>153</ele>
        <time>2018-11-11T09:44:58Z</time>
      </trkpt>
      <trkpt lat="48.63965" lon="1.85828">
        <ele>153</ele>
        <time>2018-11-11T09:45:05Z</time>
      </trkpt>
      <trkpt lat="48.63978" lon="1.85825">
        <ele>152</ele>
        <time>2018-11-11T09:45:11Z</time>
      </trkpt>
      <trkpt lat="48.63984" lon="1.85827">
        <ele>152</ele>
        <time>2018-11-11T09:45:14Z</time>
      </trkpt>
      <trkpt lat="48.63988" lon="1.8583">
        <ele>152</ele>
        <time>2018-11-11T09:45:16Z</time>
      </trkpt>
      <trkpt lat="48.64001" lon="1.85837">
        <ele>153</ele>
        <time>2018-11-11T09:45:28Z</time>
      </trkpt>
      <trkpt lat="48.6401" lon="1.85843">
        <ele>153</ele>
        <time>2018-11-11T09:45:34Z</time>
      </trkpt>
      <trkpt lat="48.6402" lon="1.8585">
        <ele>153</ele>
        <time>2018-11-11T09:45:41Z</time>
      </trkpt>
      <trkpt lat="48.64025" lon="1.8585">
        <ele>153</ele>
        <time>2018-11-11T09:45:44Z</time>
      </trkpt>
      <trkpt lat="48.64031" lon="1.85848">
        <ele>153</ele>
        <time>2018-11-11T09:45:48Z</time>
      </trkpt>
      <trkpt lat="48.64036" lon="1.8585">
        <ele>153</ele>
        <time>2018-11-11T09:45:52Z</time>
      </trkpt>
      <trkpt lat="48.64037" lon="1.85843">
        <ele>153</ele>
        <time>2018-11-11T09:46:24Z</time>
      </trkpt>
      <trkpt lat="48.64043" lon="1.85846">
        <ele>152</ele>
        <time>2018-11-11T09:49:06Z</time>
      </trkpt>
      <trkpt lat="48.6404" lon="1.85849">
        <ele>152</ele>
        <time>2018-11-11T09:50:37Z</time>
      </trkpt>
      <trkpt lat="48.64044" lon="1.85855">
        <ele>152</ele>
        <time>2018-11-11T09:51:01Z</time>
      </trkpt>
      <trkpt lat="48.64048" lon="1.85857">
        <ele>152</ele>
        <time>2018-11-11T09:51:06Z</time>
      </trkpt>
      <trkpt lat="48.64055" lon="1.85857">
        <ele>151</ele>
        <time>2018-11-11T09:51:12Z</time>
      </trkpt>
      <trkpt lat="48.64097" lon="1.85882">
        <ele>152</ele>
        <time>2018-11-11T09:51:40Z</time>
      </trkpt>
      <trkpt lat="48.64126" lon="1.85892">
        <ele>152</ele>
        <time>2018-11-11T09:52:03Z</time>
      </trkpt>
      <trkpt lat="48.64135" lon="1.85898">
        <ele>153</ele>
        <time>2018-11-11T09:52:10Z</time>
      </trkpt>
      <trkpt lat="48.64143" lon="1.85906">
        <ele>153</ele>
        <time>2018-11-11T09:52:18Z</time>
      </trkpt>
      <trkpt lat="48.64152" lon="1.85909">
        <ele>153</ele>
        <time>2018-11-11T09:52:24Z</time>
      </trkpt>
      <trkpt lat="48.64171" lon="1.85915">
        <ele>152</ele>
        <time>2018-11-11T09:52:38Z</time>
      </trkpt>
      <trkpt lat="48.64188" lon="1.85925">
        <ele>153</ele>
        <time>2018-11-11T09:52:50Z</time>
      </trkpt>
      <trkpt lat="48.64196" lon="1.85931">
        <ele>154</ele>
        <time>2018-11-11T09:52:55Z</time>
      </trkpt>
      <trkpt lat="48.64205" lon="1.8594">
        <ele>153</ele>
        <time>2018-11-11T09:53:01Z</time>
      </trkpt>
      <trkpt lat="48.64211" lon="1.85952">
        <ele>153</ele>
        <time>2018-11-11T09:53:08Z</time>
      </trkpt>
      <trkpt lat="48.64214" lon="1.85966">
        <ele>153</ele>
        <time>2018-11-11T09:53:14Z</time>
      </trkpt>
      <trkpt lat="48.64213" lon="1.8598">
        <ele>153</ele>
        <time>2018-11-11T09:53:22Z</time>
      </trkpt>
      <trkpt lat="48.64215" lon="1.85994">
        <ele>155</ele>
        <time>2018-11-11T09:53:35Z</time>
      </trkpt>
      <trkpt lat="48.64213" lon="1.86">
        <ele>155</ele>
        <time>2018-11-11T09:53:39Z</time>
      </trkpt>
      <trkpt lat="48.64214" lon="1.86008">
        <ele>156</ele>
        <time>2018-11-11T09:53:50Z</time>
      </trkpt>
      <trkpt lat="48.64208" lon="1.86011">
        <ele>156</ele>
        <time>2018-11-11T09:54:08Z</time>
      </trkpt>
      <trkpt lat="48.64212" lon="1.86017">
        <ele>156</ele>
        <time>2018-11-11T09:54:12Z</time>
      </trkpt>
      <trkpt lat="48.64215" lon="1.86031">
        <ele>155</ele>
        <time>2018-11-11T09:54:21Z</time>
      </trkpt>
      <trkpt lat="48.64221" lon="1.8604">
        <ele>153</ele>
        <time>2018-11-11T09:54:30Z</time>
      </trkpt>
      <trkpt lat="48.64225" lon="1.86045">
        <ele>153</ele>
        <time>2018-11-11T09:54:33Z</time>
      </trkpt>
      <trkpt lat="48.64226" lon="1.86063">
        <ele>153</ele>
        <time>2018-11-11T09:54:41Z</time>
      </trkpt>
      <trkpt lat="48.64232" lon="1.86074">
        <ele>152</ele>
        <time>2018-11-11T09:54:47Z</time>
      </trkpt>
      <trkpt lat="48.64234" lon="1.86083">
        <ele>152</ele>
        <time>2018-11-11T09:54:51Z</time>
      </trkpt>
      <trkpt lat="48.64235" lon="1.86106">
        <ele>153</ele>
        <time>2018-11-11T09:55:04Z</time>
      </trkpt>
      <trkpt lat="48.64237" lon="1.86113">
        <ele>153</ele>
        <time>2018-11-11T09:55:08Z</time>
      </trkpt>
      <trkpt lat="48.64239" lon="1.86121">
        <ele>153</ele>
        <time>2018-11-11T09:55:12Z</time>
      </trkpt>
      <trkpt lat="48.64246" lon="1.86132">
        <ele>153</ele>
        <time>2018-11-11T09:55:20Z</time>
      </trkpt>
      <trkpt lat="48.6426" lon="1.86174">
        <ele>153</ele>
        <time>2018-11-11T09:55:44Z</time>
      </trkpt>
      <trkpt lat="48.64274" lon="1.86198">
        <ele>153</ele>
        <time>2018-11-11T09:56:00Z</time>
      </trkpt>
      <trkpt lat="48.64296" lon="1.86227">
        <ele>153</ele>
        <time>2018-11-11T09:56:19Z</time>
      </trkpt>
      <trkpt lat="48.64311" lon="1.86263">
        <ele>153</ele>
        <time>2018-11-11T09:56:39Z</time>
      </trkpt>
      <trkpt lat="48.64325" lon="1.86284">
        <ele>153</ele>
        <time>2018-11-11T09:56:52Z</time>
      </trkpt>
      <trkpt lat="48.64336" lon="1.86308">
        <ele>152</ele>
        <time>2018-11-11T09:57:08Z</time>
      </trkpt>
      <trkpt lat="48.6434" lon="1.86321">
        <ele>153</ele>
        <time>2018-11-11T09:57:16Z</time>
      </trkpt>
      <trkpt lat="48.64347" lon="1.8635">
        <ele>154</ele>
        <time>2018-11-11T09:57:28Z</time>
      </trkpt>
      <trkpt lat="48.6436" lon="1.86371">
        <ele>153</ele>
        <time>2018-11-11T09:57:42Z</time>
      </trkpt>
      <trkpt lat="48.64378" lon="1.86423">
        <ele>153</ele>
        <time>2018-11-11T09:58:13Z</time>
      </trkpt>
      <trkpt lat="48.6438" lon="1.86436">
        <ele>153</ele>
        <time>2018-11-11T09:58:20Z</time>
      </trkpt>
      <trkpt lat="48.6438" lon="1.86468">
        <ele>153</ele>
        <time>2018-11-11T09:58:38Z</time>
      </trkpt>
      <trkpt lat="48.64386" lon="1.86505">
        <ele>153</ele>
        <time>2018-11-11T09:58:59Z</time>
      </trkpt>
      <trkpt lat="48.64397" lon="1.86533">
        <ele>154</ele>
        <time>2018-11-11T09:59:13Z</time>
      </trkpt>
      <trkpt lat="48.64401" lon="1.86538">
        <ele>154</ele>
        <time>2018-11-11T09:59:17Z</time>
      </trkpt>
      <trkpt lat="48.64416" lon="1.86545">
        <ele>154</ele>
        <time>2018-11-11T09:59:29Z</time>
      </trkpt>
      <trkpt lat="48.64426" lon="1.86551">
        <ele>154</ele>
        <time>2018-11-11T09:59:36Z</time>
      </trkpt>
      <trkpt lat="48.64431" lon="1.86551">
        <ele>154</ele>
        <time>2018-11-11T09:59:40Z</time>
      </trkpt>
      <trkpt lat="48.64436" lon="1.86549">
        <ele>153</ele>
        <time>2018-11-11T09:59:44Z</time>
      </trkpt>
      <trkpt lat="48.64447" lon="1.8655">
        <ele>153</ele>
        <time>2018-11-11T09:59:53Z</time>
      </trkpt>
      <trkpt lat="48.64453" lon="1.86552">
        <ele>154</ele>
        <time>2018-11-11T09:59:57Z</time>
      </trkpt>
      <trkpt lat="48.64501" lon="1.8655">
        <ele>154</ele>
        <time>2018-11-11T10:00:33Z</time>
      </trkpt>
      <trkpt lat="48.64519" lon="1.86552">
        <ele>154</ele>
        <time>2018-11-11T10:00:47Z</time>
      </trkpt>
      <trkpt lat="48.64548" lon="1.86561">
        <ele>153</ele>
        <time>2018-11-11T10:01:12Z</time>
      </trkpt>
      <trkpt lat="48.64556" lon="1.86569">
        <ele>153</ele>
        <time>2018-11-11T10:01:19Z</time>
      </trkpt>
      <trkpt lat="48.64592" lon="1.86623">
        <ele>154</ele>
        <time>2018-11-11T10:01:58Z</time>
      </trkpt>
      <trkpt lat="48.64596" lon="1.86635">
        <ele>153</ele>
        <time>2018-11-11T10:02:06Z</time>
      </trkpt>
      <trkpt lat="48.64604" lon="1.86648">
        <ele>153</ele>
        <time>2018-11-11T10:02:16Z</time>
      </trkpt>
      <trkpt lat="48.64615" lon="1.86686">
        <ele>154</ele>
        <time>2018-11-11T10:02:39Z</time>
      </trkpt>
      <trkpt lat="48.64628" lon="1.86708">
        <ele>153</ele>
        <time>2018-11-11T10:02:53Z</time>
      </trkpt>
      <trkpt lat="48.64641" lon="1.86734">
        <ele>154</ele>
        <time>2018-11-11T10:03:11Z</time>
      </trkpt>
      <trkpt lat="48.64673" lon="1.86765">
        <ele>153</ele>
        <time>2018-11-11T10:03:37Z</time>
      </trkpt>
      <trkpt lat="48.64687" lon="1.86785">
        <ele>153</ele>
        <time>2018-11-11T10:03:49Z</time>
      </trkpt>
      <trkpt lat="48.64695" lon="1.86793">
        <ele>153</ele>
        <time>2018-11-11T10:03:57Z</time>
      </trkpt>
      <trkpt lat="48.64705" lon="1.86797">
        <ele>154</ele>
        <time>2018-11-11T10:04:05Z</time>
      </trkpt>
      <trkpt lat="48.64715" lon="1.86807">
        <ele>154</ele>
        <time>2018-11-11T10:04:16Z</time>
      </trkpt>
      <trkpt lat="48.64734" lon="1.86819">
        <ele>153</ele>
        <time>2018-11-11T10:04:34Z</time>
      </trkpt>
      <trkpt lat="48.64757" lon="1.86841">
        <ele>153</ele>
        <time>2018-11-11T10:04:56Z</time>
      </trkpt>
      <trkpt lat="48.64774" lon="1.8686">
        <ele>153</ele>
        <time>2018-11-11T10:05:12Z</time>
      </trkpt>
      <trkpt lat="48.64778" lon="1.86861">
        <ele>153</ele>
        <time>2018-11-11T10:05:15Z</time>
      </trkpt>
      <trkpt lat="48.64784" lon="1.86881">
        <ele>153</ele>
        <time>2018-11-11T10:05:29Z</time>
      </trkpt>
      <trkpt lat="48.64786" lon="1.86931">
        <ele>157</ele>
        <time>2018-11-11T10:06:00Z</time>
      </trkpt>
      <trkpt lat="48.64779" lon="1.86952">
        <ele>158</ele>
        <time>2018-11-11T10:06:12Z</time>
      </trkpt>
      <trkpt lat="48.64774" lon="1.8696">
        <ele>159</ele>
        <time>2018-11-11T10:06:18Z</time>
      </trkpt>
      <trkpt lat="48.64769" lon="1.86977">
        <ele>160</ele>
        <time>2018-11-11T10:06:29Z</time>
      </trkpt>
      <trkpt lat="48.64767" lon="1.86984">
        <ele>161</ele>
        <time>2018-11-11T10:06:33Z</time>
      </trkpt>
      <trkpt lat="48.64761" lon="1.86999">
        <ele>160</ele>
        <time>2018-11-11T10:06:43Z</time>
      </trkpt>
      <trkpt lat="48.6476" lon="1.87005">
        <ele>161</ele>
        <time>2018-11-11T10:06:47Z</time>
      </trkpt>
      <trkpt lat="48.64757" lon="1.87011">
        <ele>161</ele>
        <time>2018-11-11T10:06:52Z</time>
      </trkpt>
      <trkpt lat="48.64746" lon="1.87038">
        <ele>161</ele>
        <time>2018-11-11T10:07:12Z</time>
      </trkpt>
      <trkpt lat="48.64741" lon="1.87047">
        <ele>161</ele>
        <time>2018-11-11T10:07:19Z</time>
      </trkpt>
      <trkpt lat="48.6474" lon="1.87054">
        <ele>161</ele>
        <time>2018-11-11T10:07:24Z</time>
      </trkpt>
      <trkpt lat="48.64736" lon="1.87066">
        <ele>161</ele>
        <time>2018-11-11T10:07:31Z</time>
      </trkpt>
      <trkpt lat="48.64732" lon="1.87082">
        <ele>161</ele>
        <time>2018-11-11T10:07:39Z</time>
      </trkpt>
      <trkpt lat="48.64725" lon="1.87094">
        <ele>161</ele>
        <time>2018-11-11T10:07:48Z</time>
      </trkpt>
      <trkpt lat="48.64722" lon="1.87102">
        <ele>161</ele>
        <time>2018-11-11T10:07:55Z</time>
      </trkpt>
      <trkpt lat="48.64717" lon="1.87116">
        <ele>161</ele>
        <time>2018-11-11T10:08:03Z</time>
      </trkpt>
      <trkpt lat="48.64713" lon="1.8713">
        <ele>161</ele>
        <time>2018-11-11T10:08:12Z</time>
      </trkpt>
      <trkpt lat="48.64685" lon="1.87188">
        <ele>162</ele>
        <time>2018-11-11T10:08:46Z</time>
      </trkpt>
      <trkpt lat="48.64678" lon="1.87201">
        <ele>162</ele>
        <time>2018-11-11T10:08:54Z</time>
      </trkpt>
      <trkpt lat="48.64676" lon="1.87207">
        <ele>162</ele>
        <time>2018-11-11T10:08:58Z</time>
      </trkpt>
      <trkpt lat="48.64665" lon="1.87241">
        <ele>162</ele>
        <time>2018-11-11T10:09:18Z</time>
      </trkpt>
      <trkpt lat="48.64666" lon="1.87248">
        <ele>162</ele>
        <time>2018-11-11T10:09:22Z</time>
      </trkpt>
      <trkpt lat="48.6467" lon="1.87254">
        <ele>162</ele>
        <time>2018-11-11T10:09:26Z</time>
      </trkpt>
      <trkpt lat="48.647" lon="1.87295">
        <ele>162</ele>
        <time>2018-11-11T10:09:59Z</time>
      </trkpt>
      <trkpt lat="48.64709" lon="1.87306">
        <ele>162</ele>
        <time>2018-11-11T10:10:07Z</time>
      </trkpt>
      <trkpt lat="48.6473" lon="1.87327">
        <ele>161</ele>
        <time>2018-11-11T10:10:27Z</time>
      </trkpt>
      <trkpt lat="48.64759" lon="1.87366">
        <ele>162</ele>
        <time>2018-11-11T10:10:58Z</time>
      </trkpt>
      <trkpt lat="48.64763" lon="1.8737">
        <ele>162</ele>
        <time>2018-11-11T10:11:01Z</time>
      </trkpt>
      <trkpt lat="48.64773" lon="1.87377">
        <ele>162</ele>
        <time>2018-11-11T10:11:09Z</time>
      </trkpt>
      <trkpt lat="48.64795" lon="1.87402">
        <ele>162</ele>
        <time>2018-11-11T10:11:26Z</time>
      </trkpt>
      <trkpt lat="48.64798" lon="1.87408">
        <ele>162</ele>
        <time>2018-11-11T10:11:30Z</time>
      </trkpt>
      <trkpt lat="48.64804" lon="1.87414">
        <ele>162</ele>
        <time>2018-11-11T10:11:37Z</time>
      </trkpt>
      <trkpt lat="48.64815" lon="1.8743">
        <ele>162</ele>
        <time>2018-11-11T10:11:49Z</time>
      </trkpt>
      <trkpt lat="48.64846" lon="1.8746">
        <ele>161</ele>
        <time>2018-11-11T10:12:18Z</time>
      </trkpt>
      <trkpt lat="48.64861" lon="1.8748">
        <ele>161</ele>
        <time>2018-11-11T10:12:34Z</time>
      </trkpt>
      <trkpt lat="48.64896" lon="1.87515">
        <ele>161</ele>
        <time>2018-11-11T10:13:05Z</time>
      </trkpt>
      <trkpt lat="48.64929" lon="1.87557">
        <ele>159</ele>
        <time>2018-11-11T10:13:38Z</time>
      </trkpt>
      <trkpt lat="48.64953" lon="1.87582">
        <ele>159</ele>
        <time>2018-11-11T10:13:58Z</time>
      </trkpt>
      <trkpt lat="48.64956" lon="1.87589">
        <ele>159</ele>
        <time>2018-11-11T10:14:02Z</time>
      </trkpt>
      <trkpt lat="48.64957" lon="1.87598">
        <ele>159</ele>
        <time>2018-11-11T10:14:06Z</time>
      </trkpt>
      <trkpt lat="48.64956" lon="1.87606">
        <ele>160</ele>
        <time>2018-11-11T10:14:11Z</time>
      </trkpt>
      <trkpt lat="48.64952" lon="1.8762">
        <ele>159</ele>
        <time>2018-11-11T10:14:19Z</time>
      </trkpt>
      <trkpt lat="48.64944" lon="1.8765">
        <ele>160</ele>
        <time>2018-11-11T10:14:36Z</time>
      </trkpt>
      <trkpt lat="48.64943" lon="1.87659">
        <ele>160</ele>
        <time>2018-11-11T10:14:40Z</time>
      </trkpt>
      <trkpt lat="48.6494" lon="1.87666">
        <ele>159</ele>
        <time>2018-11-11T10:14:45Z</time>
      </trkpt>
      <trkpt lat="48.64939" lon="1.87696">
        <ele>160</ele>
        <time>2018-11-11T10:15:01Z</time>
      </trkpt>
      <trkpt lat="48.64928" lon="1.87723">
        <ele>159</ele>
        <time>2018-11-11T10:15:17Z</time>
      </trkpt>
      <trkpt lat="48.64928" lon="1.8773">
        <ele>159</ele>
        <time>2018-11-11T10:15:21Z</time>
      </trkpt>
      <trkpt lat="48.64936" lon="1.87761">
        <ele>159</ele>
        <time>2018-11-11T10:15:35Z</time>
      </trkpt>
      <trkpt lat="48.64946" lon="1.87779">
        <ele>159</ele>
        <time>2018-11-11T10:15:48Z</time>
      </trkpt>
      <trkpt lat="48.6499" lon="1.87817">
        <ele>157</ele>
        <time>2018-11-11T10:16:23Z</time>
      </trkpt>
      <trkpt lat="48.65006" lon="1.8783">
        <ele>156</ele>
        <time>2018-11-11T10:16:37Z</time>
      </trkpt>
      <trkpt lat="48.65043" lon="1.8785">
        <ele>155</ele>
        <time>2018-11-11T10:17:05Z</time>
      </trkpt>
      <trkpt lat="48.65058" lon="1.87865">
        <ele>155</ele>
        <time>2018-11-11T10:17:20Z</time>
      </trkpt>
      <trkpt lat="48.65067" lon="1.8787">
        <ele>155</ele>
        <time>2018-11-11T10:17:33Z</time>
      </trkpt>
      <trkpt lat="48.65085" lon="1.8788">
        <ele>155</ele>
        <time>2018-11-11T10:17:46Z</time>
      </trkpt>
      <trkpt lat="48.65103" lon="1.8788">
        <ele>154</ele>
        <time>2018-11-11T10:18:01Z</time>
      </trkpt>
      <trkpt lat="48.65123" lon="1.87888">
        <ele>154</ele>
        <time>2018-11-11T10:18:19Z</time>
      </trkpt>
      <trkpt lat="48.6517" lon="1.87894">
        <ele>152</ele>
        <time>2018-11-11T10:18:54Z</time>
      </trkpt>
      <trkpt lat="48.65179" lon="1.87896">
        <ele>152</ele>
        <time>2018-11-11T10:19:01Z</time>
      </trkpt>
      <trkpt lat="48.65217" lon="1.8791">
        <ele>154</ele>
        <time>2018-11-11T10:19:37Z</time>
      </trkpt>
      <trkpt lat="48.65255" lon="1.87923">
        <ele>158</ele>
        <time>2018-11-11T10:20:10Z</time>
      </trkpt>
      <trkpt lat="48.65265" lon="1.87928">
        <ele>159</ele>
        <time>2018-11-11T10:20:17Z</time>
      </trkpt>
      <trkpt lat="48.65273" lon="1.87937">
        <ele>160</ele>
        <time>2018-11-11T10:20:25Z</time>
      </trkpt>
      <trkpt lat="48.65287" lon="1.87957">
        <ele>159</ele>
        <time>2018-11-11T10:20:41Z</time>
      </trkpt>
      <trkpt lat="48.65293" lon="1.87968">
        <ele>160</ele>
        <time>2018-11-11T10:20:48Z</time>
      </trkpt>
      <trkpt lat="48.65315" lon="1.87995">
        <ele>159</ele>
        <time>2018-11-11T10:21:11Z</time>
      </trkpt>
      <trkpt lat="48.65319" lon="1.87999">
        <ele>160</ele>
        <time>2018-11-11T10:21:25Z</time>
      </trkpt>
      <trkpt lat="48.65327" lon="1.88009">
        <ele>160</ele>
        <time>2018-11-11T10:21:33Z</time>
      </trkpt>
      <trkpt lat="48.65336" lon="1.88012">
        <ele>160</ele>
        <time>2018-11-11T10:21:44Z</time>
      </trkpt>
      <trkpt lat="48.65345" lon="1.88017">
        <ele>159</ele>
        <time>2018-11-11T10:21:52Z</time>
      </trkpt>
      <trkpt lat="48.65354" lon="1.88023">
        <ele>159</ele>
        <time>2018-11-11T10:22:00Z</time>
      </trkpt>
      <trkpt lat="48.65382" lon="1.88066">
        <ele>159</ele>
        <time>2018-11-11T10:22:34Z</time>
      </trkpt>
      <trkpt lat="48.65403" lon="1.8809">
        <ele>160</ele>
        <time>2018-11-11T10:22:54Z</time>
      </trkpt>
      <trkpt lat="48.65416" lon="1.88113">
        <ele>159</ele>
        <time>2018-11-11T10:23:10Z</time>
      </trkpt>
      <trkpt lat="48.65418" lon="1.88121">
        <ele>159</ele>
        <time>2018-11-11T10:23:14Z</time>
      </trkpt>
      <trkpt lat="48.6542" lon="1.88149">
        <ele>159</ele>
        <time>2018-11-11T10:23:32Z</time>
      </trkpt>
      <trkpt lat="48.6542" lon="1.88196">
        <ele>159</ele>
        <time>2018-11-11T10:23:57Z</time>
      </trkpt>
      <trkpt lat="48.65423" lon="1.88205">
        <ele>159</ele>
        <time>2018-11-11T10:24:01Z</time>
      </trkpt>
      <trkpt lat="48.65422" lon="1.88213">
        <ele>160</ele>
        <time>2018-11-11T10:24:05Z</time>
      </trkpt>
      <trkpt lat="48.65422" lon="1.8823">
        <ele>159</ele>
        <time>2018-11-11T10:24:13Z</time>
      </trkpt>
      <trkpt lat="48.65424" lon="1.88237">
        <ele>159</ele>
        <time>2018-11-11T10:24:29Z</time>
      </trkpt>
      <trkpt lat="48.65432" lon="1.8823">
        <ele>159</ele>
        <time>2018-11-11T10:26:04Z</time>
      </trkpt>
      <trkpt lat="48.65436" lon="1.88228">
        <ele>159</ele>
        <time>2018-11-11T10:26:09Z</time>
      </trkpt>
      <trkpt lat="48.65444" lon="1.88217">
        <ele>159</ele>
        <time>2018-11-11T10:26:17Z</time>
      </trkpt>
      <trkpt lat="48.6545" lon="1.88205">
        <ele>159</ele>
        <time>2018-11-11T10:26:26Z</time>
      </trkpt>
      <trkpt lat="48.6545" lon="1.88198">
        <ele>159</ele>
        <time>2018-11-11T10:26:37Z</time>
      </trkpt>
      <trkpt lat="48.65452" lon="1.88195">
        <ele>160</ele>
        <time>2018-11-11T10:27:37Z</time>
      </trkpt>
      <trkpt lat="48.65433" lon="1.88206">
        <ele>160</ele>
        <time>2018-11-11T10:27:57Z</time>
      </trkpt>
      <trkpt lat="48.6544" lon="1.88208">
        <ele>161</ele>
        <time>2018-11-11T10:29:29Z</time>
      </trkpt>
      <trkpt lat="48.65444" lon="1.88206">
        <ele>161</ele>
        <time>2018-11-11T10:29:33Z</time>
      </trkpt>
      <trkpt lat="48.65446" lon="1.88208">
        <ele>162</ele>
        <time>2018-11-11T10:35:06Z</time>
      </trkpt>
      <trkpt lat="48.6545" lon="1.88199">
        <ele>162</ele>
        <time>2018-11-11T10:35:19Z</time>
      </trkpt>
      <trkpt lat="48.65463" lon="1.88188">
        <ele>162</ele>
        <time>2018-11-11T10:35:36Z</time>
      </trkpt>
      <trkpt lat="48.65474" lon="1.88172">
        <ele>163</ele>
        <time>2018-11-11T10:35:49Z</time>
      </trkpt>
      <trkpt lat="48.65478" lon="1.88164">
        <ele>163</ele>
        <time>2018-11-11T10:35:57Z</time>
      </trkpt>
      <trkpt lat="48.65483" lon="1.88156">
        <ele>163</ele>
        <time>2018-11-11T10:36:05Z</time>
      </trkpt>
      <trkpt lat="48.6548" lon="1.88156">
        <ele>163</ele>
        <time>2018-11-11T10:36:32Z</time>
      </trkpt>
      <trkpt lat="48.65466" lon="1.88167">
        <ele>163</ele>
        <time>2018-11-11T10:36:45Z</time>
      </trkpt>
      <trkpt lat="48.65461" lon="1.88168">
        <ele>163</ele>
        <time>2018-11-11T10:36:49Z</time>
      </trkpt>
      <trkpt lat="48.65456" lon="1.88171">
        <ele>163</ele>
        <time>2018-11-11T10:36:52Z</time>
      </trkpt>
      <trkpt lat="48.65449" lon="1.88183">
        <ele>163</ele>
        <time>2018-11-11T10:37:00Z</time>
      </trkpt>
      <trkpt lat="48.65444" lon="1.88196">
        <ele>163</ele>
        <time>2018-11-11T10:37:08Z</time>
      </trkpt>
      <trkpt lat="48.65443" lon="1.88203">
        <ele>163</ele>
        <time>2018-11-11T10:37:13Z</time>
      </trkpt>
      <trkpt lat="48.65447" lon="1.88225">
        <ele>162</ele>
        <time>2018-11-11T10:37:26Z</time>
      </trkpt>
      <trkpt lat="48.65447" lon="1.88232">
        <ele>162</ele>
        <time>2018-11-11T10:37:30Z</time>
      </trkpt>
      <trkpt lat="48.65451" lon="1.88242">
        <ele>162</ele>
        <time>2018-11-11T10:37:41Z</time>
      </trkpt>
      <trkpt lat="48.65467" lon="1.88253">
        <ele>162</ele>
        <time>2018-11-11T10:37:58Z</time>
      </trkpt>
      <trkpt lat="48.65477" lon="1.88252">
        <ele>162</ele>
        <time>2018-11-11T10:38:07Z</time>
      </trkpt>
      <trkpt lat="48.65482" lon="1.88249">
        <ele>163</ele>
        <time>2018-11-11T10:38:12Z</time>
      </trkpt>
      <trkpt lat="48.65517" lon="1.88245">
        <ele>163</ele>
        <time>2018-11-11T10:38:41Z</time>
      </trkpt>
      <trkpt lat="48.65522" lon="1.88246">
        <ele>163</ele>
        <time>2018-11-11T10:38:46Z</time>
      </trkpt>
      <trkpt lat="48.65528" lon="1.88244">
        <ele>163</ele>
        <time>2018-11-11T10:38:51Z</time>
      </trkpt>
      <trkpt lat="48.65539" lon="1.8823">
        <ele>163</ele>
        <time>2018-11-11T10:39:03Z</time>
      </trkpt>
      <trkpt lat="48.65546" lon="1.88234">
        <ele>163</ele>
        <time>2018-11-11T10:39:10Z</time>
      </trkpt>
      <trkpt lat="48.65555" lon="1.88235">
        <ele>163</ele>
        <time>2018-11-11T10:39:19Z</time>
      </trkpt>
      <trkpt lat="48.65559" lon="1.88236">
        <ele>163</ele>
        <time>2018-11-11T10:39:23Z</time>
      </trkpt>
      <trkpt lat="48.65564" lon="1.88235">
        <ele>163</ele>
        <time>2018-11-11T10:39:27Z</time>
      </trkpt>
      <trkpt lat="48.65573" lon="1.88234">
        <ele>163</ele>
        <time>2018-11-11T10:39:37Z</time>
      </trkpt>
      <trkpt lat="48.65579" lon="1.88233">
        <ele>163</ele>
        <time>2018-11-11T10:39:51Z</time>
      </trkpt>
      <trkpt lat="48.65584" lon="1.88231">
        <ele>163</ele>
        <time>2018-11-11T10:39:57Z</time>
      </trkpt>
      <trkpt lat="48.65586" lon="1.88218">
        <ele>163</ele>
        <time>2018-11-11T10:40:09Z</time>
      </trkpt>
      <trkpt lat="48.65591" lon="1.88216">
        <ele>163</ele>
        <time>2018-11-11T10:40:15Z</time>
      </trkpt>
      <trkpt lat="48.65597" lon="1.88214">
        <ele>163</ele>
        <time>2018-11-11T10:40:19Z</time>
      </trkpt>
      <trkpt lat="48.65601" lon="1.88205">
        <ele>163</ele>
        <time>2018-11-11T10:40:29Z</time>
      </trkpt>
      <trkpt lat="48.65612" lon="1.88199">
        <ele>163</ele>
        <time>2018-11-11T10:40:47Z</time>
      </trkpt>
      <trkpt lat="48.65616" lon="1.88195">
        <ele>163</ele>
        <time>2018-11-11T10:40:52Z</time>
      </trkpt>
      <trkpt lat="48.65621" lon="1.88195">
        <ele>163</ele>
        <time>2018-11-11T10:40:57Z</time>
      </trkpt>
      <trkpt lat="48.65627" lon="1.88195">
        <ele>163</ele>
        <time>2018-11-11T10:41:04Z</time>
      </trkpt>
      <trkpt lat="48.65632" lon="1.88194">
        <ele>163</ele>
        <time>2018-11-11T10:41:09Z</time>
      </trkpt>
      <trkpt lat="48.65635" lon="1.88188">
        <ele>163</ele>
        <time>2018-11-11T10:41:13Z</time>
      </trkpt>
      <trkpt lat="48.65635" lon="1.88181">
        <ele>163</ele>
        <time>2018-11-11T10:41:18Z</time>
      </trkpt>
      <trkpt lat="48.65646" lon="1.88173">
        <ele>164</ele>
        <time>2018-11-11T10:41:31Z</time>
      </trkpt>
      <trkpt lat="48.65652" lon="1.88171">
        <ele>164</ele>
        <time>2018-11-11T10:41:44Z</time>
      </trkpt>
      <trkpt lat="48.65661" lon="1.88179">
        <ele>164</ele>
        <time>2018-11-11T10:41:53Z</time>
      </trkpt>
      <trkpt lat="48.65664" lon="1.88186">
        <ele>164</ele>
        <time>2018-11-11T10:41:57Z</time>
      </trkpt>
      <trkpt lat="48.65679" lon="1.88199">
        <ele>164</ele>
        <time>2018-11-11T10:42:11Z</time>
      </trkpt>
      <trkpt lat="48.65684" lon="1.88202">
        <ele>165</ele>
        <time>2018-11-11T10:42:15Z</time>
      </trkpt>
      <trkpt lat="48.65687" lon="1.88206">
        <ele>165</ele>
        <time>2018-11-11T10:42:18Z</time>
      </trkpt>
      <trkpt lat="48.65704" lon="1.88219">
        <ele>165</ele>
        <time>2018-11-11T10:42:34Z</time>
      </trkpt>
      <trkpt lat="48.6572" lon="1.88221">
        <ele>164</ele>
        <time>2018-11-11T10:42:46Z</time>
      </trkpt>
      <trkpt lat="48.65724" lon="1.88218">
        <ele>164</ele>
        <time>2018-11-11T10:42:50Z</time>
      </trkpt>
      <trkpt lat="48.65738" lon="1.88203">
        <ele>164</ele>
        <time>2018-11-11T10:43:03Z</time>
      </trkpt>
      <trkpt lat="48.65748" lon="1.88197">
        <ele>164</ele>
        <time>2018-11-11T10:43:09Z</time>
      </trkpt>
      <trkpt lat="48.65751" lon="1.88191">
        <ele>164</ele>
        <time>2018-11-11T10:43:13Z</time>
      </trkpt>
      <trkpt lat="48.65761" lon="1.88186">
        <ele>164</ele>
        <time>2018-11-11T10:43:22Z</time>
      </trkpt>
      <trkpt lat="48.65765" lon="1.8818">
        <ele>164</ele>
        <time>2018-11-11T10:43:27Z</time>
      </trkpt>
      <trkpt lat="48.65788" lon="1.88159">
        <ele>164</ele>
        <time>2018-11-11T10:43:50Z</time>
      </trkpt>
      <trkpt lat="48.65789" lon="1.88151">
        <ele>164</ele>
        <time>2018-11-11T10:43:55Z</time>
      </trkpt>
      <trkpt lat="48.65793" lon="1.88146">
        <ele>164</ele>
        <time>2018-11-11T10:44:00Z</time>
      </trkpt>
      <trkpt lat="48.65798" lon="1.8813">
        <ele>165</ele>
        <time>2018-11-11T10:44:09Z</time>
      </trkpt>
      <trkpt lat="48.65802" lon="1.88109">
        <ele>165</ele>
        <time>2018-11-11T10:44:22Z</time>
      </trkpt>
      <trkpt lat="48.65808" lon="1.88091">
        <ele>165</ele>
        <time>2018-11-11T10:44:33Z</time>
      </trkpt>
      <trkpt lat="48.65814" lon="1.8809">
        <ele>165</ele>
        <time>2018-11-11T10:44:41Z</time>
      </trkpt>
      <trkpt lat="48.65815" lon="1.88082">
        <ele>165</ele>
        <time>2018-11-11T10:44:45Z</time>
      </trkpt>
      <trkpt lat="48.65815" lon="1.88075">
        <ele>164</ele>
        <time>2018-11-11T10:44:49Z</time>
      </trkpt>
      <trkpt lat="48.65818" lon="1.8807">
        <ele>164</ele>
        <time>2018-11-11T10:44:54Z</time>
      </trkpt>
      <trkpt lat="48.65823" lon="1.88068">
        <ele>165</ele>
        <time>2018-11-11T10:44:59Z</time>
      </trkpt>
      <trkpt lat="48.65824" lon="1.8806">
        <ele>164</ele>
        <time>2018-11-11T10:45:03Z</time>
      </trkpt>
      <trkpt lat="48.65825" lon="1.88053">
        <ele>164</ele>
        <time>2018-11-11T10:45:07Z</time>
      </trkpt>
      <trkpt lat="48.65827" lon="1.88044">
        <ele>165</ele>
        <time>2018-11-11T10:45:11Z</time>
      </trkpt>
      <trkpt lat="48.6583" lon="1.88038">
        <ele>165</ele>
        <time>2018-11-11T10:45:16Z</time>
      </trkpt>
      <trkpt lat="48.65832" lon="1.88028">
        <ele>164</ele>
        <time>2018-11-11T10:45:22Z</time>
      </trkpt>
      <trkpt lat="48.65832" lon="1.8802">
        <ele>164</ele>
        <time>2018-11-11T10:45:27Z</time>
      </trkpt>
      <trkpt lat="48.65836" lon="1.88005">
        <ele>164</ele>
        <time>2018-11-11T10:45:36Z</time>
      </trkpt>
      <trkpt lat="48.65836" lon="1.87997">
        <ele>164</ele>
        <time>2018-11-11T10:45:40Z</time>
      </trkpt>
      <trkpt lat="48.65838" lon="1.8799">
        <ele>165</ele>
        <time>2018-11-11T10:45:43Z</time>
      </trkpt>
      <trkpt lat="48.65842" lon="1.87977">
        <ele>165</ele>
        <time>2018-11-11T10:45:50Z</time>
      </trkpt>
      <trkpt lat="48.65844" lon="1.8797">
        <ele>164</ele>
        <time>2018-11-11T10:45:55Z</time>
      </trkpt>
      <trkpt lat="48.65854" lon="1.87944">
        <ele>164</ele>
        <time>2018-11-11T10:46:09Z</time>
      </trkpt>
      <trkpt lat="48.65857" lon="1.87938">
        <ele>164</ele>
        <time>2018-11-11T10:46:14Z</time>
      </trkpt>
      <trkpt lat="48.65859" lon="1.87931">
        <ele>164</ele>
        <time>2018-11-11T10:46:18Z</time>
      </trkpt>
      <trkpt lat="48.65873" lon="1.87897">
        <ele>165</ele>
        <time>2018-11-11T10:46:40Z</time>
      </trkpt>
      <trkpt lat="48.65874" lon="1.87888">
        <ele>165</ele>
        <time>2018-11-11T10:46:44Z</time>
      </trkpt>
      <trkpt lat="48.65876" lon="1.87881">
        <ele>165</ele>
        <time>2018-11-11T10:46:48Z</time>
      </trkpt>
      <trkpt lat="48.65881" lon="1.8788">
        <ele>165</ele>
        <time>2018-11-11T10:46:52Z</time>
      </trkpt>
      <trkpt lat="48.65891" lon="1.87886">
        <ele>164</ele>
        <time>2018-11-11T10:47:01Z</time>
      </trkpt>
      <trkpt lat="48.65895" lon="1.8788">
        <ele>164</ele>
        <time>2018-11-11T10:47:05Z</time>
      </trkpt>
      <trkpt lat="48.65899" lon="1.87868">
        <ele>164</ele>
        <time>2018-11-11T10:47:13Z</time>
      </trkpt>
      <trkpt lat="48.65901" lon="1.87862">
        <ele>164</ele>
        <time>2018-11-11T10:47:18Z</time>
      </trkpt>
      <trkpt lat="48.65906" lon="1.87856">
        <ele>164</ele>
        <time>2018-11-11T10:47:23Z</time>
      </trkpt>
      <trkpt lat="48.65907" lon="1.87848">
        <ele>164</ele>
        <time>2018-11-11T10:47:27Z</time>
      </trkpt>
      <trkpt lat="48.65909" lon="1.8784">
        <ele>164</ele>
        <time>2018-11-11T10:47:31Z</time>
      </trkpt>
      <trkpt lat="48.65913" lon="1.87827">
        <ele>165</ele>
        <time>2018-11-11T10:47:39Z</time>
      </trkpt>
      <trkpt lat="48.65918" lon="1.87823">
        <ele>165</ele>
        <time>2018-11-11T10:47:44Z</time>
      </trkpt>
      <trkpt lat="48.65923" lon="1.8782">
        <ele>165</ele>
        <time>2018-11-11T10:47:49Z</time>
      </trkpt>
      <trkpt lat="48.65926" lon="1.87815">
        <ele>164</ele>
        <time>2018-11-11T10:47:54Z</time>
      </trkpt>
      <trkpt lat="48.65927" lon="1.87807">
        <ele>165</ele>
        <time>2018-11-11T10:47:58Z</time>
      </trkpt>
      <trkpt lat="48.65929" lon="1.878">
        <ele>165</ele>
        <time>2018-11-11T10:48:02Z</time>
      </trkpt>
      <trkpt lat="48.65932" lon="1.87795">
        <ele>165</ele>
        <time>2018-11-11T10:48:07Z</time>
      </trkpt>
      <trkpt lat="48.65949" lon="1.87774">
        <ele>165</ele>
        <time>2018-11-11T10:48:21Z</time>
      </trkpt>
      <trkpt lat="48.65952" lon="1.87767">
        <ele>165</ele>
        <time>2018-11-11T10:48:25Z</time>
      </trkpt>
      <trkpt lat="48.65953" lon="1.87759">
        <ele>165</ele>
        <time>2018-11-11T10:48:29Z</time>
      </trkpt>
      <trkpt lat="48.65958" lon="1.87745">
        <ele>164</ele>
        <time>2018-11-11T10:48:38Z</time>
      </trkpt>
      <trkpt lat="48.65956" lon="1.87737">
        <ele>164</ele>
        <time>2018-11-11T10:48:43Z</time>
      </trkpt>
      <trkpt lat="48.65957" lon="1.87721">
        <ele>164</ele>
        <time>2018-11-11T10:48:50Z</time>
      </trkpt>
      <trkpt lat="48.65953" lon="1.8769">
        <ele>164</ele>
        <time>2018-11-11T10:49:09Z</time>
      </trkpt>
      <trkpt lat="48.65954" lon="1.87682">
        <ele>163</ele>
        <time>2018-11-11T10:49:13Z</time>
      </trkpt>
      <trkpt lat="48.65957" lon="1.87676">
        <ele>163</ele>
        <time>2018-11-11T10:49:17Z</time>
      </trkpt>
      <trkpt lat="48.65974" lon="1.87677">
        <ele>165</ele>
        <time>2018-11-11T10:49:36Z</time>
      </trkpt>
      <trkpt lat="48.65983" lon="1.87677">
        <ele>165</ele>
        <time>2018-11-11T10:49:43Z</time>
      </trkpt>
      <trkpt lat="48.65989" lon="1.87673">
        <ele>165</ele>
        <time>2018-11-11T10:49:47Z</time>
      </trkpt>
      <trkpt lat="48.65993" lon="1.87667">
        <ele>165</ele>
        <time>2018-11-11T10:49:51Z</time>
      </trkpt>
      <trkpt lat="48.66008" lon="1.87618">
        <ele>164</ele>
        <time>2018-11-11T10:50:17Z</time>
      </trkpt>
      <trkpt lat="48.66012" lon="1.87614">
        <ele>164</ele>
        <time>2018-11-11T10:50:21Z</time>
      </trkpt>
      <trkpt lat="48.66031" lon="1.87606">
        <ele>164</ele>
        <time>2018-11-11T10:50:37Z</time>
      </trkpt>
      <trkpt lat="48.66067" lon="1.87583">
        <ele>165</ele>
        <time>2018-11-11T10:51:07Z</time>
      </trkpt>
      <trkpt lat="48.66076" lon="1.87581">
        <ele>165</ele>
        <time>2018-11-11T10:51:15Z</time>
      </trkpt>
      <trkpt lat="48.6612" lon="1.87553">
        <ele>165</ele>
        <time>2018-11-11T10:51:49Z</time>
      </trkpt>
      <trkpt lat="48.66155" lon="1.87535">
        <ele>166</ele>
        <time>2018-11-11T10:52:15Z</time>
      </trkpt>
      <trkpt lat="48.66159" lon="1.87531">
        <ele>166</ele>
        <time>2018-11-11T10:52:19Z</time>
      </trkpt>
      <trkpt lat="48.66167" lon="1.87523">
        <ele>166</ele>
        <time>2018-11-11T10:52:27Z</time>
      </trkpt>
      <trkpt lat="48.66207" lon="1.87506">
        <ele>166</ele>
        <time>2018-11-11T10:53:00Z</time>
      </trkpt>
      <trkpt lat="48.66216" lon="1.87498">
        <ele>165</ele>
        <time>2018-11-11T10:53:08Z</time>
      </trkpt>
      <trkpt lat="48.66222" lon="1.87498">
        <ele>165</ele>
        <time>2018-11-11T10:53:12Z</time>
      </trkpt>
      <trkpt lat="48.6626" lon="1.8748">
        <ele>165</ele>
        <time>2018-11-11T10:53:39Z</time>
      </trkpt>
      <trkpt lat="48.66266" lon="1.87479">
        <ele>165</ele>
        <time>2018-11-11T10:53:43Z</time>
      </trkpt>
      <trkpt lat="48.66275" lon="1.87474">
        <ele>165</ele>
        <time>2018-11-11T10:53:50Z</time>
      </trkpt>
      <trkpt lat="48.66295" lon="1.87466">
        <ele>165</ele>
        <time>2018-11-11T10:54:06Z</time>
      </trkpt>
      <trkpt lat="48.66313" lon="1.87455">
        <ele>165</ele>
        <time>2018-11-11T10:54:19Z</time>
      </trkpt>
      <trkpt lat="48.66323" lon="1.87451">
        <ele>166</ele>
        <time>2018-11-11T10:54:27Z</time>
      </trkpt>
      <trkpt lat="48.66368" lon="1.8743">
        <ele>167</ele>
        <time>2018-11-11T10:55:01Z</time>
      </trkpt>
      <trkpt lat="48.66389" lon="1.87421">
        <ele>167</ele>
        <time>2018-11-11T10:55:16Z</time>
      </trkpt>
      <trkpt lat="48.66413" lon="1.87409">
        <ele>167</ele>
        <time>2018-11-11T10:55:36Z</time>
      </trkpt>
      <trkpt lat="48.66417" lon="1.87403">
        <ele>167</ele>
        <time>2018-11-11T10:55:47Z</time>
      </trkpt>
      <trkpt lat="48.66422" lon="1.87401">
        <ele>167</ele>
        <time>2018-11-11T10:55:51Z</time>
      </trkpt>
      <trkpt lat="48.66425" lon="1.87398">
        <ele>167</ele>
        <time>2018-11-11T10:56:24Z</time>
      </trkpt>
      <trkpt lat="48.66429" lon="1.87392">
        <ele>168</ele>
        <time>2018-11-11T10:56:58Z</time>
      </trkpt>
      <trkpt lat="48.66418" lon="1.87362">
        <ele>168</ele>
        <time>2018-11-11T10:57:30Z</time>
      </trkpt>
      <trkpt lat="48.66416" lon="1.87354">
        <ele>168</ele>
        <time>2018-11-11T10:57:35Z</time>
      </trkpt>
      <trkpt lat="48.66394" lon="1.87294">
        <ele>168</ele>
        <time>2018-11-11T10:58:09Z</time>
      </trkpt>
      <trkpt lat="48.66372" lon="1.87235">
        <ele>169</ele>
        <time>2018-11-11T10:58:43Z</time>
      </trkpt>
      <trkpt lat="48.66353" lon="1.87181">
        <ele>169</ele>
        <time>2018-11-11T10:59:15Z</time>
      </trkpt>
      <trkpt lat="48.66333" lon="1.87125">
        <ele>170</ele>
        <time>2018-11-11T10:59:48Z</time>
      </trkpt>
      <trkpt lat="48.66332" lon="1.87117">
        <ele>170</ele>
        <time>2018-11-11T10:59:52Z</time>
      </trkpt>
      <trkpt lat="48.66321" lon="1.87084">
        <ele>170</ele>
        <time>2018-11-11T11:00:12Z</time>
      </trkpt>
      <trkpt lat="48.66312" lon="1.87046">
        <ele>171</ele>
        <time>2018-11-11T11:00:33Z</time>
      </trkpt>
      <trkpt lat="48.66308" lon="1.87041">
        <ele>171</ele>
        <time>2018-11-11T11:00:37Z</time>
      </trkpt>
      <trkpt lat="48.66305" lon="1.87032">
        <ele>171</ele>
        <time>2018-11-11T11:00:43Z</time>
      </trkpt>
      <trkpt lat="48.66305" lon="1.87025">
        <ele>171</ele>
        <time>2018-11-11T11:00:46Z</time>
      </trkpt>
      <trkpt lat="48.66299" lon="1.86994">
        <ele>172</ele>
        <time>2018-11-11T11:01:02Z</time>
      </trkpt>
      <trkpt lat="48.66298" lon="1.86986">
        <ele>172</ele>
        <time>2018-11-11T11:01:06Z</time>
      </trkpt>
      <trkpt lat="48.66297" lon="1.86978">
        <ele>172</ele>
        <time>2018-11-11T11:01:11Z</time>
      </trkpt>
      <trkpt lat="48.66296" lon="1.86971">
        <ele>172</ele>
        <time>2018-11-11T11:01:15Z</time>
      </trkpt>
      <trkpt lat="48.66292" lon="1.86957">
        <ele>172</ele>
        <time>2018-11-11T11:01:23Z</time>
      </trkpt>
      <trkpt lat="48.6629" lon="1.86948">
        <ele>172</ele>
        <time>2018-11-11T11:01:27Z</time>
      </trkpt>
      <trkpt lat="48.66283" lon="1.86919">
        <ele>173</ele>
        <time>2018-11-11T11:01:43Z</time>
      </trkpt>
      <trkpt lat="48.66279" lon="1.86898">
        <ele>173</ele>
        <time>2018-11-11T11:01:54Z</time>
      </trkpt>
      <trkpt lat="48.66277" lon="1.86891">
        <ele>173</ele>
        <time>2018-11-11T11:01:59Z</time>
      </trkpt>
      <trkpt lat="48.6627" lon="1.86862">
        <ele>174</ele>
        <time>2018-11-11T11:02:16Z</time>
      </trkpt>
      <trkpt lat="48.66271" lon="1.86846">
        <ele>174</ele>
        <time>2018-11-11T11:02:24Z</time>
      </trkpt>
      <trkpt lat="48.66267" lon="1.86832">
        <ele>174</ele>
        <time>2018-11-11T11:02:33Z</time>
      </trkpt>
      <trkpt lat="48.66265" lon="1.86822">
        <ele>174</ele>
        <time>2018-11-11T11:02:39Z</time>
      </trkpt>
      <trkpt lat="48.66253" lon="1.86759">
        <ele>175</ele>
        <time>2018-11-11T11:03:11Z</time>
      </trkpt>
      <trkpt lat="48.66249" lon="1.86737">
        <ele>176</ele>
        <time>2018-11-11T11:03:23Z</time>
      </trkpt>
      <trkpt lat="48.66247" lon="1.8673">
        <ele>175</ele>
        <time>2018-11-11T11:03:27Z</time>
      </trkpt>
      <trkpt lat="48.66246" lon="1.86723">
        <ele>175</ele>
        <time>2018-11-11T11:03:38Z</time>
      </trkpt>
      <trkpt lat="48.66248" lon="1.86717">
        <ele>175</ele>
        <time>2018-11-11T11:03:43Z</time>
      </trkpt>
      <trkpt lat="48.66259" lon="1.86703">
        <ele>176</ele>
        <time>2018-11-11T11:04:01Z</time>
      </trkpt>
      <trkpt lat="48.66252" lon="1.86707">
        <ele>176</ele>
        <time>2018-11-11T11:06:13Z</time>
      </trkpt>
      <trkpt lat="48.66246" lon="1.86713">
        <ele>176</ele>
        <time>2018-11-11T11:06:25Z</time>
      </trkpt>
      <trkpt lat="48.66243" lon="1.86708">
        <ele>176</ele>
        <time>2018-11-11T11:06:30Z</time>
      </trkpt>
      <trkpt lat="48.66241" lon="1.86712">
        <ele>175</ele>
        <time>2018-11-11T11:07:00Z</time>
      </trkpt>
      <trkpt lat="48.66238" lon="1.86718">
        <ele>175</ele>
        <time>2018-11-11T11:07:04Z</time>
      </trkpt>
      <trkpt lat="48.66237" lon="1.86725">
        <ele>175</ele>
        <time>2018-11-11T11:07:08Z</time>
      </trkpt>
      <trkpt lat="48.66234" lon="1.86731">
        <ele>175</ele>
        <time>2018-11-11T11:07:13Z</time>
      </trkpt>
      <trkpt lat="48.66229" lon="1.86734">
        <ele>175</ele>
        <time>2018-11-11T11:07:17Z</time>
      </trkpt>
      <trkpt lat="48.66233" lon="1.86732">
        <ele>175</ele>
        <time>2018-11-11T11:07:40Z</time>
      </trkpt>
      <trkpt lat="48.66242" lon="1.86726">
        <ele>175</ele>
        <time>2018-11-11T11:08:07Z</time>
      </trkpt>
      <trkpt lat="48.66248" lon="1.86719">
        <ele>174</ele>
        <time>2018-11-11T11:08:36Z</time>
      </trkpt>
      <trkpt lat="48.66255" lon="1.86708">
        <ele>175</ele>
        <time>2018-11-11T11:08:45Z</time>
      </trkpt>
      <trkpt lat="48.66266" lon="1.86694">
        <ele>175</ele>
        <time>2018-11-11T11:08:56Z</time>
      </trkpt>
      <trkpt lat="48.66269" lon="1.86686">
        <ele>175</ele>
        <time>2018-11-11T11:09:03Z</time>
      </trkpt>
      <trkpt lat="48.66279" lon="1.86676">
        <ele>175</ele>
        <time>2018-11-11T11:09:15Z</time>
      </trkpt>
      <trkpt lat="48.66284" lon="1.86673">
        <ele>175</ele>
        <time>2018-11-11T11:09:26Z</time>
      </trkpt>
      <trkpt lat="48.66289" lon="1.86669">
        <ele>175</ele>
        <time>2018-11-11T11:09:32Z</time>
      </trkpt>
      <trkpt lat="48.66293" lon="1.86664">
        <ele>175</ele>
        <time>2018-11-11T11:09:37Z</time>
      </trkpt>
      <trkpt lat="48.66302" lon="1.86656">
        <ele>175</ele>
        <time>2018-11-11T11:09:45Z</time>
      </trkpt>
      <trkpt lat="48.66306" lon="1.86651">
        <ele>175</ele>
        <time>2018-11-11T11:09:49Z</time>
      </trkpt>
      <trkpt lat="48.66315" lon="1.86643">
        <ele>175</ele>
        <time>2018-11-11T11:09:57Z</time>
      </trkpt>
      <trkpt lat="48.66328" lon="1.86622">
        <ele>175</ele>
        <time>2018-11-11T11:10:13Z</time>
      </trkpt>
      <trkpt lat="48.6634" lon="1.86611">
        <ele>175</ele>
        <time>2018-11-11T11:10:25Z</time>
      </trkpt>
      <trkpt lat="48.66372" lon="1.86575">
        <ele>175</ele>
        <time>2018-11-11T11:10:57Z</time>
      </trkpt>
      <trkpt lat="48.66396" lon="1.86553">
        <ele>175</ele>
        <time>2018-11-11T11:11:22Z</time>
      </trkpt>
      <trkpt lat="48.66419" lon="1.86526">
        <ele>176</ele>
        <time>2018-11-11T11:11:46Z</time>
      </trkpt>
      <trkpt lat="48.66425" lon="1.86516">
        <ele>176</ele>
        <time>2018-11-11T11:11:54Z</time>
      </trkpt>
      <trkpt lat="48.66455" lon="1.86476">
        <ele>177</ele>
        <time>2018-11-11T11:12:27Z</time>
      </trkpt>
      <trkpt lat="48.66493" lon="1.86434">
        <ele>177</ele>
        <time>2018-11-11T11:13:04Z</time>
      </trkpt>
      <trkpt lat="48.66499" lon="1.86424">
        <ele>177</ele>
        <time>2018-11-11T11:13:12Z</time>
      </trkpt>
      <trkpt lat="48.66505" lon="1.86413">
        <ele>176</ele>
        <time>2018-11-11T11:13:20Z</time>
      </trkpt>
      <trkpt lat="48.66511" lon="1.86404">
        <ele>176</ele>
        <time>2018-11-11T11:13:28Z</time>
      </trkpt>
      <trkpt lat="48.66522" lon="1.86401">
        <ele>176</ele>
        <time>2018-11-11T11:13:36Z</time>
      </trkpt>
      <trkpt lat="48.66528" lon="1.86405">
        <ele>176</ele>
        <time>2018-11-11T11:13:42Z</time>
      </trkpt>
      <trkpt lat="48.66533" lon="1.86405">
        <ele>176</ele>
        <time>2018-11-11T11:13:46Z</time>
      </trkpt>
      <trkpt lat="48.66539" lon="1.86411">
        <ele>176</ele>
        <time>2018-11-11T11:13:53Z</time>
      </trkpt>
      <trkpt lat="48.66544" lon="1.86408">
        <ele>176</ele>
        <time>2018-11-11T11:13:58Z</time>
      </trkpt>
      <trkpt lat="48.66548" lon="1.86404">
        <ele>176</ele>
        <time>2018-11-11T11:14:02Z</time>
      </trkpt>
      <trkpt lat="48.66553" lon="1.86402">
        <ele>176</ele>
        <time>2018-11-11T11:14:06Z</time>
      </trkpt>
      <trkpt lat="48.66557" lon="1.86398">
        <ele>176</ele>
        <time>2018-11-11T11:14:11Z</time>
      </trkpt>
      <trkpt lat="48.66568" lon="1.8638">
        <ele>176</ele>
        <time>2018-11-11T11:14:23Z</time>
      </trkpt>
      <trkpt lat="48.66573" lon="1.86368">
        <ele>176</ele>
        <time>2018-11-11T11:14:32Z</time>
      </trkpt>
      <trkpt lat="48.6658" lon="1.86359">
        <ele>177</ele>
        <time>2018-11-11T11:14:37Z</time>
      </trkpt>
      <trkpt lat="48.66584" lon="1.86353">
        <ele>177</ele>
        <time>2018-11-11T11:14:42Z</time>
      </trkpt>
      <trkpt lat="48.66589" lon="1.86348">
        <ele>177</ele>
        <time>2018-11-11T11:14:47Z</time>
      </trkpt>
      <trkpt lat="48.66593" lon="1.86344">
        <ele>177</ele>
        <time>2018-11-11T11:14:51Z</time>
      </trkpt>
      <trkpt lat="48.66611" lon="1.86317">
        <ele>177</ele>
        <time>2018-11-11T11:15:11Z</time>
      </trkpt>
      <trkpt lat="48.6662" lon="1.86294">
        <ele>177</ele>
        <time>2018-11-11T11:15:27Z</time>
      </trkpt>
      <trkpt lat="48.6663" lon="1.8627">
        <ele>177</ele>
        <time>2018-11-11T11:15:43Z</time>
      </trkpt>
      <trkpt lat="48.66661" lon="1.86236">
        <ele>177</ele>
        <time>2018-11-11T11:16:10Z</time>
      </trkpt>
      <trkpt lat="48.66666" lon="1.86222">
        <ele>177</ele>
        <time>2018-11-11T11:16:19Z</time>
      </trkpt>
      <trkpt lat="48.6668" lon="1.86201">
        <ele>177</ele>
        <time>2018-11-11T11:16:33Z</time>
      </trkpt>
      <trkpt lat="48.66683" lon="1.86196">
        <ele>177</ele>
        <time>2018-11-11T11:16:37Z</time>
      </trkpt>
      <trkpt lat="48.66686" lon="1.86189">
        <ele>177</ele>
        <time>2018-11-11T11:16:42Z</time>
      </trkpt>
      <trkpt lat="48.66689" lon="1.86166">
        <ele>178</ele>
        <time>2018-11-11T11:16:55Z</time>
      </trkpt>
      <trkpt lat="48.66693" lon="1.86161">
        <ele>177</ele>
        <time>2018-11-11T11:16:59Z</time>
      </trkpt>
      <trkpt lat="48.66696" lon="1.86154">
        <ele>177</ele>
        <time>2018-11-11T11:17:03Z</time>
      </trkpt>
      <trkpt lat="48.66698" lon="1.86147">
        <ele>178</ele>
        <time>2018-11-11T11:17:07Z</time>
      </trkpt>
      <trkpt lat="48.66699" lon="1.86123">
        <ele>177</ele>
        <time>2018-11-11T11:17:20Z</time>
      </trkpt>
      <trkpt lat="48.66699" lon="1.86107">
        <ele>177</ele>
        <time>2018-11-11T11:17:28Z</time>
      </trkpt>
      <trkpt lat="48.66703" lon="1.86077">
        <ele>177</ele>
        <time>2018-11-11T11:17:45Z</time>
      </trkpt>
      <trkpt lat="48.66702" lon="1.86044">
        <ele>177</ele>
        <time>2018-11-11T11:18:02Z</time>
      </trkpt>
      <trkpt lat="48.66701" lon="1.86037">
        <ele>177</ele>
        <time>2018-11-11T11:18:06Z</time>
      </trkpt>
      <trkpt lat="48.66702" lon="1.8603">
        <ele>177</ele>
        <time>2018-11-11T11:18:10Z</time>
      </trkpt>
      <trkpt lat="48.66702" lon="1.85998">
        <ele>178</ele>
        <time>2018-11-11T11:18:28Z</time>
      </trkpt>
      <trkpt lat="48.66705" lon="1.85981">
        <ele>178</ele>
        <time>2018-11-11T11:18:36Z</time>
      </trkpt>
      <trkpt lat="48.66704" lon="1.85958">
        <ele>178</ele>
        <time>2018-11-11T11:18:48Z</time>
      </trkpt>
      <trkpt lat="48.66706" lon="1.85951">
        <ele>178</ele>
        <time>2018-11-11T11:18:52Z</time>
      </trkpt>
      <trkpt lat="48.66707" lon="1.85944">
        <ele>178</ele>
        <time>2018-11-11T11:18:56Z</time>
      </trkpt>
      <trkpt lat="48.66709" lon="1.85928">
        <ele>178</ele>
        <time>2018-11-11T11:19:04Z</time>
      </trkpt>
      <trkpt lat="48.66709" lon="1.85921">
        <ele>178</ele>
        <time>2018-11-11T11:19:07Z</time>
      </trkpt>
      <trkpt lat="48.66711" lon="1.85913">
        <ele>178</ele>
        <time>2018-11-11T11:19:11Z</time>
      </trkpt>
      <trkpt lat="48.6671" lon="1.85906">
        <ele>178</ele>
        <time>2018-11-11T11:19:15Z</time>
      </trkpt>
      <trkpt lat="48.66709" lon="1.85898">
        <ele>178</ele>
        <time>2018-11-11T11:19:20Z</time>
      </trkpt>
      <trkpt lat="48.66709" lon="1.85889">
        <ele>178</ele>
        <time>2018-11-11T11:19:24Z</time>
      </trkpt>
      <trkpt lat="48.66714" lon="1.8583">
        <ele>178</ele>
        <time>2018-11-11T11:19:55Z</time>
      </trkpt>
      <trkpt lat="48.66717" lon="1.85798">
        <ele>178</ele>
        <time>2018-11-11T11:20:11Z</time>
      </trkpt>
      <trkpt lat="48.66718" lon="1.85791">
        <ele>178</ele>
        <time>2018-11-11T11:20:15Z</time>
      </trkpt>
      <trkpt lat="48.6672" lon="1.85754">
        <ele>178</ele>
        <time>2018-11-11T11:20:35Z</time>
      </trkpt>
      <trkpt lat="48.66719" lon="1.85746">
        <ele>178</ele>
        <time>2018-11-11T11:20:39Z</time>
      </trkpt>
      <trkpt lat="48.66723" lon="1.85723">
        <ele>178</ele>
        <time>2018-11-11T11:20:51Z</time>
      </trkpt>
      <trkpt lat="48.6672" lon="1.85683">
        <ele>178</ele>
        <time>2018-11-11T11:21:12Z</time>
      </trkpt>
      <trkpt lat="48.66723" lon="1.85644">
        <ele>178</ele>
        <time>2018-11-11T11:21:35Z</time>
      </trkpt>
      <trkpt lat="48.66722" lon="1.85628">
        <ele>178</ele>
        <time>2018-11-11T11:21:43Z</time>
      </trkpt>
      <trkpt lat="48.66725" lon="1.85614">
        <ele>178</ele>
        <time>2018-11-11T11:21:51Z</time>
      </trkpt>
      <trkpt lat="48.66726" lon="1.85593">
        <ele>178</ele>
        <time>2018-11-11T11:22:03Z</time>
      </trkpt>
      <trkpt lat="48.66728" lon="1.85586">
        <ele>178</ele>
        <time>2018-11-11T11:22:07Z</time>
      </trkpt>
      <trkpt lat="48.66727" lon="1.85525">
        <ele>178</ele>
        <time>2018-11-11T11:22:41Z</time>
      </trkpt>
      <trkpt lat="48.66728" lon="1.85509">
        <ele>178</ele>
        <time>2018-11-11T11:22:50Z</time>
      </trkpt>
      <trkpt lat="48.66728" lon="1.85502">
        <ele>178</ele>
        <time>2018-11-11T11:22:54Z</time>
      </trkpt>
      <trkpt lat="48.66734" lon="1.85464">
        <ele>178</ele>
        <time>2018-11-11T11:23:14Z</time>
      </trkpt>
      <trkpt lat="48.66733" lon="1.85457">
        <ele>178</ele>
        <time>2018-11-11T11:23:18Z</time>
      </trkpt>
      <trkpt lat="48.66733" lon="1.85441">
        <ele>178</ele>
        <time>2018-11-11T11:23:26Z</time>
      </trkpt>
      <trkpt lat="48.66736" lon="1.8542">
        <ele>177</ele>
        <time>2018-11-11T11:23:38Z</time>
      </trkpt>
      <trkpt lat="48.66735" lon="1.85405">
        <ele>178</ele>
        <time>2018-11-11T11:23:46Z</time>
      </trkpt>
      <trkpt lat="48.66732" lon="1.8538">
        <ele>178</ele>
        <time>2018-11-11T11:23:58Z</time>
      </trkpt>
      <trkpt lat="48.66732" lon="1.85372">
        <ele>177</ele>
        <time>2018-11-11T11:24:02Z</time>
      </trkpt>
      <trkpt lat="48.66734" lon="1.85365">
        <ele>178</ele>
        <time>2018-11-11T11:24:06Z</time>
      </trkpt>
      <trkpt lat="48.66737" lon="1.8532">
        <ele>177</ele>
        <time>2018-11-11T11:24:29Z</time>
      </trkpt>
      <trkpt lat="48.66736" lon="1.85295">
        <ele>176</ele>
        <time>2018-11-11T11:24:41Z</time>
      </trkpt>
      <trkpt lat="48.66738" lon="1.85273">
        <ele>176</ele>
        <time>2018-11-11T11:24:54Z</time>
      </trkpt>
      <trkpt lat="48.6674" lon="1.85211">
        <ele>176</ele>
        <time>2018-11-11T11:25:27Z</time>
      </trkpt>
      <trkpt lat="48.66741" lon="1.85204">
        <ele>175</ele>
        <time>2018-11-11T11:25:30Z</time>
      </trkpt>
      <trkpt lat="48.66742" lon="1.85188">
        <ele>176</ele>
        <time>2018-11-11T11:25:39Z</time>
      </trkpt>
      <trkpt lat="48.66745" lon="1.85126">
        <ele>175</ele>
        <time>2018-11-11T11:26:11Z</time>
      </trkpt>
      <trkpt lat="48.66748" lon="1.85063">
        <ele>174</ele>
        <time>2018-11-11T11:26:43Z</time>
      </trkpt>
      <trkpt lat="48.6675" lon="1.85048">
        <ele>174</ele>
        <time>2018-11-11T11:26:50Z</time>
      </trkpt>
      <trkpt lat="48.66755" lon="1.8501">
        <ele>174</ele>
        <time>2018-11-11T11:27:11Z</time>
      </trkpt>
      <trkpt lat="48.66755" lon="1.85001">
        <ele>174</ele>
        <time>2018-11-11T11:27:15Z</time>
      </trkpt>
      <trkpt lat="48.66757" lon="1.84935">
        <ele>172</ele>
        <time>2018-11-11T11:27:47Z</time>
      </trkpt>
      <trkpt lat="48.66758" lon="1.84919">
        <ele>172</ele>
        <time>2018-11-11T11:27:55Z</time>
      </trkpt>
      <trkpt lat="48.66756" lon="1.84911">
        <ele>172</ele>
        <time>2018-11-11T11:27:59Z</time>
      </trkpt>
      <trkpt lat="48.6676" lon="1.84879">
        <ele>171</ele>
        <time>2018-11-11T11:28:15Z</time>
      </trkpt>
      <trkpt lat="48.66761" lon="1.84872">
        <ele>171</ele>
        <time>2018-11-11T11:28:19Z</time>
      </trkpt>
      <trkpt lat="48.66766" lon="1.84812">
        <ele>168</ele>
        <time>2018-11-11T11:28:51Z</time>
      </trkpt>
      <trkpt lat="48.66765" lon="1.84803">
        <ele>168</ele>
        <time>2018-11-11T11:28:55Z</time>
      </trkpt>
      <trkpt lat="48.66763" lon="1.84767">
        <ele>167</ele>
        <time>2018-11-11T11:29:10Z</time>
      </trkpt>
      <trkpt lat="48.66763" lon="1.84754">
        <ele>168</ele>
        <time>2018-11-11T11:29:13Z</time>
      </trkpt>
      <trkpt lat="48.66765" lon="1.84747">
        <ele>168</ele>
        <time>2018-11-11T11:29:16Z</time>
      </trkpt>
      <trkpt lat="48.66766" lon="1.84739">
        <ele>167</ele>
        <time>2018-11-11T11:29:21Z</time>
      </trkpt>
      <trkpt lat="48.66767" lon="1.84732">
        <ele>167</ele>
        <time>2018-11-11T11:29:26Z</time>
      </trkpt>
      <trkpt lat="48.66769" lon="1.84726">
        <ele>167</ele>
        <time>2018-11-11T11:29:30Z</time>
      </trkpt>
      <trkpt lat="48.66771" lon="1.84711">
        <ele>168</ele>
        <time>2018-11-11T11:29:39Z</time>
      </trkpt>
      <trkpt lat="48.66772" lon="1.84684">
        <ele>168</ele>
        <time>2018-11-11T11:29:54Z</time>
      </trkpt>
      <trkpt lat="48.6677" lon="1.84677">
        <ele>168</ele>
        <time>2018-11-11T11:29:58Z</time>
      </trkpt>
      <trkpt lat="48.66766" lon="1.84671">
        <ele>168</ele>
        <time>2018-11-11T11:30:02Z</time>
      </trkpt>
      <trkpt lat="48.66746" lon="1.84655">
        <ele>169</ele>
        <time>2018-11-11T11:30:20Z</time>
      </trkpt>
      <trkpt lat="48.66741" lon="1.84653">
        <ele>169</ele>
        <time>2018-11-11T11:30:25Z</time>
      </trkpt>
      <trkpt lat="48.66716" lon="1.84646">
        <ele>169</ele>
        <time>2018-11-11T11:30:44Z</time>
      </trkpt>
      <trkpt lat="48.66701" lon="1.84648">
        <ele>168</ele>
        <time>2018-11-11T11:30:56Z</time>
      </trkpt>
      <trkpt lat="48.66691" lon="1.84644">
        <ele>168</ele>
        <time>2018-11-11T11:31:04Z</time>
      </trkpt>
      <trkpt lat="48.66682" lon="1.84635">
        <ele>168</ele>
        <time>2018-11-11T11:31:13Z</time>
      </trkpt>
      <trkpt lat="48.66676" lon="1.84634">
        <ele>168</ele>
        <time>2018-11-11T11:31:17Z</time>
      </trkpt>
      <trkpt lat="48.66668" lon="1.84624">
        <ele>168</ele>
        <time>2018-11-11T11:31:24Z</time>
      </trkpt>
      <trkpt lat="48.66664" lon="1.8461">
        <ele>169</ele>
        <time>2018-11-11T11:31:34Z</time>
      </trkpt>
      <trkpt lat="48.66661" lon="1.84602">
        <ele>169</ele>
        <time>2018-11-11T11:31:40Z</time>
      </trkpt>
      <trkpt lat="48.66644" lon="1.84584">
        <ele>169</ele>
        <time>2018-11-11T11:31:57Z</time>
      </trkpt>
      <trkpt lat="48.66636" lon="1.84576">
        <ele>168</ele>
        <time>2018-11-11T11:32:05Z</time>
      </trkpt>
      <trkpt lat="48.66632" lon="1.8457">
        <ele>168</ele>
        <time>2018-11-11T11:32:09Z</time>
      </trkpt>
      <trkpt lat="48.66627" lon="1.84558">
        <ele>167</ele>
        <time>2018-11-11T11:32:17Z</time>
      </trkpt>
      <trkpt lat="48.66618" lon="1.84548">
        <ele>167</ele>
        <time>2018-11-11T11:32:27Z</time>
      </trkpt>
      <trkpt lat="48.66617" lon="1.84541">
        <ele>167</ele>
        <time>2018-11-11T11:32:31Z</time>
      </trkpt>
      <trkpt lat="48.66585" lon="1.84493">
        <ele>168</ele>
        <time>2018-11-11T11:33:02Z</time>
      </trkpt>
      <trkpt lat="48.6657" lon="1.84463">
        <ele>167</ele>
        <time>2018-11-11T11:33:19Z</time>
      </trkpt>
      <trkpt lat="48.66565" lon="1.84448">
        <ele>167</ele>
        <time>2018-11-11T11:33:27Z</time>
      </trkpt>
      <trkpt lat="48.66561" lon="1.84442">
        <ele>167</ele>
        <time>2018-11-11T11:33:31Z</time>
      </trkpt>
      <trkpt lat="48.66557" lon="1.84428">
        <ele>167</ele>
        <time>2018-11-11T11:33:39Z</time>
      </trkpt>
      <trkpt lat="48.66553" lon="1.84391">
        <ele>168</ele>
        <time>2018-11-11T11:33:58Z</time>
      </trkpt>
      <trkpt lat="48.66556" lon="1.84368">
        <ele>167</ele>
        <time>2018-11-11T11:34:10Z</time>
      </trkpt>
      <trkpt lat="48.66555" lon="1.84361">
        <ele>167</ele>
        <time>2018-11-11T11:34:14Z</time>
      </trkpt>
      <trkpt lat="48.66556" lon="1.84353">
        <ele>167</ele>
        <time>2018-11-11T11:34:18Z</time>
      </trkpt>
      <trkpt lat="48.66554" lon="1.84343">
        <ele>166</ele>
        <time>2018-11-11T11:34:22Z</time>
      </trkpt>
      <trkpt lat="48.66552" lon="1.84337">
        <ele>166</ele>
        <time>2018-11-11T11:34:25Z</time>
      </trkpt>
      <trkpt lat="48.66534" lon="1.84307">
        <ele>166</ele>
        <time>2018-11-11T11:34:43Z</time>
      </trkpt>
      <trkpt lat="48.66524" lon="1.84298">
        <ele>167</ele>
        <time>2018-11-11T11:34:51Z</time>
      </trkpt>
      <trkpt lat="48.66515" lon="1.84292">
        <ele>167</ele>
        <time>2018-11-11T11:34:57Z</time>
      </trkpt>
      <trkpt lat="48.66511" lon="1.84288">
        <ele>167</ele>
        <time>2018-11-11T11:35:01Z</time>
      </trkpt>
      <trkpt lat="48.66506" lon="1.84287">
        <ele>167</ele>
        <time>2018-11-11T11:35:05Z</time>
      </trkpt>
      <trkpt lat="48.66502" lon="1.84281">
        <ele>166</ele>
        <time>2018-11-11T11:35:09Z</time>
      </trkpt>
      <trkpt lat="48.66499" lon="1.84275">
        <ele>166</ele>
        <time>2018-11-11T11:35:13Z</time>
      </trkpt>
      <trkpt lat="48.66486" lon="1.84265">
        <ele>167</ele>
        <time>2018-11-11T11:35:22Z</time>
      </trkpt>
      <trkpt lat="48.6648" lon="1.84254">
        <ele>167</ele>
        <time>2018-11-11T11:35:28Z</time>
      </trkpt>
      <trkpt lat="48.6647" lon="1.84247">
        <ele>167</ele>
        <time>2018-11-11T11:35:36Z</time>
      </trkpt>
      <trkpt lat="48.66434" lon="1.84206">
        <ele>168</ele>
        <time>2018-11-11T11:36:11Z</time>
      </trkpt>
      <trkpt lat="48.66432" lon="1.842">
        <ele>168</ele>
        <time>2018-11-11T11:36:15Z</time>
      </trkpt>
      <trkpt lat="48.66428" lon="1.84194">
        <ele>168</ele>
        <time>2018-11-11T11:36:19Z</time>
      </trkpt>
      <trkpt lat="48.66422" lon="1.84181">
        <ele>168</ele>
        <time>2018-11-11T11:36:27Z</time>
      </trkpt>
      <trkpt lat="48.66422" lon="1.84173">
        <ele>168</ele>
        <time>2018-11-11T11:36:31Z</time>
      </trkpt>
      <trkpt lat="48.66423" lon="1.84154">
        <ele>169</ele>
        <time>2018-11-11T11:36:43Z</time>
      </trkpt>
      <trkpt lat="48.66426" lon="1.8414">
        <ele>170</ele>
        <time>2018-11-11T11:36:51Z</time>
      </trkpt>
      <trkpt lat="48.66426" lon="1.84125">
        <ele>170</ele>
        <time>2018-11-11T11:36:59Z</time>
      </trkpt>
      <trkpt lat="48.66423" lon="1.84109">
        <ele>171</ele>
        <time>2018-11-11T11:37:06Z</time>
      </trkpt>
      <trkpt lat="48.66422" lon="1.84086">
        <ele>171</ele>
        <time>2018-11-11T11:37:18Z</time>
      </trkpt>
      <trkpt lat="48.66423" lon="1.84079">
        <ele>171</ele>
        <time>2018-11-11T11:37:22Z</time>
      </trkpt>
      <trkpt lat="48.66423" lon="1.84071">
        <ele>171</ele>
        <time>2018-11-11T11:37:26Z</time>
      </trkpt>
      <trkpt lat="48.66418" lon="1.84057">
        <ele>171</ele>
        <time>2018-11-11T11:37:33Z</time>
      </trkpt>
      <trkpt lat="48.66408" lon="1.83995">
        <ele>171</ele>
        <time>2018-11-11T11:38:05Z</time>
      </trkpt>
      <trkpt lat="48.66417" lon="1.83973">
        <ele>171</ele>
        <time>2018-11-11T11:38:17Z</time>
      </trkpt>
      <trkpt lat="48.66421" lon="1.83957">
        <ele>171</ele>
        <time>2018-11-11T11:38:25Z</time>
      </trkpt>
      <trkpt lat="48.66421" lon="1.83942">
        <ele>172</ele>
        <time>2018-11-11T11:38:33Z</time>
      </trkpt>
      <trkpt lat="48.66433" lon="1.83894">
        <ele>172</ele>
        <time>2018-11-11T11:38:59Z</time>
      </trkpt>
      <trkpt lat="48.66446" lon="1.83857">
        <ele>173</ele>
        <time>2018-11-11T11:39:19Z</time>
      </trkpt>
      <trkpt lat="48.66451" lon="1.83829">
        <ele>173</ele>
        <time>2018-11-11T11:39:34Z</time>
      </trkpt>
      <trkpt lat="48.66455" lon="1.83814">
        <ele>173</ele>
        <time>2018-11-11T11:39:41Z</time>
      </trkpt>
      <trkpt lat="48.66458" lon="1.83802">
        <ele>172</ele>
        <time>2018-11-11T11:39:48Z</time>
      </trkpt>
      <trkpt lat="48.66459" lon="1.83785">
        <ele>173</ele>
        <time>2018-11-11T11:40:00Z</time>
      </trkpt>
      <trkpt lat="48.6646" lon="1.83778">
        <ele>173</ele>
        <time>2018-11-11T11:40:05Z</time>
      </trkpt>
      <trkpt lat="48.66464" lon="1.83772">
        <ele>173</ele>
        <time>2018-11-11T11:40:13Z</time>
      </trkpt>
      <trkpt lat="48.66465" lon="1.83764">
        <ele>172</ele>
        <time>2018-11-11T11:40:31Z</time>
      </trkpt>
      <trkpt lat="48.6647" lon="1.83764">
        <ele>172</ele>
        <time>2018-11-11T11:40:37Z</time>
      </trkpt>
      <trkpt lat="48.66474" lon="1.83765">
        <ele>172</ele>
        <time>2018-11-11T11:40:41Z</time>
      </trkpt>
      <trkpt lat="48.66479" lon="1.83765">
        <ele>171</ele>
        <time>2018-11-11T11:40:45Z</time>
      </trkpt>
      <trkpt lat="48.6649" lon="1.83769">
        <ele>170</ele>
        <time>2018-11-11T11:40:53Z</time>
      </trkpt>
      <trkpt lat="48.66494" lon="1.83773">
        <ele>170</ele>
        <time>2018-11-11T11:40:55Z</time>
      </trkpt>
      <trkpt lat="48.66502" lon="1.83775">
        <ele>169</ele>
        <time>2018-11-11T11:41:03Z</time>
      </trkpt>
      <trkpt lat="48.66502" lon="1.83767">
        <ele>168</ele>
        <time>2018-11-11T11:41:07Z</time>
      </trkpt>
      <trkpt lat="48.6648" lon="1.8372">
        <ele>167</ele>
        <time>2018-11-11T11:41:45Z</time>
      </trkpt>
      <trkpt lat="48.66482" lon="1.83703">
        <ele>167</ele>
        <time>2018-11-11T11:41:50Z</time>
      </trkpt>
      <trkpt lat="48.66477" lon="1.83661">
        <ele>167</ele>
        <time>2018-11-11T11:42:04Z</time>
      </trkpt>
      <trkpt lat="48.66459" lon="1.83667">
        <ele>167</ele>
        <time>2018-11-11T11:42:11Z</time>
      </trkpt>
      <trkpt lat="48.66454" lon="1.83665">
        <ele>167</ele>
        <time>2018-11-11T11:42:14Z</time>
      </trkpt>
      <trkpt lat="48.66446" lon="1.83655">
        <ele>167</ele>
        <time>2018-11-11T11:42:22Z</time>
      </trkpt>
      <trkpt lat="48.66441" lon="1.83652">
        <ele>167</ele>
        <time>2018-11-11T11:42:27Z</time>
      </trkpt>
      <trkpt lat="48.66418" lon="1.83603">
        <ele>170</ele>
        <time>2018-11-11T11:42:58Z</time>
      </trkpt>
      <trkpt lat="48.66391" lon="1.83546">
        <ele>170</ele>
        <time>2018-11-11T11:43:31Z</time>
      </trkpt>
      <trkpt lat="48.66386" lon="1.83533">
        <ele>170</ele>
        <time>2018-11-11T11:43:39Z</time>
      </trkpt>
      <trkpt lat="48.6638" lon="1.83531">
        <ele>170</ele>
        <time>2018-11-11T11:43:43Z</time>
      </trkpt>
      <trkpt lat="48.66375" lon="1.83534">
        <ele>170</ele>
        <time>2018-11-11T11:43:47Z</time>
      </trkpt>
      <trkpt lat="48.6637" lon="1.83531">
        <ele>170</ele>
        <time>2018-11-11T11:43:51Z</time>
      </trkpt>
      <trkpt lat="48.66367" lon="1.83523">
        <ele>170</ele>
        <time>2018-11-11T11:43:55Z</time>
      </trkpt>
      <trkpt lat="48.66365" lon="1.83516">
        <ele>170</ele>
        <time>2018-11-11T11:43:58Z</time>
      </trkpt>
      <trkpt lat="48.66356" lon="1.83504">
        <ele>170</ele>
        <time>2018-11-11T11:44:06Z</time>
      </trkpt>
      <trkpt lat="48.66354" lon="1.83498">
        <ele>169</ele>
        <time>2018-11-11T11:44:10Z</time>
      </trkpt>
      <trkpt lat="48.66352" lon="1.83491">
        <ele>170</ele>
        <time>2018-11-11T11:44:14Z</time>
      </trkpt>
      <trkpt lat="48.6635" lon="1.83484">
        <ele>169</ele>
        <time>2018-11-11T11:44:18Z</time>
      </trkpt>
      <trkpt lat="48.66347" lon="1.83477">
        <ele>169</ele>
        <time>2018-11-11T11:44:22Z</time>
      </trkpt>
      <trkpt lat="48.66336" lon="1.8346">
        <ele>169</ele>
        <time>2018-11-11T11:44:34Z</time>
      </trkpt>
      <trkpt lat="48.66335" lon="1.83453">
        <ele>169</ele>
        <time>2018-11-11T11:44:37Z</time>
      </trkpt>
      <trkpt lat="48.66333" lon="1.83447">
        <ele>169</ele>
        <time>2018-11-11T11:44:40Z</time>
      </trkpt>
      <trkpt lat="48.66329" lon="1.83441">
        <ele>169</ele>
        <time>2018-11-11T11:44:44Z</time>
      </trkpt>
      <trkpt lat="48.66321" lon="1.83428">
        <ele>169</ele>
        <time>2018-11-11T11:44:52Z</time>
      </trkpt>
      <trkpt lat="48.66309" lon="1.83394">
        <ele>169</ele>
        <time>2018-11-11T11:45:08Z</time>
      </trkpt>
      <trkpt lat="48.66301" lon="1.83356">
        <ele>169</ele>
        <time>2018-11-11T11:45:28Z</time>
      </trkpt>
      <trkpt lat="48.66298" lon="1.83349">
        <ele>169</ele>
        <time>2018-11-11T11:45:33Z</time>
      </trkpt>
      <trkpt lat="48.66297" lon="1.83342">
        <ele>169</ele>
        <time>2018-11-11T11:45:37Z</time>
      </trkpt>
      <trkpt lat="48.6629" lon="1.83329">
        <ele>169</ele>
        <time>2018-11-11T11:45:45Z</time>
      </trkpt>
      <trkpt lat="48.6629" lon="1.8332">
        <ele>168</ele>
        <time>2018-11-11T11:45:54Z</time>
      </trkpt>
      <trkpt lat="48.66288" lon="1.83313">
        <ele>168</ele>
        <time>2018-11-11T11:45:59Z</time>
      </trkpt>
      <trkpt lat="48.66285" lon="1.83308">
        <ele>169</ele>
        <time>2018-11-11T11:46:03Z</time>
      </trkpt>
      <trkpt lat="48.66273" lon="1.83283">
        <ele>168</ele>
        <time>2018-11-11T11:46:19Z</time>
      </trkpt>
      <trkpt lat="48.66269" lon="1.83279">
        <ele>168</ele>
        <time>2018-11-11T11:46:22Z</time>
      </trkpt>
      <trkpt lat="48.66267" lon="1.83272">
        <ele>168</ele>
        <time>2018-11-11T11:46:26Z</time>
      </trkpt>
      <trkpt lat="48.66265" lon="1.83264">
        <ele>168</ele>
        <time>2018-11-11T11:46:30Z</time>
      </trkpt>
      <trkpt lat="48.66241" lon="1.8321">
        <ele>166</ele>
        <time>2018-11-11T11:47:03Z</time>
      </trkpt>
      <trkpt lat="48.66237" lon="1.83195">
        <ele>166</ele>
        <time>2018-11-11T11:47:10Z</time>
      </trkpt>
      <trkpt lat="48.66213" lon="1.83148">
        <ele>164</ele>
        <time>2018-11-11T11:47:37Z</time>
      </trkpt>
      <trkpt lat="48.66202" lon="1.8313">
        <ele>163</ele>
        <time>2018-11-11T11:47:49Z</time>
      </trkpt>
      <trkpt lat="48.66196" lon="1.83116">
        <ele>163</ele>
        <time>2018-11-11T11:47:56Z</time>
      </trkpt>
      <trkpt lat="48.66171" lon="1.83058">
        <ele>160</ele>
        <time>2018-11-11T11:48:30Z</time>
      </trkpt>
      <trkpt lat="48.66168" lon="1.83053">
        <ele>160</ele>
        <time>2018-11-11T11:48:33Z</time>
      </trkpt>
      <trkpt lat="48.66155" lon="1.83029">
        <ele>158</ele>
        <time>2018-11-11T11:48:47Z</time>
      </trkpt>
      <trkpt lat="48.66137" lon="1.82989">
        <ele>157</ele>
        <time>2018-11-11T11:49:12Z</time>
      </trkpt>
      <trkpt lat="48.66131" lon="1.82983">
        <ele>157</ele>
        <time>2018-11-11T11:49:17Z</time>
      </trkpt>
      <trkpt lat="48.66127" lon="1.82978">
        <ele>156</ele>
        <time>2018-11-11T11:49:20Z</time>
      </trkpt>
      <trkpt lat="48.66122" lon="1.82964">
        <ele>156</ele>
        <time>2018-11-11T11:49:27Z</time>
      </trkpt>
      <trkpt lat="48.66124" lon="1.82955">
        <ele>156</ele>
        <time>2018-11-11T11:49:36Z</time>
      </trkpt>
      <trkpt lat="48.66128" lon="1.82949">
        <ele>157</ele>
        <time>2018-11-11T11:49:42Z</time>
      </trkpt>
      <trkpt lat="48.66132" lon="1.82944">
        <ele>157</ele>
        <time>2018-11-11T11:49:47Z</time>
      </trkpt>
      <trkpt lat="48.66144" lon="1.82928">
        <ele>156</ele>
        <time>2018-11-11T11:49:59Z</time>
      </trkpt>
      <trkpt lat="48.6615" lon="1.82916">
        <ele>155</ele>
        <time>2018-11-11T11:50:07Z</time>
      </trkpt>
      <trkpt lat="48.66157" lon="1.82905">
        <ele>155</ele>
        <time>2018-11-11T11:50:16Z</time>
      </trkpt>
      <trkpt lat="48.66165" lon="1.82895">
        <ele>155</ele>
        <time>2018-11-11T11:50:23Z</time>
      </trkpt>
      <trkpt lat="48.66167" lon="1.82889">
        <ele>156</ele>
        <time>2018-11-11T11:50:27Z</time>
      </trkpt>
      <trkpt lat="48.66172" lon="1.82856">
        <ele>157</ele>
        <time>2018-11-11T11:50:47Z</time>
      </trkpt>
      <trkpt lat="48.6618" lon="1.82846">
        <ele>158</ele>
        <time>2018-11-11T11:50:55Z</time>
      </trkpt>
      <trkpt lat="48.66188" lon="1.82841">
        <ele>159</ele>
        <time>2018-11-11T11:51:03Z</time>
      </trkpt>
      <trkpt lat="48.66204" lon="1.82861">
        <ele>157</ele>
        <time>2018-11-11T11:51:26Z</time>
      </trkpt>
      <trkpt lat="48.66227" lon="1.82881">
        <ele>156</ele>
        <time>2018-11-11T11:51:47Z</time>
      </trkpt>
      <trkpt lat="48.6623" lon="1.82886">
        <ele>156</ele>
        <time>2018-11-11T11:51:51Z</time>
      </trkpt>
      <trkpt lat="48.66235" lon="1.82889">
        <ele>155</ele>
        <time>2018-11-11T11:51:56Z</time>
      </trkpt>
      <trkpt lat="48.66237" lon="1.82896">
        <ele>155</ele>
        <time>2018-11-11T11:52:00Z</time>
      </trkpt>
      <trkpt lat="48.66241" lon="1.829">
        <ele>155</ele>
        <time>2018-11-11T11:52:04Z</time>
      </trkpt>
      <trkpt lat="48.6625" lon="1.82905">
        <ele>154</ele>
        <time>2018-11-11T11:52:13Z</time>
      </trkpt>
      <trkpt lat="48.66262" lon="1.8292">
        <ele>154</ele>
        <time>2018-11-11T11:52:26Z</time>
      </trkpt>
      <trkpt lat="48.66268" lon="1.82922">
        <ele>153</ele>
        <time>2018-11-11T11:52:31Z</time>
      </trkpt>
      <trkpt lat="48.66272" lon="1.82929">
        <ele>153</ele>
        <time>2018-11-11T11:52:40Z</time>
      </trkpt>
      <trkpt lat="48.66276" lon="1.82934">
        <ele>154</ele>
        <time>2018-11-11T11:52:45Z</time>
      </trkpt>
      <trkpt lat="48.66281" lon="1.82938">
        <ele>153</ele>
        <time>2018-11-11T11:52:49Z</time>
      </trkpt>
      <trkpt lat="48.6629" lon="1.82945">
        <ele>153</ele>
        <time>2018-11-11T11:52:58Z</time>
      </trkpt>
      <trkpt lat="48.66294" lon="1.82951">
        <ele>153</ele>
        <time>2018-11-11T11:53:02Z</time>
      </trkpt>
      <trkpt lat="48.66306" lon="1.8297">
        <ele>155</ele>
        <time>2018-11-11T11:53:19Z</time>
      </trkpt>
      <trkpt lat="48.66323" lon="1.82981">
        <ele>155</ele>
        <time>2018-11-11T11:53:33Z</time>
      </trkpt>
      <trkpt lat="48.66331" lon="1.82991">
        <ele>156</ele>
        <time>2018-11-11T11:53:43Z</time>
      </trkpt>
      <trkpt lat="48.66347" lon="1.83006">
        <ele>155</ele>
        <time>2018-11-11T11:53:57Z</time>
      </trkpt>
      <trkpt lat="48.66355" lon="1.83013">
        <ele>156</ele>
        <time>2018-11-11T11:54:06Z</time>
      </trkpt>
      <trkpt lat="48.66361" lon="1.83024">
        <ele>156</ele>
        <time>2018-11-11T11:54:16Z</time>
      </trkpt>
      <trkpt lat="48.66365" lon="1.83026">
        <ele>155</ele>
        <time>2018-11-11T11:54:21Z</time>
      </trkpt>
      <trkpt lat="48.66367" lon="1.83033">
        <ele>156</ele>
        <time>2018-11-11T11:54:26Z</time>
      </trkpt>
      <trkpt lat="48.66371" lon="1.83038">
        <ele>156</ele>
        <time>2018-11-11T11:54:30Z</time>
      </trkpt>
      <trkpt lat="48.66374" lon="1.83044">
        <ele>157</ele>
        <time>2018-11-11T11:54:34Z</time>
      </trkpt>
      <trkpt lat="48.66379" lon="1.83049">
        <ele>157</ele>
        <time>2018-11-11T11:54:38Z</time>
      </trkpt>
      <trkpt lat="48.66388" lon="1.83053">
        <ele>157</ele>
        <time>2018-11-11T11:54:44Z</time>
      </trkpt>
      <trkpt lat="48.66421" lon="1.83086">
        <ele>159</ele>
        <time>2018-11-11T11:55:16Z</time>
      </trkpt>
      <trkpt lat="48.66423" lon="1.83093">
        <ele>159</ele>
        <time>2018-11-11T11:55:20Z</time>
      </trkpt>
      <trkpt lat="48.66439" lon="1.83112">
        <ele>161</ele>
        <time>2018-11-11T11:55:38Z</time>
      </trkpt>
      <trkpt lat="48.66444" lon="1.83115">
        <ele>161</ele>
        <time>2018-11-11T11:55:42Z</time>
      </trkpt>
      <trkpt lat="48.66455" lon="1.83119">
        <ele>162</ele>
        <time>2018-11-11T11:55:50Z</time>
      </trkpt>
      <trkpt lat="48.66488" lon="1.83154">
        <ele>163</ele>
        <time>2018-11-11T11:56:21Z</time>
      </trkpt>
      <trkpt lat="48.66505" lon="1.83168">
        <ele>164</ele>
        <time>2018-11-11T11:56:35Z</time>
      </trkpt>
      <trkpt lat="48.66512" lon="1.83177">
        <ele>163</ele>
        <time>2018-11-11T11:56:42Z</time>
      </trkpt>
      <trkpt lat="48.66531" lon="1.83187">
        <ele>164</ele>
        <time>2018-11-11T11:56:56Z</time>
      </trkpt>
      <trkpt lat="48.66552" lon="1.83214">
        <ele>164</ele>
        <time>2018-11-11T11:57:23Z</time>
      </trkpt>
      <trkpt lat="48.66558" lon="1.83224">
        <ele>165</ele>
        <time>2018-11-11T11:57:31Z</time>
      </trkpt>
      <trkpt lat="48.66567" lon="1.83233">
        <ele>165</ele>
        <time>2018-11-11T11:57:40Z</time>
      </trkpt>
      <trkpt lat="48.66574" lon="1.83244">
        <ele>165</ele>
        <time>2018-11-11T11:57:48Z</time>
      </trkpt>
      <trkpt lat="48.66595" lon="1.8325">
        <ele>165</ele>
        <time>2018-11-11T11:58:04Z</time>
      </trkpt>
      <trkpt lat="48.66604" lon="1.83258">
        <ele>165</ele>
        <time>2018-11-11T11:58:12Z</time>
      </trkpt>
      <trkpt lat="48.66631" lon="1.83271">
        <ele>166</ele>
        <time>2018-11-11T11:58:33Z</time>
      </trkpt>
      <trkpt lat="48.6665" lon="1.83269">
        <ele>165</ele>
        <time>2018-11-11T11:58:53Z</time>
      </trkpt>
      <trkpt lat="48.66677" lon="1.83282">
        <ele>165</ele>
        <time>2018-11-11T11:59:15Z</time>
      </trkpt>
      <trkpt lat="48.66686" lon="1.83287">
        <ele>164</ele>
        <time>2018-11-11T11:59:25Z</time>
      </trkpt>
      <trkpt lat="48.66712" lon="1.83289">
        <ele>160</ele>
        <time>2018-11-11T11:59:44Z</time>
      </trkpt>
      <trkpt lat="48.66722" lon="1.83288">
        <ele>158</ele>
        <time>2018-11-11T11:59:52Z</time>
      </trkpt>
      <trkpt lat="48.66732" lon="1.83293">
        <ele>157</ele>
        <time>2018-11-11T12:00:02Z</time>
      </trkpt>
      <trkpt lat="48.66757" lon="1.833">
        <ele>154</ele>
        <time>2018-11-11T12:00:24Z</time>
      </trkpt>
      <trkpt lat="48.66767" lon="1.83298">
        <ele>153</ele>
        <time>2018-11-11T12:00:33Z</time>
      </trkpt>
      <trkpt lat="48.66774" lon="1.83295">
        <ele>153</ele>
        <time>2018-11-11T12:00:37Z</time>
      </trkpt>
      <trkpt lat="48.66789" lon="1.83287">
        <ele>153</ele>
        <time>2018-11-11T12:00:47Z</time>
      </trkpt>
      <trkpt lat="48.66799" lon="1.8327">
        <ele>152</ele>
        <time>2018-11-11T12:00:58Z</time>
      </trkpt>
      <trkpt lat="48.66802" lon="1.83264">
        <ele>152</ele>
        <time>2018-11-11T12:01:03Z</time>
      </trkpt>
      <trkpt lat="48.66811" lon="1.83256">
        <ele>153</ele>
        <time>2018-11-11T12:01:11Z</time>
      </trkpt>
      <trkpt lat="48.66825" lon="1.83241">
        <ele>153</ele>
        <time>2018-11-11T12:01:23Z</time>
      </trkpt>
      <trkpt lat="48.66842" lon="1.83227">
        <ele>152</ele>
        <time>2018-11-11T12:01:39Z</time>
      </trkpt>
      <trkpt lat="48.66847" lon="1.83215">
        <ele>152</ele>
        <time>2018-11-11T12:01:46Z</time>
      </trkpt>
      <trkpt lat="48.66855" lon="1.83207">
        <ele>152</ele>
        <time>2018-11-11T12:01:55Z</time>
      </trkpt>
      <trkpt lat="48.66873" lon="1.83204">
        <ele>151</ele>
        <time>2018-11-11T12:02:10Z</time>
      </trkpt>
      <trkpt lat="48.66878" lon="1.83192">
        <ele>152</ele>
        <time>2018-11-11T12:02:17Z</time>
      </trkpt>
      <trkpt lat="48.66881" lon="1.83181">
        <ele>152</ele>
        <time>2018-11-11T12:02:22Z</time>
      </trkpt>
      <trkpt lat="48.66893" lon="1.83146">
        <ele>153</ele>
        <time>2018-11-11T12:02:41Z</time>
      </trkpt>
      <trkpt lat="48.66898" lon="1.83116">
        <ele>155</ele>
        <time>2018-11-11T12:02:58Z</time>
      </trkpt>
      <trkpt lat="48.66898" lon="1.83108">
        <ele>156</ele>
        <time>2018-11-11T12:03:03Z</time>
      </trkpt>
      <trkpt lat="48.66899" lon="1.831">
        <ele>157</ele>
        <time>2018-11-11T12:03:08Z</time>
      </trkpt>
      <trkpt lat="48.66898" lon="1.8309">
        <ele>158</ele>
        <time>2018-11-11T12:03:16Z</time>
      </trkpt>
      <trkpt lat="48.66908" lon="1.83073">
        <ele>160</ele>
        <time>2018-11-11T12:03:30Z</time>
      </trkpt>
      <trkpt lat="48.66937" lon="1.8306">
        <ele>158</ele>
        <time>2018-11-11T12:03:58Z</time>
      </trkpt>
      <trkpt lat="48.66946" lon="1.83056">
        <ele>158</ele>
        <time>2018-11-11T12:04:06Z</time>
      </trkpt>
      <trkpt lat="48.66949" lon="1.83054">
        <ele>158</ele>
        <time>2018-11-11T12:04:10Z</time>
      </trkpt>
      <trkpt lat="48.66957" lon="1.83051">
        <ele>158</ele>
        <time>2018-11-11T12:04:17Z</time>
      </trkpt>
      <trkpt lat="48.66984" lon="1.83046">
        <ele>157</ele>
        <time>2018-11-11T12:04:38Z</time>
      </trkpt>
      <trkpt lat="48.66994" lon="1.8304">
        <ele>157</ele>
        <time>2018-11-11T12:04:46Z</time>
      </trkpt>
      <trkpt lat="48.66998" lon="1.83037">
        <ele>157</ele>
        <time>2018-11-11T12:04:50Z</time>
      </trkpt>
      <trkpt lat="48.67002" lon="1.83032">
        <ele>157</ele>
        <time>2018-11-11T12:04:54Z</time>
      </trkpt>
      <trkpt lat="48.67008" lon="1.83029">
        <ele>157</ele>
        <time>2018-11-11T12:04:58Z</time>
      </trkpt>
      <trkpt lat="48.67012" lon="1.83028">
        <ele>157</ele>
        <time>2018-11-11T12:05:01Z</time>
      </trkpt>
      <trkpt lat="48.67021" lon="1.83024">
        <ele>157</ele>
        <time>2018-11-11T12:05:09Z</time>
      </trkpt>
      <trkpt lat="48.67041" lon="1.83021">
        <ele>156</ele>
        <time>2018-11-11T12:05:26Z</time>
      </trkpt>
      <trkpt lat="48.67066" lon="1.8301">
        <ele>156</ele>
        <time>2018-11-11T12:05:47Z</time>
      </trkpt>
      <trkpt lat="48.67083" lon="1.83003">
        <ele>157</ele>
        <time>2018-11-11T12:06:03Z</time>
      </trkpt>
      <trkpt lat="48.6711" lon="1.82984">
        <ele>158</ele>
        <time>2018-11-11T12:06:26Z</time>
      </trkpt>
      <trkpt lat="48.67118" lon="1.82974">
        <ele>158</ele>
        <time>2018-11-11T12:06:33Z</time>
      </trkpt>
      <trkpt lat="48.67125" lon="1.82962">
        <ele>159</ele>
        <time>2018-11-11T12:06:41Z</time>
      </trkpt>
      <trkpt lat="48.67139" lon="1.82938">
        <ele>158</ele>
        <time>2018-11-11T12:06:57Z</time>
      </trkpt>
      <trkpt lat="48.67147" lon="1.8293">
        <ele>158</ele>
        <time>2018-11-11T12:07:03Z</time>
      </trkpt>
      <trkpt lat="48.67167" lon="1.82898">
        <ele>158</ele>
        <time>2018-11-11T12:07:30Z</time>
      </trkpt>
      <trkpt lat="48.67197" lon="1.82862">
        <ele>157</ele>
        <time>2018-11-11T12:08:00Z</time>
      </trkpt>
      <trkpt lat="48.67228" lon="1.82825">
        <ele>158</ele>
        <time>2018-11-11T12:08:31Z</time>
      </trkpt>
      <trkpt lat="48.67241" lon="1.82807">
        <ele>158</ele>
        <time>2018-11-11T12:08:47Z</time>
      </trkpt>
      <trkpt lat="48.67278" lon="1.82778">
        <ele>157</ele>
        <time>2018-11-11T12:09:21Z</time>
      </trkpt>
      <trkpt lat="48.67316" lon="1.82759">
        <ele>157</ele>
        <time>2018-11-11T12:09:52Z</time>
      </trkpt>
      <trkpt lat="48.67351" lon="1.82747">
        <ele>156</ele>
        <time>2018-11-11T12:10:20Z</time>
      </trkpt>
      <trkpt lat="48.67361" lon="1.82748">
        <ele>156</ele>
        <time>2018-11-11T12:10:29Z</time>
      </trkpt>
      <trkpt lat="48.67376" lon="1.82742">
        <ele>156</ele>
        <time>2018-11-11T12:10:38Z</time>
      </trkpt>
      <trkpt lat="48.6738" lon="1.82738">
        <ele>156</ele>
        <time>2018-11-11T12:10:41Z</time>
      </trkpt>
      <trkpt lat="48.67403" lon="1.82725">
        <ele>156</ele>
        <time>2018-11-11T12:10:59Z</time>
      </trkpt>
      <trkpt lat="48.67413" lon="1.82723">
        <ele>156</ele>
        <time>2018-11-11T12:11:05Z</time>
      </trkpt>
      <trkpt lat="48.67421" lon="1.82715">
        <ele>155</ele>
        <time>2018-11-11T12:11:12Z</time>
      </trkpt>
      <trkpt lat="48.67442" lon="1.82669">
        <ele>156</ele>
        <time>2018-11-11T12:11:41Z</time>
      </trkpt>
      <trkpt lat="48.67451" lon="1.82659">
        <ele>155</ele>
        <time>2018-11-11T12:11:48Z</time>
      </trkpt>
      <trkpt lat="48.67455" lon="1.82646">
        <ele>155</ele>
        <time>2018-11-11T12:11:55Z</time>
      </trkpt>
      <trkpt lat="48.67457" lon="1.82632">
        <ele>156</ele>
        <time>2018-11-11T12:12:03Z</time>
      </trkpt>
      <trkpt lat="48.6747" lon="1.82609">
        <ele>156</ele>
        <time>2018-11-11T12:12:18Z</time>
      </trkpt>
      <trkpt lat="48.67479" lon="1.82583">
        <ele>157</ele>
        <time>2018-11-11T12:12:35Z</time>
      </trkpt>
      <trkpt lat="48.67484" lon="1.82569">
        <ele>157</ele>
        <time>2018-11-11T12:12:42Z</time>
      </trkpt>
      <trkpt lat="48.67509" lon="1.82508">
        <ele>160</ele>
        <time>2018-11-11T12:13:17Z</time>
      </trkpt>
      <trkpt lat="48.67518" lon="1.82482">
        <ele>160</ele>
        <time>2018-11-11T12:13:33Z</time>
      </trkpt>
      <trkpt lat="48.67524" lon="1.82471">
        <ele>161</ele>
        <time>2018-11-11T12:13:41Z</time>
      </trkpt>
      <trkpt lat="48.67527" lon="1.82456">
        <ele>161</ele>
        <time>2018-11-11T12:13:49Z</time>
      </trkpt>
      <trkpt lat="48.6754" lon="1.8243">
        <ele>162</ele>
        <time>2018-11-11T12:14:02Z</time>
      </trkpt>
      <trkpt lat="48.67542" lon="1.82417">
        <ele>162</ele>
        <time>2018-11-11T12:14:09Z</time>
      </trkpt>
      <trkpt lat="48.67549" lon="1.82406">
        <ele>162</ele>
        <time>2018-11-11T12:14:17Z</time>
      </trkpt>
      <trkpt lat="48.67564" lon="1.82361">
        <ele>163</ele>
        <time>2018-11-11T12:14:44Z</time>
      </trkpt>
      <trkpt lat="48.67565" lon="1.82353">
        <ele>163</ele>
        <time>2018-11-11T12:14:48Z</time>
      </trkpt>
      <trkpt lat="48.67573" lon="1.82334">
        <ele>164</ele>
        <time>2018-11-11T12:15:00Z</time>
      </trkpt>
      <trkpt lat="48.67577" lon="1.82328">
        <ele>164</ele>
        <time>2018-11-11T12:15:04Z</time>
      </trkpt>
      <trkpt lat="48.6758" lon="1.82322">
        <ele>164</ele>
        <time>2018-11-11T12:15:08Z</time>
      </trkpt>
      <trkpt lat="48.67583" lon="1.82315">
        <ele>164</ele>
        <time>2018-11-11T12:15:12Z</time>
      </trkpt>
      <trkpt lat="48.67585" lon="1.82298">
        <ele>164</ele>
        <time>2018-11-11T12:15:19Z</time>
      </trkpt>
      <trkpt lat="48.67588" lon="1.8229">
        <ele>164</ele>
        <time>2018-11-11T12:15:23Z</time>
      </trkpt>
      <trkpt lat="48.67595" lon="1.8228">
        <ele>164</ele>
        <time>2018-11-11T12:15:30Z</time>
      </trkpt>
      <trkpt lat="48.67605" lon="1.8223">
        <ele>166</ele>
        <time>2018-11-11T12:16:07Z</time>
      </trkpt>
      <trkpt lat="48.67609" lon="1.82227">
        <ele>166</ele>
        <time>2018-11-11T12:16:25Z</time>
      </trkpt>
      <trkpt lat="48.67621" lon="1.8221">
        <ele>166</ele>
        <time>2018-11-11T12:16:42Z</time>
      </trkpt>
      <trkpt lat="48.6763" lon="1.82204">
        <ele>166</ele>
        <time>2018-11-11T12:16:52Z</time>
      </trkpt>
      <trkpt lat="48.67669" lon="1.82217">
        <ele>165</ele>
        <time>2018-11-11T12:17:28Z</time>
      </trkpt>
      <trkpt lat="48.67707" lon="1.82224">
        <ele>160</ele>
        <time>2018-11-11T12:18:00Z</time>
      </trkpt>
      <trkpt lat="48.67716" lon="1.82223">
        <ele>157</ele>
        <time>2018-11-11T12:18:10Z</time>
      </trkpt>
      <trkpt lat="48.67739" lon="1.82228">
        <ele>154</ele>
        <time>2018-11-11T12:18:31Z</time>
      </trkpt>
      <trkpt lat="48.67757" lon="1.82234">
        <ele>155</ele>
        <time>2018-11-11T12:18:44Z</time>
      </trkpt>
      <trkpt lat="48.67789" lon="1.8222">
        <ele>155</ele>
        <time>2018-11-11T12:19:07Z</time>
      </trkpt>
      <trkpt lat="48.67794" lon="1.82208">
        <ele>156</ele>
        <time>2018-11-11T12:19:14Z</time>
      </trkpt>
      <trkpt lat="48.67794" lon="1.82194">
        <ele>156</ele>
        <time>2018-11-11T12:19:21Z</time>
      </trkpt>
      <trkpt lat="48.67792" lon="1.82179">
        <ele>156</ele>
        <time>2018-11-11T12:19:29Z</time>
      </trkpt>
      <trkpt lat="48.67798" lon="1.82166">
        <ele>155</ele>
        <time>2018-11-11T12:19:46Z</time>
      </trkpt>
      <trkpt lat="48.67791" lon="1.82156">
        <ele>155</ele>
        <time>2018-11-11T12:19:54Z</time>
      </trkpt>
      <trkpt lat="48.67787" lon="1.82143">
        <ele>154</ele>
        <time>2018-11-11T12:20:09Z</time>
      </trkpt>
      <trkpt lat="48.67792" lon="1.82128">
        <ele>156</ele>
        <time>2018-11-11T12:20:27Z</time>
      </trkpt>
      <trkpt lat="48.67782" lon="1.82101">
        <ele>159</ele>
        <time>2018-11-11T12:20:49Z</time>
      </trkpt>
      <trkpt lat="48.6778" lon="1.82042">
        <ele>161</ele>
        <time>2018-11-11T12:21:24Z</time>
      </trkpt>
      <trkpt lat="48.67776" lon="1.82013">
        <ele>162</ele>
        <time>2018-11-11T12:21:38Z</time>
      </trkpt>
      <trkpt lat="48.67778" lon="1.81998">
        <ele>162</ele>
        <time>2018-11-11T12:21:47Z</time>
      </trkpt>
      <trkpt lat="48.67775" lon="1.81941">
        <ele>161</ele>
        <time>2018-11-11T12:22:19Z</time>
      </trkpt>
      <trkpt lat="48.67773" lon="1.81927">
        <ele>161</ele>
        <time>2018-11-11T12:22:27Z</time>
      </trkpt>
      <trkpt lat="48.67775" lon="1.81895">
        <ele>161</ele>
        <time>2018-11-11T12:22:43Z</time>
      </trkpt>
      <trkpt lat="48.67773" lon="1.81887">
        <ele>161</ele>
        <time>2018-11-11T12:22:47Z</time>
      </trkpt>
      <trkpt lat="48.67774" lon="1.81878">
        <ele>161</ele>
        <time>2018-11-11T12:22:53Z</time>
      </trkpt>
      <trkpt lat="48.6777" lon="1.81829">
        <ele>160</ele>
        <time>2018-11-11T12:23:17Z</time>
      </trkpt>
      <trkpt lat="48.67771" lon="1.81822">
        <ele>160</ele>
        <time>2018-11-11T12:23:20Z</time>
      </trkpt>
      <trkpt lat="48.67771" lon="1.81814">
        <ele>160</ele>
        <time>2018-11-11T12:23:25Z</time>
      </trkpt>
      <trkpt lat="48.67772" lon="1.81807">
        <ele>160</ele>
        <time>2018-11-11T12:23:29Z</time>
      </trkpt>
      <trkpt lat="48.67772" lon="1.81799">
        <ele>160</ele>
        <time>2018-11-11T12:23:33Z</time>
      </trkpt>
      <trkpt lat="48.67774" lon="1.81791">
        <ele>160</ele>
        <time>2018-11-11T12:23:38Z</time>
      </trkpt>
      <trkpt lat="48.67775" lon="1.8177">
        <ele>160</ele>
        <time>2018-11-11T12:23:52Z</time>
      </trkpt>
      <trkpt lat="48.67774" lon="1.81762">
        <ele>160</ele>
        <time>2018-11-11T12:23:56Z</time>
      </trkpt>
      <trkpt lat="48.67775" lon="1.81755">
        <ele>160</ele>
        <time>2018-11-11T12:24:01Z</time>
      </trkpt>
      <trkpt lat="48.67774" lon="1.81747">
        <ele>160</ele>
        <time>2018-11-11T12:24:06Z</time>
      </trkpt>
      <trkpt lat="48.67777" lon="1.81738">
        <ele>160</ele>
        <time>2018-11-11T12:24:13Z</time>
      </trkpt>
      <trkpt lat="48.67778" lon="1.81731">
        <ele>160</ele>
        <time>2018-11-11T12:24:18Z</time>
      </trkpt>
      <trkpt lat="48.67779" lon="1.81722">
        <ele>159</ele>
        <time>2018-11-11T12:25:22Z</time>
      </trkpt>
      <trkpt lat="48.6778" lon="1.81711">
        <ele>159</ele>
        <time>2018-11-11T12:26:01Z</time>
      </trkpt>
      <trkpt lat="48.67779" lon="1.81702">
        <ele>158</ele>
        <time>2018-11-11T12:26:19Z</time>
      </trkpt>
      <trkpt lat="48.6778" lon="1.81695">
        <ele>159</ele>
        <time>2018-11-11T12:26:31Z</time>
      </trkpt>
      <trkpt lat="48.67782" lon="1.81687">
        <ele>159</ele>
        <time>2018-11-11T12:26:36Z</time>
      </trkpt>
      <trkpt lat="48.67783" lon="1.81668">
        <ele>160</ele>
        <time>2018-11-11T12:26:49Z</time>
      </trkpt>
      <trkpt lat="48.67782" lon="1.81661">
        <ele>159</ele>
        <time>2018-11-11T12:26:54Z</time>
      </trkpt>
      <trkpt lat="48.6778" lon="1.81654">
        <ele>160</ele>
        <time>2018-11-11T12:26:59Z</time>
      </trkpt>
      <trkpt lat="48.67783" lon="1.81647">
        <ele>160</ele>
        <time>2018-11-11T12:27:04Z</time>
      </trkpt>
      <trkpt lat="48.67782" lon="1.81632">
        <ele>160</ele>
        <time>2018-11-11T12:27:12Z</time>
      </trkpt>
      <trkpt lat="48.67784" lon="1.81625">
        <ele>161</ele>
        <time>2018-11-11T12:27:16Z</time>
      </trkpt>
      <trkpt lat="48.67783" lon="1.81618">
        <ele>161</ele>
        <time>2018-11-11T12:27:20Z</time>
      </trkpt>
      <trkpt lat="48.67786" lon="1.81603">
        <ele>161</ele>
        <time>2018-11-11T12:27:28Z</time>
      </trkpt>
      <trkpt lat="48.67787" lon="1.81587">
        <ele>161</ele>
        <time>2018-11-11T12:27:38Z</time>
      </trkpt>
      <trkpt lat="48.67786" lon="1.81579">
        <ele>161</ele>
        <time>2018-11-11T12:27:42Z</time>
      </trkpt>
      <trkpt lat="48.67788" lon="1.81564">
        <ele>161</ele>
        <time>2018-11-11T12:27:50Z</time>
      </trkpt>
      <trkpt lat="48.67786" lon="1.81537">
        <ele>161</ele>
        <time>2018-11-11T12:28:07Z</time>
      </trkpt>
      <trkpt lat="48.67787" lon="1.81531">
        <ele>161</ele>
        <time>2018-11-11T12:28:11Z</time>
      </trkpt>
      <trkpt lat="48.67789" lon="1.81522">
        <ele>161</ele>
        <time>2018-11-11T12:28:19Z</time>
      </trkpt>
      <trkpt lat="48.67794" lon="1.81519">
        <ele>161</ele>
        <time>2018-11-11T12:28:24Z</time>
      </trkpt>
      <trkpt lat="48.67801" lon="1.81508">
        <ele>161</ele>
        <time>2018-11-11T12:28:33Z</time>
      </trkpt>
      <trkpt lat="48.67806" lon="1.81497">
        <ele>162</ele>
        <time>2018-11-11T12:28:40Z</time>
      </trkpt>
      <trkpt lat="48.67809" lon="1.8149">
        <ele>162</ele>
        <time>2018-11-11T12:28:44Z</time>
      </trkpt>
      <trkpt lat="48.67811" lon="1.8148">
        <ele>162</ele>
        <time>2018-11-11T12:28:51Z</time>
      </trkpt>
      <trkpt lat="48.67811" lon="1.81467">
        <ele>162</ele>
        <time>2018-11-11T12:28:58Z</time>
      </trkpt>
      <trkpt lat="48.67811" lon="1.81456">
        <ele>162</ele>
        <time>2018-11-11T12:29:05Z</time>
      </trkpt>
      <trkpt lat="48.67814" lon="1.8145">
        <ele>161</ele>
        <time>2018-11-11T12:29:10Z</time>
      </trkpt>
      <trkpt lat="48.67812" lon="1.81442">
        <ele>161</ele>
        <time>2018-11-11T12:29:22Z</time>
      </trkpt>
      <trkpt lat="48.67807" lon="1.81435">
        <ele>161</ele>
        <time>2018-11-11T12:29:33Z</time>
      </trkpt>
      <trkpt lat="48.67804" lon="1.81429">
        <ele>161</ele>
        <time>2018-11-11T12:30:03Z</time>
      </trkpt>
      <trkpt lat="48.67803" lon="1.81425">
        <ele>161</ele>
        <time>2018-11-11T12:31:58Z</time>
      </trkpt>
      <trkpt lat="48.67807" lon="1.81422">
        <ele>161</ele>
        <time>2018-11-11T12:32:03Z</time>
      </trkpt>
      <trkpt lat="48.67806" lon="1.81408">
        <ele>161</ele>
        <time>2018-11-11T12:32:18Z</time>
      </trkpt>
      <trkpt lat="48.67804" lon="1.81402">
        <ele>161</ele>
        <time>2018-11-11T12:32:28Z</time>
      </trkpt>
      <trkpt lat="48.678" lon="1.81404">
        <ele>161</ele>
        <time>2018-11-11T12:33:12Z</time>
      </trkpt>
      <trkpt lat="48.67797" lon="1.81394">
        <ele>178</ele>
        <time>2018-11-11T13:02:20Z</time>
      </trkpt>
      <trkpt lat="48.67797" lon="1.81394">
        <ele>178</ele>
        <time>2018-11-11T13:02:20Z</time>
      </trkpt>
      <trkpt lat="48.67797" lon="1.81401">
        <ele>178</ele>
        <time>2018-11-11T13:02:27Z</time>
      </trkpt>
      <trkpt lat="48.6779" lon="1.81406">
        <ele>177</ele>
        <time>2018-11-11T13:02:51Z</time>
      </trkpt>
      <trkpt lat="48.67785" lon="1.8141">
        <ele>176</ele>
        <time>2018-11-11T13:02:57Z</time>
      </trkpt>
      <trkpt lat="48.67778" lon="1.81413">
        <ele>175</ele>
        <time>2018-11-11T13:03:01Z</time>
      </trkpt>
      <trkpt lat="48.67772" lon="1.81426">
        <ele>174</ele>
        <time>2018-11-11T13:03:09Z</time>
      </trkpt>
      <trkpt lat="48.67762" lon="1.81461">
        <ele>174</ele>
        <time>2018-11-11T13:03:32Z</time>
      </trkpt>
      <trkpt lat="48.67759" lon="1.81466">
        <ele>174</ele>
        <time>2018-11-11T13:03:37Z</time>
      </trkpt>
      <trkpt lat="48.67751" lon="1.81467">
        <ele>174</ele>
        <time>2018-11-11T13:03:44Z</time>
      </trkpt>
      <trkpt lat="48.67742" lon="1.81459">
        <ele>175</ele>
        <time>2018-11-11T13:03:52Z</time>
      </trkpt>
      <trkpt lat="48.67737" lon="1.81458">
        <ele>175</ele>
        <time>2018-11-11T13:03:57Z</time>
      </trkpt>
      <trkpt lat="48.67731" lon="1.81457">
        <ele>175</ele>
        <time>2018-11-11T13:04:05Z</time>
      </trkpt>
      <trkpt lat="48.67728" lon="1.81451">
        <ele>175</ele>
        <time>2018-11-11T13:04:09Z</time>
      </trkpt>
      <trkpt lat="48.67724" lon="1.81446">
        <ele>175</ele>
        <time>2018-11-11T13:04:13Z</time>
      </trkpt>
      <trkpt lat="48.67706" lon="1.81426">
        <ele>175</ele>
        <time>2018-11-11T13:04:31Z</time>
      </trkpt>
      <trkpt lat="48.67695" lon="1.8142">
        <ele>176</ele>
        <time>2018-11-11T13:04:41Z</time>
      </trkpt>
      <trkpt lat="48.67674" lon="1.81394">
        <ele>178</ele>
        <time>2018-11-11T13:05:09Z</time>
      </trkpt>
      <trkpt lat="48.6767" lon="1.81391">
        <ele>178</ele>
        <time>2018-11-11T13:05:25Z</time>
      </trkpt>
      <trkpt lat="48.67665" lon="1.81394">
        <ele>179</ele>
        <time>2018-11-11T13:06:53Z</time>
      </trkpt>
      <trkpt lat="48.67655" lon="1.81396">
        <ele>179</ele>
        <time>2018-11-11T13:07:16Z</time>
      </trkpt>
      <trkpt lat="48.6765" lon="1.81395">
        <ele>179</ele>
        <time>2018-11-11T13:07:19Z</time>
      </trkpt>
      <trkpt lat="48.67645" lon="1.81392">
        <ele>180</ele>
        <time>2018-11-11T13:07:24Z</time>
      </trkpt>
      <trkpt lat="48.6764" lon="1.8139">
        <ele>180</ele>
        <time>2018-11-11T13:07:28Z</time>
      </trkpt>
      <trkpt lat="48.6763" lon="1.81392">
        <ele>181</ele>
        <time>2018-11-11T13:07:35Z</time>
      </trkpt>
      <trkpt lat="48.67625" lon="1.81394">
        <ele>181</ele>
        <time>2018-11-11T13:07:39Z</time>
      </trkpt>
      <trkpt lat="48.67604" lon="1.81396">
        <ele>181</ele>
        <time>2018-11-11T13:07:52Z</time>
      </trkpt>
      <trkpt lat="48.67594" lon="1.81398">
        <ele>181</ele>
        <time>2018-11-11T13:07:59Z</time>
      </trkpt>
      <trkpt lat="48.67589" lon="1.81397">
        <ele>181</ele>
        <time>2018-11-11T13:08:03Z</time>
      </trkpt>
      <trkpt lat="48.67578" lon="1.81399">
        <ele>181</ele>
        <time>2018-11-11T13:08:11Z</time>
      </trkpt>
      <trkpt lat="48.67574" lon="1.81401">
        <ele>181</ele>
        <time>2018-11-11T13:08:15Z</time>
      </trkpt>
      <trkpt lat="48.67568" lon="1.81401">
        <ele>181</ele>
        <time>2018-11-11T13:08:19Z</time>
      </trkpt>
      <trkpt lat="48.67537" lon="1.81408">
        <ele>181</ele>
        <time>2018-11-11T13:08:41Z</time>
      </trkpt>
      <trkpt lat="48.67531" lon="1.81407">
        <ele>181</ele>
        <time>2018-11-11T13:08:45Z</time>
      </trkpt>
      <trkpt lat="48.67527" lon="1.81404">
        <ele>181</ele>
        <time>2018-11-11T13:08:48Z</time>
      </trkpt>
      <trkpt lat="48.67522" lon="1.81402">
        <ele>182</ele>
        <time>2018-11-11T13:08:52Z</time>
      </trkpt>
      <trkpt lat="48.67517" lon="1.81396">
        <ele>181</ele>
        <time>2018-11-11T13:09:08Z</time>
      </trkpt>
      <trkpt lat="48.67518" lon="1.81383">
        <ele>182</ele>
        <time>2018-11-11T13:09:20Z</time>
      </trkpt>
      <trkpt lat="48.67515" lon="1.81368">
        <ele>182</ele>
        <time>2018-11-11T13:09:29Z</time>
      </trkpt>
      <trkpt lat="48.67513" lon="1.8136">
        <ele>182</ele>
        <time>2018-11-11T13:09:33Z</time>
      </trkpt>
      <trkpt lat="48.67512" lon="1.81352">
        <ele>183</ele>
        <time>2018-11-11T13:09:38Z</time>
      </trkpt>
      <trkpt lat="48.67513" lon="1.81345">
        <ele>183</ele>
        <time>2018-11-11T13:09:43Z</time>
      </trkpt>
      <trkpt lat="48.67514" lon="1.81337">
        <ele>183</ele>
        <time>2018-11-11T13:09:47Z</time>
      </trkpt>
      <trkpt lat="48.67508" lon="1.81308">
        <ele>182</ele>
        <time>2018-11-11T13:10:04Z</time>
      </trkpt>
      <trkpt lat="48.67504" lon="1.81281">
        <ele>183</ele>
        <time>2018-11-11T13:10:20Z</time>
      </trkpt>
      <trkpt lat="48.67503" lon="1.81268">
        <ele>183</ele>
        <time>2018-11-11T13:10:26Z</time>
      </trkpt>
      <trkpt lat="48.67504" lon="1.81261">
        <ele>183</ele>
        <time>2018-11-11T13:10:29Z</time>
      </trkpt>
      <trkpt lat="48.67498" lon="1.81239">
        <ele>183</ele>
        <time>2018-11-11T13:10:41Z</time>
      </trkpt>
      <trkpt lat="48.67497" lon="1.81225">
        <ele>182</ele>
        <time>2018-11-11T13:10:48Z</time>
      </trkpt>
      <trkpt lat="48.67497" lon="1.81218">
        <ele>182</ele>
        <time>2018-11-11T13:10:52Z</time>
      </trkpt>
      <trkpt lat="48.67493" lon="1.81187">
        <ele>182</ele>
        <time>2018-11-11T13:11:07Z</time>
      </trkpt>
      <trkpt lat="48.67494" lon="1.81179">
        <ele>182</ele>
        <time>2018-11-11T13:11:12Z</time>
      </trkpt>
      <trkpt lat="48.67493" lon="1.81171">
        <ele>182</ele>
        <time>2018-11-11T13:11:17Z</time>
      </trkpt>
      <trkpt lat="48.6749" lon="1.81162">
        <ele>182</ele>
        <time>2018-11-11T13:11:23Z</time>
      </trkpt>
      <trkpt lat="48.67487" lon="1.81147">
        <ele>182</ele>
        <time>2018-11-11T13:11:32Z</time>
      </trkpt>
      <trkpt lat="48.67488" lon="1.81132">
        <ele>182</ele>
        <time>2018-11-11T13:11:42Z</time>
      </trkpt>
      <trkpt lat="48.67485" lon="1.81118">
        <ele>182</ele>
        <time>2018-11-11T13:11:49Z</time>
      </trkpt>
      <trkpt lat="48.67484" lon="1.81103">
        <ele>182</ele>
        <time>2018-11-11T13:11:56Z</time>
      </trkpt>
      <trkpt lat="48.67485" lon="1.8109">
        <ele>182</ele>
        <time>2018-11-11T13:12:06Z</time>
      </trkpt>
      <trkpt lat="48.67483" lon="1.81073">
        <ele>182</ele>
        <time>2018-11-11T13:12:17Z</time>
      </trkpt>
      <trkpt lat="48.67484" lon="1.81059">
        <ele>182</ele>
        <time>2018-11-11T13:12:25Z</time>
      </trkpt>
      <trkpt lat="48.67484" lon="1.81044">
        <ele>182</ele>
        <time>2018-11-11T13:12:34Z</time>
      </trkpt>
      <trkpt lat="48.67477" lon="1.81016">
        <ele>181</ele>
        <time>2018-11-11T13:12:49Z</time>
      </trkpt>
      <trkpt lat="48.67475" lon="1.81002">
        <ele>182</ele>
        <time>2018-11-11T13:12:57Z</time>
      </trkpt>
      <trkpt lat="48.6747" lon="1.8099">
        <ele>182</ele>
        <time>2018-11-11T13:13:04Z</time>
      </trkpt>
      <trkpt lat="48.67468" lon="1.80974">
        <ele>182</ele>
        <time>2018-11-11T13:13:11Z</time>
      </trkpt>
      <trkpt lat="48.67467" lon="1.80945">
        <ele>182</ele>
        <time>2018-11-11T13:13:27Z</time>
      </trkpt>
      <trkpt lat="48.67457" lon="1.80906">
        <ele>181</ele>
        <time>2018-11-11T13:13:51Z</time>
      </trkpt>
      <trkpt lat="48.67459" lon="1.80878">
        <ele>181</ele>
        <time>2018-11-11T13:14:08Z</time>
      </trkpt>
      <trkpt lat="48.67456" lon="1.80848">
        <ele>180</ele>
        <time>2018-11-11T13:14:25Z</time>
      </trkpt>
      <trkpt lat="48.67455" lon="1.80818">
        <ele>180</ele>
        <time>2018-11-11T13:14:40Z</time>
      </trkpt>
      <trkpt lat="48.67452" lon="1.80804">
        <ele>179</ele>
        <time>2018-11-11T13:14:46Z</time>
      </trkpt>
      <trkpt lat="48.67449" lon="1.8079">
        <ele>180</ele>
        <time>2018-11-11T13:15:16Z</time>
      </trkpt>
      <trkpt lat="48.67434" lon="1.80789">
        <ele>180</ele>
        <time>2018-11-11T13:15:32Z</time>
      </trkpt>
      <trkpt lat="48.6743" lon="1.80791">
        <ele>180</ele>
        <time>2018-11-11T13:15:36Z</time>
      </trkpt>
      <trkpt lat="48.67428" lon="1.80798">
        <ele>180</ele>
        <time>2018-11-11T13:15:40Z</time>
      </trkpt>
      <trkpt lat="48.67423" lon="1.80799">
        <ele>180</ele>
        <time>2018-11-11T13:15:44Z</time>
      </trkpt>
      <trkpt lat="48.67418" lon="1.80798">
        <ele>180</ele>
        <time>2018-11-11T13:15:48Z</time>
      </trkpt>
      <trkpt lat="48.67403" lon="1.80804">
        <ele>180</ele>
        <time>2018-11-11T13:16:00Z</time>
      </trkpt>
      <trkpt lat="48.67399" lon="1.80806">
        <ele>180</ele>
        <time>2018-11-11T13:16:04Z</time>
      </trkpt>
      <trkpt lat="48.67365" lon="1.80819">
        <ele>179</ele>
        <time>2018-11-11T13:16:33Z</time>
      </trkpt>
      <trkpt lat="48.67354" lon="1.80823">
        <ele>179</ele>
        <time>2018-11-11T13:17:09Z</time>
      </trkpt>
      <trkpt lat="48.67346" lon="1.80827">
        <ele>179</ele>
        <time>2018-11-11T13:18:44Z</time>
      </trkpt>
      <trkpt lat="48.67341" lon="1.80828">
        <ele>179</ele>
        <time>2018-11-11T13:18:47Z</time>
      </trkpt>
      <trkpt lat="48.67337" lon="1.80831">
        <ele>179</ele>
        <time>2018-11-11T13:18:51Z</time>
      </trkpt>
      <trkpt lat="48.67327" lon="1.80836">
        <ele>179</ele>
        <time>2018-11-11T13:18:57Z</time>
      </trkpt>
      <trkpt lat="48.67322" lon="1.80839">
        <ele>178</ele>
        <time>2018-11-11T13:19:01Z</time>
      </trkpt>
      <trkpt lat="48.67317" lon="1.8084">
        <ele>178</ele>
        <time>2018-11-11T13:19:05Z</time>
      </trkpt>
      <trkpt lat="48.67306" lon="1.80842">
        <ele>178</ele>
        <time>2018-11-11T13:19:15Z</time>
      </trkpt>
      <trkpt lat="48.67271" lon="1.80856">
        <ele>176</ele>
        <time>2018-11-11T13:19:46Z</time>
      </trkpt>
      <trkpt lat="48.67261" lon="1.80858">
        <ele>175</ele>
        <time>2018-11-11T13:19:54Z</time>
      </trkpt>
      <trkpt lat="48.67247" lon="1.80868">
        <ele>174</ele>
        <time>2018-11-11T13:20:09Z</time>
      </trkpt>
      <trkpt lat="48.67223" lon="1.80877">
        <ele>173</ele>
        <time>2018-11-11T13:20:29Z</time>
      </trkpt>
      <trkpt lat="48.67213" lon="1.80883">
        <ele>173</ele>
        <time>2018-11-11T13:20:37Z</time>
      </trkpt>
      <trkpt lat="48.67207" lon="1.80885">
        <ele>173</ele>
        <time>2018-11-11T13:20:41Z</time>
      </trkpt>
      <trkpt lat="48.67202" lon="1.80888">
        <ele>172</ele>
        <time>2018-11-11T13:20:45Z</time>
      </trkpt>
      <trkpt lat="48.67192" lon="1.8089">
        <ele>172</ele>
        <time>2018-11-11T13:20:53Z</time>
      </trkpt>
      <trkpt lat="48.67161" lon="1.80902">
        <ele>173</ele>
        <time>2018-11-11T13:21:18Z</time>
      </trkpt>
      <trkpt lat="48.67152" lon="1.80904">
        <ele>173</ele>
        <time>2018-11-11T13:21:26Z</time>
      </trkpt>
      <trkpt lat="48.67147" lon="1.80907">
        <ele>173</ele>
        <time>2018-11-11T13:21:30Z</time>
      </trkpt>
      <trkpt lat="48.67131" lon="1.8091">
        <ele>174</ele>
        <time>2018-11-11T13:21:42Z</time>
      </trkpt>
      <trkpt lat="48.6712" lon="1.80916">
        <ele>175</ele>
        <time>2018-11-11T13:21:52Z</time>
      </trkpt>
      <trkpt lat="48.67111" lon="1.80923">
        <ele>176</ele>
        <time>2018-11-11T13:22:00Z</time>
      </trkpt>
      <trkpt lat="48.67106" lon="1.80924">
        <ele>176</ele>
        <time>2018-11-11T13:22:04Z</time>
      </trkpt>
      <trkpt lat="48.67092" lon="1.80931">
        <ele>176</ele>
        <time>2018-11-11T13:22:16Z</time>
      </trkpt>
      <trkpt lat="48.67081" lon="1.80938">
        <ele>175</ele>
        <time>2018-11-11T13:22:25Z</time>
      </trkpt>
      <trkpt lat="48.67076" lon="1.8094">
        <ele>175</ele>
        <time>2018-11-11T13:22:29Z</time>
      </trkpt>
      <trkpt lat="48.67057" lon="1.80949">
        <ele>175</ele>
        <time>2018-11-11T13:22:44Z</time>
      </trkpt>
      <trkpt lat="48.67046" lon="1.80949">
        <ele>175</ele>
        <time>2018-11-11T13:22:52Z</time>
      </trkpt>
      <trkpt lat="48.67032" lon="1.80957">
        <ele>175</ele>
        <time>2018-11-11T13:23:04Z</time>
      </trkpt>
      <trkpt lat="48.67027" lon="1.80958">
        <ele>175</ele>
        <time>2018-11-11T13:23:08Z</time>
      </trkpt>
      <trkpt lat="48.67001" lon="1.80968">
        <ele>175</ele>
        <time>2018-11-11T13:23:28Z</time>
      </trkpt>
      <trkpt lat="48.66991" lon="1.8097">
        <ele>174</ele>
        <time>2018-11-11T13:23:36Z</time>
      </trkpt>
      <trkpt lat="48.66986" lon="1.80972">
        <ele>174</ele>
        <time>2018-11-11T13:23:40Z</time>
      </trkpt>
      <trkpt lat="48.6698" lon="1.80973">
        <ele>174</ele>
        <time>2018-11-11T13:23:44Z</time>
      </trkpt>
      <trkpt lat="48.66976" lon="1.80975">
        <ele>175</ele>
        <time>2018-11-11T13:23:48Z</time>
      </trkpt>
      <trkpt lat="48.66967" lon="1.80981">
        <ele>175</ele>
        <time>2018-11-11T13:23:56Z</time>
      </trkpt>
      <trkpt lat="48.66958" lon="1.80985">
        <ele>175</ele>
        <time>2018-11-11T13:24:04Z</time>
      </trkpt>
      <trkpt lat="48.66949" lon="1.80994">
        <ele>176</ele>
        <time>2018-11-11T13:24:14Z</time>
      </trkpt>
      <trkpt lat="48.66945" lon="1.80998">
        <ele>176</ele>
        <time>2018-11-11T13:24:19Z</time>
      </trkpt>
      <trkpt lat="48.66936" lon="1.81005">
        <ele>176</ele>
        <time>2018-11-11T13:24:28Z</time>
      </trkpt>
      <trkpt lat="48.6693" lon="1.81007">
        <ele>176</ele>
        <time>2018-11-11T13:24:33Z</time>
      </trkpt>
      <trkpt lat="48.66926" lon="1.8101">
        <ele>176</ele>
        <time>2018-11-11T13:24:37Z</time>
      </trkpt>
      <trkpt lat="48.66913" lon="1.81026">
        <ele>176</ele>
        <time>2018-11-11T13:24:50Z</time>
      </trkpt>
      <trkpt lat="48.66903" lon="1.81032">
        <ele>176</ele>
        <time>2018-11-11T13:24:59Z</time>
      </trkpt>
      <trkpt lat="48.66894" lon="1.81037">
        <ele>176</ele>
        <time>2018-11-11T13:25:08Z</time>
      </trkpt>
      <trkpt lat="48.66884" lon="1.81046">
        <ele>176</ele>
        <time>2018-11-11T13:25:17Z</time>
      </trkpt>
      <trkpt lat="48.66872" lon="1.81063">
        <ele>176</ele>
        <time>2018-11-11T13:25:29Z</time>
      </trkpt>
      <trkpt lat="48.66868" lon="1.81067">
        <ele>176</ele>
        <time>2018-11-11T13:25:32Z</time>
      </trkpt>
      <trkpt lat="48.66864" lon="1.81071">
        <ele>176</ele>
        <time>2018-11-11T13:25:36Z</time>
      </trkpt>
      <trkpt lat="48.66847" lon="1.81087">
        <ele>175</ele>
        <time>2018-11-11T13:25:53Z</time>
      </trkpt>
      <trkpt lat="48.66834" lon="1.81102">
        <ele>175</ele>
        <time>2018-11-11T13:26:06Z</time>
      </trkpt>
      <trkpt lat="48.66829" lon="1.81106">
        <ele>175</ele>
        <time>2018-11-11T13:26:10Z</time>
      </trkpt>
      <trkpt lat="48.66824" lon="1.81109">
        <ele>175</ele>
        <time>2018-11-11T13:26:14Z</time>
      </trkpt>
      <trkpt lat="48.6682" lon="1.81114">
        <ele>176</ele>
        <time>2018-11-11T13:26:18Z</time>
      </trkpt>
      <trkpt lat="48.66817" lon="1.81119">
        <ele>175</ele>
        <time>2018-11-11T13:26:22Z</time>
      </trkpt>
      <trkpt lat="48.66783" lon="1.81154">
        <ele>175</ele>
        <time>2018-11-11T13:26:52Z</time>
      </trkpt>
      <trkpt lat="48.66769" lon="1.81162">
        <ele>175</ele>
        <time>2018-11-11T13:27:04Z</time>
      </trkpt>
      <trkpt lat="48.66733" lon="1.81199">
        <ele>175</ele>
        <time>2018-11-11T13:27:36Z</time>
      </trkpt>
      <trkpt lat="48.66721" lon="1.81212">
        <ele>175</ele>
        <time>2018-11-11T13:27:48Z</time>
      </trkpt>
      <trkpt lat="48.66717" lon="1.81216">
        <ele>174</ele>
        <time>2018-11-11T13:27:52Z</time>
      </trkpt>
      <trkpt lat="48.66712" lon="1.81221">
        <ele>174</ele>
        <time>2018-11-11T13:27:56Z</time>
      </trkpt>
      <trkpt lat="48.66703" lon="1.81227">
        <ele>175</ele>
        <time>2018-11-11T13:28:05Z</time>
      </trkpt>
      <trkpt lat="48.667" lon="1.81232">
        <ele>175</ele>
        <time>2018-11-11T13:28:09Z</time>
      </trkpt>
      <trkpt lat="48.66694" lon="1.81235">
        <ele>175</ele>
        <time>2018-11-11T13:28:13Z</time>
      </trkpt>
      <trkpt lat="48.66687" lon="1.81244">
        <ele>175</ele>
        <time>2018-11-11T13:28:21Z</time>
      </trkpt>
      <trkpt lat="48.66682" lon="1.81248">
        <ele>175</ele>
        <time>2018-11-11T13:28:24Z</time>
      </trkpt>
      <trkpt lat="48.66678" lon="1.81254">
        <ele>176</ele>
        <time>2018-11-11T13:28:28Z</time>
      </trkpt>
      <trkpt lat="48.66673" lon="1.81258">
        <ele>175</ele>
        <time>2018-11-11T13:28:32Z</time>
      </trkpt>
      <trkpt lat="48.66668" lon="1.8126">
        <ele>175</ele>
        <time>2018-11-11T13:28:36Z</time>
      </trkpt>
      <trkpt lat="48.66662" lon="1.8126">
        <ele>175</ele>
        <time>2018-11-11T13:28:39Z</time>
      </trkpt>
      <trkpt lat="48.66658" lon="1.81263">
        <ele>175</ele>
        <time>2018-11-11T13:28:42Z</time>
      </trkpt>
      <trkpt lat="48.66649" lon="1.8128">
        <ele>175</ele>
        <time>2018-11-11T13:28:52Z</time>
      </trkpt>
      <trkpt lat="48.6664" lon="1.81287">
        <ele>175</ele>
        <time>2018-11-11T13:29:01Z</time>
      </trkpt>
      <trkpt lat="48.66632" lon="1.81295">
        <ele>174</ele>
        <time>2018-11-11T13:29:09Z</time>
      </trkpt>
      <trkpt lat="48.66622" lon="1.81303">
        <ele>175</ele>
        <time>2018-11-11T13:29:17Z</time>
      </trkpt>
      <trkpt lat="48.66612" lon="1.81309">
        <ele>175</ele>
        <time>2018-11-11T13:29:25Z</time>
      </trkpt>
      <trkpt lat="48.66607" lon="1.8131">
        <ele>175</ele>
        <time>2018-11-11T13:29:29Z</time>
      </trkpt>
      <trkpt lat="48.66602" lon="1.81309">
        <ele>175</ele>
        <time>2018-11-11T13:29:33Z</time>
      </trkpt>
      <trkpt lat="48.66598" lon="1.81313">
        <ele>175</ele>
        <time>2018-11-11T13:29:37Z</time>
      </trkpt>
      <trkpt lat="48.66594" lon="1.8132">
        <ele>174</ele>
        <time>2018-11-11T13:29:41Z</time>
      </trkpt>
      <trkpt lat="48.66577" lon="1.81339">
        <ele>175</ele>
        <time>2018-11-11T13:29:57Z</time>
      </trkpt>
      <trkpt lat="48.66562" lon="1.81354">
        <ele>174</ele>
        <time>2018-11-11T13:30:12Z</time>
      </trkpt>
      <trkpt lat="48.66519" lon="1.81391">
        <ele>173</ele>
        <time>2018-11-11T13:30:49Z</time>
      </trkpt>
      <trkpt lat="48.66511" lon="1.81398">
        <ele>174</ele>
        <time>2018-11-11T13:30:56Z</time>
      </trkpt>
      <trkpt lat="48.66495" lon="1.81414">
        <ele>174</ele>
        <time>2018-11-11T13:31:12Z</time>
      </trkpt>
      <trkpt lat="48.66487" lon="1.81425">
        <ele>175</ele>
        <time>2018-11-11T13:31:19Z</time>
      </trkpt>
      <trkpt lat="48.66482" lon="1.8143">
        <ele>175</ele>
        <time>2018-11-11T13:31:23Z</time>
      </trkpt>
      <trkpt lat="48.66478" lon="1.81434">
        <ele>174</ele>
        <time>2018-11-11T13:31:27Z</time>
      </trkpt>
      <trkpt lat="48.66473" lon="1.81437">
        <ele>174</ele>
        <time>2018-11-11T13:31:31Z</time>
      </trkpt>
      <trkpt lat="48.66469" lon="1.81438">
        <ele>174</ele>
        <time>2018-11-11T13:31:36Z</time>
      </trkpt>
      <trkpt lat="48.66465" lon="1.81443">
        <ele>175</ele>
        <time>2018-11-11T13:31:40Z</time>
      </trkpt>
      <trkpt lat="48.6646" lon="1.81444">
        <ele>175</ele>
        <time>2018-11-11T13:31:44Z</time>
      </trkpt>
      <trkpt lat="48.66442" lon="1.81462">
        <ele>174</ele>
        <time>2018-11-11T13:32:00Z</time>
      </trkpt>
      <trkpt lat="48.66434" lon="1.81471">
        <ele>174</ele>
        <time>2018-11-11T13:32:08Z</time>
      </trkpt>
      <trkpt lat="48.66429" lon="1.81474">
        <ele>174</ele>
        <time>2018-11-11T13:32:13Z</time>
      </trkpt>
      <trkpt lat="48.66423" lon="1.81488">
        <ele>174</ele>
        <time>2018-11-11T13:32:21Z</time>
      </trkpt>
      <trkpt lat="48.66415" lon="1.81495">
        <ele>173</ele>
        <time>2018-11-11T13:32:29Z</time>
      </trkpt>
      <trkpt lat="48.6641" lon="1.815">
        <ele>174</ele>
        <time>2018-11-11T13:32:33Z</time>
      </trkpt>
      <trkpt lat="48.66391" lon="1.8151">
        <ele>174</ele>
        <time>2018-11-11T13:32:50Z</time>
      </trkpt>
      <trkpt lat="48.66387" lon="1.81515">
        <ele>175</ele>
        <time>2018-11-11T13:32:55Z</time>
      </trkpt>
      <trkpt lat="48.66383" lon="1.8152">
        <ele>175</ele>
        <time>2018-11-11T13:33:00Z</time>
      </trkpt>
      <trkpt lat="48.66375" lon="1.8153">
        <ele>174</ele>
        <time>2018-11-11T13:33:23Z</time>
      </trkpt>
      <trkpt lat="48.66371" lon="1.81524">
        <ele>174</ele>
        <time>2018-11-11T13:33:57Z</time>
      </trkpt>
      <trkpt lat="48.66368" lon="1.81531">
        <ele>172</ele>
        <time>2018-11-11T13:37:31Z</time>
      </trkpt>
      <trkpt lat="48.66363" lon="1.81535">
        <ele>171</ele>
        <time>2018-11-11T13:37:36Z</time>
      </trkpt>
      <trkpt lat="48.66356" lon="1.81536">
        <ele>171</ele>
        <time>2018-11-11T13:37:44Z</time>
      </trkpt>
      <trkpt lat="48.66351" lon="1.81538">
        <ele>172</ele>
        <time>2018-11-11T13:37:49Z</time>
      </trkpt>
      <trkpt lat="48.66335" lon="1.81542">
        <ele>171</ele>
        <time>2018-11-11T13:38:02Z</time>
      </trkpt>
      <trkpt lat="48.66325" lon="1.81543">
        <ele>171</ele>
        <time>2018-11-11T13:38:11Z</time>
      </trkpt>
      <trkpt lat="48.66321" lon="1.81546">
        <ele>171</ele>
        <time>2018-11-11T13:38:15Z</time>
      </trkpt>
      <trkpt lat="48.66292" lon="1.81547">
        <ele>170</ele>
        <time>2018-11-11T13:38:39Z</time>
      </trkpt>
      <trkpt lat="48.66288" lon="1.81549">
        <ele>170</ele>
        <time>2018-11-11T13:38:43Z</time>
      </trkpt>
      <trkpt lat="48.66272" lon="1.81547">
        <ele>170</ele>
        <time>2018-11-11T13:38:55Z</time>
      </trkpt>
      <trkpt lat="48.66247" lon="1.81547">
        <ele>169</ele>
        <time>2018-11-11T13:39:15Z</time>
      </trkpt>
      <trkpt lat="48.66231" lon="1.81554">
        <ele>169</ele>
        <time>2018-11-11T13:39:29Z</time>
      </trkpt>
      <trkpt lat="48.66226" lon="1.81551">
        <ele>169</ele>
        <time>2018-11-11T13:39:32Z</time>
      </trkpt>
      <trkpt lat="48.66205" lon="1.81555">
        <ele>168</ele>
        <time>2018-11-11T13:39:49Z</time>
      </trkpt>
      <trkpt lat="48.662" lon="1.81558">
        <ele>168</ele>
        <time>2018-11-11T13:39:54Z</time>
      </trkpt>
      <trkpt lat="48.6619" lon="1.81557">
        <ele>168</ele>
        <time>2018-11-11T13:40:03Z</time>
      </trkpt>
      <trkpt lat="48.66174" lon="1.81561">
        <ele>168</ele>
        <time>2018-11-11T13:40:15Z</time>
      </trkpt>
      <trkpt lat="48.6617" lon="1.81561">
        <ele>168</ele>
        <time>2018-11-11T13:40:18Z</time>
      </trkpt>
      <trkpt lat="48.66144" lon="1.81568">
        <ele>167</ele>
        <time>2018-11-11T13:40:38Z</time>
      </trkpt>
      <trkpt lat="48.66128" lon="1.81569">
        <ele>167</ele>
        <time>2018-11-11T13:40:50Z</time>
      </trkpt>
      <trkpt lat="48.66123" lon="1.81573">
        <ele>167</ele>
        <time>2018-11-11T13:40:54Z</time>
      </trkpt>
      <trkpt lat="48.66119" lon="1.81577">
        <ele>167</ele>
        <time>2018-11-11T13:40:59Z</time>
      </trkpt>
      <trkpt lat="48.66108" lon="1.81575">
        <ele>167</ele>
        <time>2018-11-11T13:41:08Z</time>
      </trkpt>
      <trkpt lat="48.66104" lon="1.81572">
        <ele>167</ele>
        <time>2018-11-11T13:41:12Z</time>
      </trkpt>
      <trkpt lat="48.66099" lon="1.81572">
        <ele>167</ele>
        <time>2018-11-11T13:41:17Z</time>
      </trkpt>
      <trkpt lat="48.66094" lon="1.81573">
        <ele>166</ele>
        <time>2018-11-11T13:41:21Z</time>
      </trkpt>
      <trkpt lat="48.66084" lon="1.81575">
        <ele>166</ele>
        <time>2018-11-11T13:41:29Z</time>
      </trkpt>
      <trkpt lat="48.66073" lon="1.81573">
        <ele>166</ele>
        <time>2018-11-11T13:41:39Z</time>
      </trkpt>
      <trkpt lat="48.66068" lon="1.81574">
        <ele>166</ele>
        <time>2018-11-11T13:41:43Z</time>
      </trkpt>
      <trkpt lat="48.66052" lon="1.81576">
        <ele>165</ele>
        <time>2018-11-11T13:41:55Z</time>
      </trkpt>
      <trkpt lat="48.66043" lon="1.81577">
        <ele>165</ele>
        <time>2018-11-11T13:42:03Z</time>
      </trkpt>
      <trkpt lat="48.66038" lon="1.81578">
        <ele>166</ele>
        <time>2018-11-11T13:42:07Z</time>
      </trkpt>
      <trkpt lat="48.65999" lon="1.81583">
        <ele>165</ele>
        <time>2018-11-11T13:42:40Z</time>
      </trkpt>
      <trkpt lat="48.65978" lon="1.81589">
        <ele>165</ele>
        <time>2018-11-11T13:42:56Z</time>
      </trkpt>
      <trkpt lat="48.65968" lon="1.81588">
        <ele>165</ele>
        <time>2018-11-11T13:43:04Z</time>
      </trkpt>
      <trkpt lat="48.65958" lon="1.81591">
        <ele>164</ele>
        <time>2018-11-11T13:43:13Z</time>
      </trkpt>
      <trkpt lat="48.65942" lon="1.81591">
        <ele>162</ele>
        <time>2018-11-11T13:43:25Z</time>
      </trkpt>
      <trkpt lat="48.65937" lon="1.81591">
        <ele>163</ele>
        <time>2018-11-11T13:43:29Z</time>
      </trkpt>
      <trkpt lat="48.65933" lon="1.81592">
        <ele>163</ele>
        <time>2018-11-11T13:43:33Z</time>
      </trkpt>
      <trkpt lat="48.65922" lon="1.81593">
        <ele>162</ele>
        <time>2018-11-11T13:43:42Z</time>
      </trkpt>
      <trkpt lat="48.65917" lon="1.81593">
        <ele>162</ele>
        <time>2018-11-11T13:43:46Z</time>
      </trkpt>
      <trkpt lat="48.65908" lon="1.81596">
        <ele>161</ele>
        <time>2018-11-11T13:43:54Z</time>
      </trkpt>
      <trkpt lat="48.65898" lon="1.81596">
        <ele>160</ele>
        <time>2018-11-11T13:44:02Z</time>
      </trkpt>
      <trkpt lat="48.65893" lon="1.81598">
        <ele>160</ele>
        <time>2018-11-11T13:44:06Z</time>
      </trkpt>
      <trkpt lat="48.65888" lon="1.816">
        <ele>160</ele>
        <time>2018-11-11T13:44:10Z</time>
      </trkpt>
      <trkpt lat="48.65883" lon="1.81601">
        <ele>160</ele>
        <time>2018-11-11T13:44:14Z</time>
      </trkpt>
      <trkpt lat="48.65867" lon="1.816">
        <ele>159</ele>
        <time>2018-11-11T13:44:27Z</time>
      </trkpt>
      <trkpt lat="48.65863" lon="1.81603">
        <ele>159</ele>
        <time>2018-11-11T13:44:31Z</time>
      </trkpt>
      <trkpt lat="48.65822" lon="1.81601">
        <ele>156</ele>
        <time>2018-11-11T13:45:03Z</time>
      </trkpt>
      <trkpt lat="48.65781" lon="1.8161">
        <ele>153</ele>
        <time>2018-11-11T13:45:36Z</time>
      </trkpt>
      <trkpt lat="48.65766" lon="1.81612">
        <ele>153</ele>
        <time>2018-11-11T13:45:48Z</time>
      </trkpt>
      <trkpt lat="48.65754" lon="1.81616">
        <ele>153</ele>
        <time>2018-11-11T13:45:59Z</time>
      </trkpt>
      <trkpt lat="48.65748" lon="1.81617">
        <ele>153</ele>
        <time>2018-11-11T13:46:03Z</time>
      </trkpt>
      <trkpt lat="48.65737" lon="1.81618">
        <ele>154</ele>
        <time>2018-11-11T13:46:11Z</time>
      </trkpt>
      <trkpt lat="48.65733" lon="1.81616">
        <ele>153</ele>
        <time>2018-11-11T13:46:16Z</time>
      </trkpt>
      <trkpt lat="48.65727" lon="1.81616">
        <ele>153</ele>
        <time>2018-11-11T13:46:21Z</time>
      </trkpt>
      <trkpt lat="48.65723" lon="1.81618">
        <ele>153</ele>
        <time>2018-11-11T13:46:25Z</time>
      </trkpt>
      <trkpt lat="48.65718" lon="1.81619">
        <ele>154</ele>
        <time>2018-11-11T13:46:30Z</time>
      </trkpt>
      <trkpt lat="48.65683" lon="1.81627">
        <ele>154</ele>
        <time>2018-11-11T13:46:59Z</time>
      </trkpt>
      <trkpt lat="48.65673" lon="1.81625">
        <ele>154</ele>
        <time>2018-11-11T13:47:07Z</time>
      </trkpt>
      <trkpt lat="48.65657" lon="1.81624">
        <ele>156</ele>
        <time>2018-11-11T13:47:19Z</time>
      </trkpt>
      <trkpt lat="48.65616" lon="1.81628">
        <ele>157</ele>
        <time>2018-11-11T13:47:54Z</time>
      </trkpt>
      <trkpt lat="48.65593" lon="1.81634">
        <ele>158</ele>
        <time>2018-11-11T13:48:13Z</time>
      </trkpt>
      <trkpt lat="48.65562" lon="1.81634">
        <ele>159</ele>
        <time>2018-11-11T13:48:36Z</time>
      </trkpt>
      <trkpt lat="48.65558" lon="1.81631">
        <ele>159</ele>
        <time>2018-11-11T13:48:40Z</time>
      </trkpt>
      <trkpt lat="48.65532" lon="1.81633">
        <ele>161</ele>
        <time>2018-11-11T13:49:00Z</time>
      </trkpt>
      <trkpt lat="48.65522" lon="1.81637">
        <ele>161</ele>
        <time>2018-11-11T13:49:08Z</time>
      </trkpt>
      <trkpt lat="48.65482" lon="1.8164">
        <ele>162</ele>
        <time>2018-11-11T13:49:40Z</time>
      </trkpt>
      <trkpt lat="48.65455" lon="1.81645">
        <ele>161</ele>
        <time>2018-11-11T13:49:58Z</time>
      </trkpt>
      <trkpt lat="48.6545" lon="1.81646">
        <ele>161</ele>
        <time>2018-11-11T13:50:02Z</time>
      </trkpt>
      <trkpt lat="48.65436" lon="1.81646">
        <ele>160</ele>
        <time>2018-11-11T13:50:14Z</time>
      </trkpt>
      <trkpt lat="48.65431" lon="1.81646">
        <ele>160</ele>
        <time>2018-11-11T13:50:18Z</time>
      </trkpt>
      <trkpt lat="48.6539" lon="1.81652">
        <ele>159</ele>
        <time>2018-11-11T13:50:48Z</time>
      </trkpt>
      <trkpt lat="48.65379" lon="1.81654">
        <ele>158</ele>
        <time>2018-11-11T13:50:56Z</time>
      </trkpt>
      <trkpt lat="48.65369" lon="1.81655">
        <ele>158</ele>
        <time>2018-11-11T13:51:03Z</time>
      </trkpt>
      <trkpt lat="48.65327" lon="1.8166">
        <ele>157</ele>
        <time>2018-11-11T13:51:35Z</time>
      </trkpt>
      <trkpt lat="48.65286" lon="1.81668">
        <ele>156</ele>
        <time>2018-11-11T13:52:06Z</time>
      </trkpt>
      <trkpt lat="48.65246" lon="1.81671">
        <ele>154</ele>
        <time>2018-11-11T13:52:37Z</time>
      </trkpt>
      <trkpt lat="48.65241" lon="1.81672">
        <ele>153</ele>
        <time>2018-11-11T13:52:41Z</time>
      </trkpt>
      <trkpt lat="48.65226" lon="1.81671">
        <ele>153</ele>
        <time>2018-11-11T13:52:53Z</time>
      </trkpt>
      <trkpt lat="48.6521" lon="1.81672">
        <ele>152</ele>
        <time>2018-11-11T13:53:06Z</time>
      </trkpt>
      <trkpt lat="48.65195" lon="1.81675">
        <ele>152</ele>
        <time>2018-11-11T13:53:18Z</time>
      </trkpt>
      <trkpt lat="48.65185" lon="1.81682">
        <ele>153</ele>
        <time>2018-11-11T13:53:28Z</time>
      </trkpt>
      <trkpt lat="48.65157" lon="1.81684">
        <ele>151</ele>
        <time>2018-11-11T13:53:47Z</time>
      </trkpt>
      <trkpt lat="48.65146" lon="1.81683">
        <ele>152</ele>
        <time>2018-11-11T13:53:56Z</time>
      </trkpt>
      <trkpt lat="48.65137" lon="1.81683">
        <ele>151</ele>
        <time>2018-11-11T13:54:05Z</time>
      </trkpt>
      <trkpt lat="48.65132" lon="1.81684">
        <ele>151</ele>
        <time>2018-11-11T13:54:09Z</time>
      </trkpt>
      <trkpt lat="48.65121" lon="1.81686">
        <ele>151</ele>
        <time>2018-11-11T13:54:17Z</time>
      </trkpt>
      <trkpt lat="48.65116" lon="1.81685">
        <ele>151</ele>
        <time>2018-11-11T13:54:21Z</time>
      </trkpt>
      <trkpt lat="48.6511" lon="1.81686">
        <ele>151</ele>
        <time>2018-11-11T13:54:25Z</time>
      </trkpt>
      <trkpt lat="48.65106" lon="1.81688">
        <ele>151</ele>
        <time>2018-11-11T13:54:36Z</time>
      </trkpt>
      <trkpt lat="48.65095" lon="1.81691">
        <ele>150</ele>
        <time>2018-11-11T13:54:46Z</time>
      </trkpt>
      <trkpt lat="48.65092" lon="1.81686">
        <ele>150</ele>
        <time>2018-11-11T13:54:51Z</time>
      </trkpt>
      <trkpt lat="48.6509" lon="1.81679">
        <ele>150</ele>
        <time>2018-11-11T13:54:55Z</time>
      </trkpt>
      <trkpt lat="48.6509" lon="1.81671">
        <ele>150</ele>
        <time>2018-11-11T13:54:59Z</time>
      </trkpt>
      <trkpt lat="48.65082" lon="1.81653">
        <ele>149</ele>
        <time>2018-11-11T13:55:16Z</time>
      </trkpt>
      <trkpt lat="48.65072" lon="1.81647">
        <ele>148</ele>
        <time>2018-11-11T13:55:24Z</time>
      </trkpt>
      <trkpt lat="48.65063" lon="1.81643">
        <ele>148</ele>
        <time>2018-11-11T13:55:32Z</time>
      </trkpt>
      <trkpt lat="48.65048" lon="1.81634">
        <ele>147</ele>
        <time>2018-11-11T13:55:44Z</time>
      </trkpt>
      <trkpt lat="48.65044" lon="1.81628">
        <ele>147</ele>
        <time>2018-11-11T13:55:48Z</time>
      </trkpt>
      <trkpt lat="48.65041" lon="1.81623">
        <ele>147</ele>
        <time>2018-11-11T13:55:52Z</time>
      </trkpt>
      <trkpt lat="48.65035" lon="1.81613">
        <ele>147</ele>
        <time>2018-11-11T13:56:00Z</time>
      </trkpt>
      <trkpt lat="48.65032" lon="1.81606">
        <ele>148</ele>
        <time>2018-11-11T13:56:04Z</time>
      </trkpt>
      <trkpt lat="48.65026" lon="1.816">
        <ele>148</ele>
        <time>2018-11-11T13:56:12Z</time>
      </trkpt>
      <trkpt lat="48.64996" lon="1.81562">
        <ele>147</ele>
        <time>2018-11-11T13:56:45Z</time>
      </trkpt>
      <trkpt lat="48.64988" lon="1.81551">
        <ele>148</ele>
        <time>2018-11-11T13:56:53Z</time>
      </trkpt>
      <trkpt lat="48.64985" lon="1.81545">
        <ele>147</ele>
        <time>2018-11-11T13:56:57Z</time>
      </trkpt>
      <trkpt lat="48.64977" lon="1.81536">
        <ele>147</ele>
        <time>2018-11-11T13:57:04Z</time>
      </trkpt>
      <trkpt lat="48.64949" lon="1.815">
        <ele>146</ele>
        <time>2018-11-11T13:57:30Z</time>
      </trkpt>
      <trkpt lat="48.64937" lon="1.81484">
        <ele>146</ele>
        <time>2018-11-11T13:57:42Z</time>
      </trkpt>
      <trkpt lat="48.64906" lon="1.81446">
        <ele>147</ele>
        <time>2018-11-11T13:58:13Z</time>
      </trkpt>
      <trkpt lat="48.64894" lon="1.81431">
        <ele>146</ele>
        <time>2018-11-11T13:58:24Z</time>
      </trkpt>
      <trkpt lat="48.6487" lon="1.81402">
        <ele>147</ele>
        <time>2018-11-11T13:58:48Z</time>
      </trkpt>
      <trkpt lat="48.64832" lon="1.8135">
        <ele>147</ele>
        <time>2018-11-11T13:59:22Z</time>
      </trkpt>
      <trkpt lat="48.6482" lon="1.81334">
        <ele>147</ele>
        <time>2018-11-11T13:59:35Z</time>
      </trkpt>
      <trkpt lat="48.64812" lon="1.81324">
        <ele>148</ele>
        <time>2018-11-11T13:59:43Z</time>
      </trkpt>
      <trkpt lat="48.64808" lon="1.81321">
        <ele>148</ele>
        <time>2018-11-11T13:59:47Z</time>
      </trkpt>
      <trkpt lat="48.64803" lon="1.81314">
        <ele>148</ele>
        <time>2018-11-11T13:59:53Z</time>
      </trkpt>
      <trkpt lat="48.64805" lon="1.81274">
        <ele>149</ele>
        <time>2018-11-11T14:00:13Z</time>
      </trkpt>
      <trkpt lat="48.64803" lon="1.81227">
        <ele>151</ele>
        <time>2018-11-11T14:00:41Z</time>
      </trkpt>
      <trkpt lat="48.64807" lon="1.8122">
        <ele>151</ele>
        <time>2018-11-11T14:00:45Z</time>
      </trkpt>
      <trkpt lat="48.64808" lon="1.81212">
        <ele>151</ele>
        <time>2018-11-11T14:00:49Z</time>
      </trkpt>
      <trkpt lat="48.64806" lon="1.81155">
        <ele>153</ele>
        <time>2018-11-11T14:01:24Z</time>
      </trkpt>
      <trkpt lat="48.64806" lon="1.81136">
        <ele>154</ele>
        <time>2018-11-11T14:01:37Z</time>
      </trkpt>
      <trkpt lat="48.64807" lon="1.81119">
        <ele>155</ele>
        <time>2018-11-11T14:01:47Z</time>
      </trkpt>
      <trkpt lat="48.64807" lon="1.81088">
        <ele>156</ele>
        <time>2018-11-11T14:02:07Z</time>
      </trkpt>
      <trkpt lat="48.64805" lon="1.81065">
        <ele>157</ele>
        <time>2018-11-11T14:02:21Z</time>
      </trkpt>
      <trkpt lat="48.64804" lon="1.81042">
        <ele>158</ele>
        <time>2018-11-11T14:02:33Z</time>
      </trkpt>
      <trkpt lat="48.64806" lon="1.81028">
        <ele>158</ele>
        <time>2018-11-11T14:02:42Z</time>
      </trkpt>
      <trkpt lat="48.64807" lon="1.81018">
        <ele>158</ele>
        <time>2018-11-11T14:02:49Z</time>
      </trkpt>
      <trkpt lat="48.64805" lon="1.80987">
        <ele>158</ele>
        <time>2018-11-11T14:03:05Z</time>
      </trkpt>
      <trkpt lat="48.64806" lon="1.8098">
        <ele>158</ele>
        <time>2018-11-11T14:03:09Z</time>
      </trkpt>
      <trkpt lat="48.64804" lon="1.80926">
        <ele>158</ele>
        <time>2018-11-11T14:03:43Z</time>
      </trkpt>
      <trkpt lat="48.64804" lon="1.80913">
        <ele>158</ele>
        <time>2018-11-11T14:03:52Z</time>
      </trkpt>
      <trkpt lat="48.64804" lon="1.80898">
        <ele>158</ele>
        <time>2018-11-11T14:04:00Z</time>
      </trkpt>
      <trkpt lat="48.64804" lon="1.80869">
        <ele>160</ele>
        <time>2018-11-11T14:04:17Z</time>
      </trkpt>
      <trkpt lat="48.64803" lon="1.80847">
        <ele>160</ele>
        <time>2018-11-11T14:04:31Z</time>
      </trkpt>
      <trkpt lat="48.64799" lon="1.80785">
        <ele>162</ele>
        <time>2018-11-11T14:05:05Z</time>
      </trkpt>
      <trkpt lat="48.64798" lon="1.80753">
        <ele>162</ele>
        <time>2018-11-11T14:05:21Z</time>
      </trkpt>
      <trkpt lat="48.64799" lon="1.80745">
        <ele>162</ele>
        <time>2018-11-11T14:05:26Z</time>
      </trkpt>
      <trkpt lat="48.64798" lon="1.80695">
        <ele>163</ele>
        <time>2018-11-11T14:05:54Z</time>
      </trkpt>
      <trkpt lat="48.648" lon="1.80678">
        <ele>162</ele>
        <time>2018-11-11T14:06:03Z</time>
      </trkpt>
      <trkpt lat="48.64796" lon="1.80616">
        <ele>162</ele>
        <time>2018-11-11T14:06:35Z</time>
      </trkpt>
      <trkpt lat="48.64794" lon="1.80608">
        <ele>162</ele>
        <time>2018-11-11T14:06:39Z</time>
      </trkpt>
      <trkpt lat="48.64795" lon="1.80583">
        <ele>163</ele>
        <time>2018-11-11T14:06:53Z</time>
      </trkpt>
      <trkpt lat="48.64795" lon="1.80576">
        <ele>162</ele>
        <time>2018-11-11T14:06:57Z</time>
      </trkpt>
      <trkpt lat="48.64794" lon="1.80567">
        <ele>163</ele>
        <time>2018-11-11T14:07:01Z</time>
      </trkpt>
      <trkpt lat="48.64794" lon="1.8056">
        <ele>163</ele>
        <time>2018-11-11T14:07:05Z</time>
      </trkpt>
      <trkpt lat="48.64792" lon="1.8052">
        <ele>163</ele>
        <time>2018-11-11T14:07:25Z</time>
      </trkpt>
      <trkpt lat="48.64786" lon="1.80518">
        <ele>163</ele>
        <time>2018-11-11T14:07:31Z</time>
      </trkpt>
      <trkpt lat="48.64785" lon="1.80509">
        <ele>163</ele>
        <time>2018-11-11T14:07:41Z</time>
      </trkpt>
      <trkpt lat="48.64787" lon="1.80499">
        <ele>163</ele>
        <time>2018-11-11T14:07:47Z</time>
      </trkpt>
      <trkpt lat="48.64787" lon="1.8049">
        <ele>163</ele>
        <time>2018-11-11T14:07:51Z</time>
      </trkpt>
      <trkpt lat="48.64789" lon="1.80475">
        <ele>163</ele>
        <time>2018-11-11T14:08:00Z</time>
      </trkpt>
      <trkpt lat="48.64789" lon="1.80467">
        <ele>163</ele>
        <time>2018-11-11T14:08:04Z</time>
      </trkpt>
      <trkpt lat="48.64787" lon="1.80452">
        <ele>162</ele>
        <time>2018-11-11T14:08:12Z</time>
      </trkpt>
      <trkpt lat="48.64788" lon="1.80444">
        <ele>162</ele>
        <time>2018-11-11T14:08:17Z</time>
      </trkpt>
      <trkpt lat="48.64789" lon="1.80436">
        <ele>162</ele>
        <time>2018-11-11T14:08:21Z</time>
      </trkpt>
      <trkpt lat="48.64788" lon="1.80421">
        <ele>162</ele>
        <time>2018-11-11T14:08:29Z</time>
      </trkpt>
      <trkpt lat="48.64787" lon="1.80414">
        <ele>162</ele>
        <time>2018-11-11T14:08:33Z</time>
      </trkpt>
      <trkpt lat="48.64786" lon="1.80407">
        <ele>162</ele>
        <time>2018-11-11T14:08:38Z</time>
      </trkpt>
      <trkpt lat="48.64785" lon="1.80399">
        <ele>162</ele>
        <time>2018-11-11T14:08:42Z</time>
      </trkpt>
      <trkpt lat="48.64785" lon="1.80392">
        <ele>162</ele>
        <time>2018-11-11T14:08:46Z</time>
      </trkpt>
      <trkpt lat="48.64786" lon="1.80382">
        <ele>162</ele>
        <time>2018-11-11T14:08:53Z</time>
      </trkpt>
      <trkpt lat="48.64787" lon="1.80365">
        <ele>162</ele>
        <time>2018-11-11T14:09:05Z</time>
      </trkpt>
      <trkpt lat="48.64787" lon="1.80357">
        <ele>162</ele>
        <time>2018-11-11T14:09:09Z</time>
      </trkpt>
      <trkpt lat="48.64786" lon="1.80334">
        <ele>162</ele>
        <time>2018-11-11T14:09:21Z</time>
      </trkpt>
      <trkpt lat="48.64784" lon="1.8031">
        <ele>162</ele>
        <time>2018-11-11T14:09:33Z</time>
      </trkpt>
      <trkpt lat="48.64783" lon="1.80294">
        <ele>162</ele>
        <time>2018-11-11T14:09:41Z</time>
      </trkpt>
      <trkpt lat="48.64784" lon="1.80273">
        <ele>162</ele>
        <time>2018-11-11T14:09:54Z</time>
      </trkpt>
      <trkpt lat="48.64785" lon="1.80266">
        <ele>162</ele>
        <time>2018-11-11T14:09:58Z</time>
      </trkpt>
      <trkpt lat="48.64785" lon="1.80259">
        <ele>162</ele>
        <time>2018-11-11T14:10:02Z</time>
      </trkpt>
      <trkpt lat="48.64786" lon="1.80245">
        <ele>161</ele>
        <time>2018-11-11T14:10:10Z</time>
      </trkpt>
      <trkpt lat="48.64785" lon="1.80237">
        <ele>161</ele>
        <time>2018-11-11T14:10:14Z</time>
      </trkpt>
      <trkpt lat="48.64784" lon="1.80222">
        <ele>162</ele>
        <time>2018-11-11T14:10:21Z</time>
      </trkpt>
      <trkpt lat="48.64783" lon="1.80214">
        <ele>163</ele>
        <time>2018-11-11T14:10:25Z</time>
      </trkpt>
      <trkpt lat="48.64782" lon="1.80194">
        <ele>162</ele>
        <time>2018-11-11T14:10:35Z</time>
      </trkpt>
      <trkpt lat="48.64785" lon="1.80172">
        <ele>162</ele>
        <time>2018-11-11T14:10:49Z</time>
      </trkpt>
      <trkpt lat="48.64783" lon="1.80156">
        <ele>161</ele>
        <time>2018-11-11T14:10:57Z</time>
      </trkpt>
      <trkpt lat="48.64781" lon="1.80133">
        <ele>162</ele>
        <time>2018-11-11T14:11:12Z</time>
      </trkpt>
      <trkpt lat="48.6478" lon="1.80126">
        <ele>162</ele>
        <time>2018-11-11T14:11:16Z</time>
      </trkpt>
      <trkpt lat="48.64764" lon="1.80108">
        <ele>162</ele>
        <time>2018-11-11T14:11:32Z</time>
      </trkpt>
      <trkpt lat="48.64759" lon="1.80105">
        <ele>162</ele>
        <time>2018-11-11T14:11:36Z</time>
      </trkpt>
      <trkpt lat="48.64737" lon="1.80085">
        <ele>162</ele>
        <time>2018-11-11T14:11:57Z</time>
      </trkpt>
      <trkpt lat="48.64733" lon="1.80082">
        <ele>162</ele>
        <time>2018-11-11T14:12:01Z</time>
      </trkpt>
      <trkpt lat="48.64725" lon="1.80073">
        <ele>162</ele>
        <time>2018-11-11T14:12:09Z</time>
      </trkpt>
      <trkpt lat="48.64716" lon="1.80065">
        <ele>163</ele>
        <time>2018-11-11T14:12:20Z</time>
      </trkpt>
      <trkpt lat="48.64712" lon="1.80061">
        <ele>163</ele>
        <time>2018-11-11T14:12:24Z</time>
      </trkpt>
      <trkpt lat="48.64703" lon="1.80048">
        <ele>163</ele>
        <time>2018-11-11T14:12:36Z</time>
      </trkpt>
      <trkpt lat="48.64682" lon="1.80026">
        <ele>163</ele>
        <time>2018-11-11T14:12:57Z</time>
      </trkpt>
      <trkpt lat="48.64678" lon="1.80022">
        <ele>163</ele>
        <time>2018-11-11T14:13:02Z</time>
      </trkpt>
      <trkpt lat="48.64667" lon="1.80007">
        <ele>163</ele>
        <time>2018-11-11T14:13:17Z</time>
      </trkpt>
      <trkpt lat="48.64662" lon="1.80004">
        <ele>164</ele>
        <time>2018-11-11T14:13:29Z</time>
      </trkpt>
      <trkpt lat="48.64659" lon="1.79998">
        <ele>164</ele>
        <time>2018-11-11T14:13:34Z</time>
      </trkpt>
      <trkpt lat="48.64657" lon="1.79993">
        <ele>164</ele>
        <time>2018-11-11T14:13:42Z</time>
      </trkpt>
      <trkpt lat="48.64662" lon="1.79987">
        <ele>165</ele>
        <time>2018-11-11T14:14:51Z</time>
      </trkpt>
      <trkpt lat="48.64664" lon="1.79976">
        <ele>166</ele>
        <time>2018-11-11T14:15:02Z</time>
      </trkpt>
      <trkpt lat="48.64664" lon="1.79969">
        <ele>166</ele>
        <time>2018-11-11T14:15:08Z</time>
      </trkpt>
      <trkpt lat="48.6465" lon="1.79953">
        <ele>166</ele>
        <time>2018-11-11T14:15:29Z</time>
      </trkpt>
      <trkpt lat="48.64646" lon="1.79949">
        <ele>166</ele>
        <time>2018-11-11T14:15:34Z</time>
      </trkpt>
      <trkpt lat="48.64641" lon="1.79949">
        <ele>167</ele>
        <time>2018-11-11T14:16:05Z</time>
      </trkpt>
      <trkpt lat="48.64639" lon="1.79943">
        <ele>168</ele>
        <time>2018-11-11T14:16:55Z</time>
      </trkpt>
      <trkpt lat="48.64636" lon="1.79936">
        <ele>167</ele>
        <time>2018-11-11T14:17:07Z</time>
      </trkpt>
      <trkpt lat="48.6463" lon="1.79932">
        <ele>167</ele>
        <time>2018-11-11T14:18:00Z</time>
      </trkpt>
      <trkpt lat="48.64622" lon="1.79926">
        <ele>167</ele>
        <time>2018-11-11T14:18:21Z</time>
      </trkpt>
      <trkpt lat="48.64617" lon="1.79923">
        <ele>166</ele>
        <time>2018-11-11T14:18:26Z</time>
      </trkpt>
      <trkpt lat="48.64608" lon="1.79909">
        <ele>167</ele>
        <time>2018-11-11T14:18:57Z</time>
      </trkpt>
      <trkpt lat="48.64605" lon="1.79881">
        <ele>168</ele>
        <time>2018-11-11T14:19:17Z</time>
      </trkpt>
      <trkpt lat="48.646" lon="1.79882">
        <ele>167</ele>
        <time>2018-11-11T14:19:49Z</time>
      </trkpt>
      <trkpt lat="48.64611" lon="1.79879">
        <ele>167</ele>
        <time>2018-11-11T14:20:21Z</time>
      </trkpt>
      <trkpt lat="48.64611" lon="1.79866">
        <ele>167</ele>
        <time>2018-11-11T14:20:45Z</time>
      </trkpt>
      <trkpt lat="48.6462" lon="1.79862">
        <ele>167</ele>
        <time>2018-11-11T14:21:10Z</time>
      </trkpt>
      <trkpt lat="48.64623" lon="1.79856">
        <ele>167</ele>
        <time>2018-11-11T14:21:14Z</time>
      </trkpt>
      <trkpt lat="48.64628" lon="1.79843">
        <ele>166</ele>
        <time>2018-11-11T14:21:23Z</time>
      </trkpt>
      <trkpt lat="48.64631" lon="1.79838">
        <ele>166</ele>
        <time>2018-11-11T14:21:27Z</time>
      </trkpt>
      <trkpt lat="48.64637" lon="1.79825">
        <ele>166</ele>
        <time>2018-11-11T14:21:39Z</time>
      </trkpt>
      <trkpt lat="48.64642" lon="1.7982">
        <ele>166</ele>
        <time>2018-11-11T14:21:43Z</time>
      </trkpt>
      <trkpt lat="48.64645" lon="1.79805">
        <ele>166</ele>
        <time>2018-11-11T14:21:53Z</time>
      </trkpt>
      <trkpt lat="48.64649" lon="1.79802">
        <ele>166</ele>
        <time>2018-11-11T14:22:03Z</time>
      </trkpt>
      <trkpt lat="48.64657" lon="1.79802">
        <ele>166</ele>
        <time>2018-11-11T14:22:21Z</time>
      </trkpt>
      <trkpt lat="48.64662" lon="1.79801">
        <ele>166</ele>
        <time>2018-11-11T14:22:26Z</time>
      </trkpt>
      <trkpt lat="48.64668" lon="1.7981">
        <ele>166</ele>
        <time>2018-11-11T14:22:37Z</time>
      </trkpt>
      <trkpt lat="48.64672" lon="1.79814">
        <ele>166</ele>
        <time>2018-11-11T14:22:44Z</time>
      </trkpt>
      <trkpt lat="48.64672" lon="1.79822">
        <ele>166</ele>
        <time>2018-11-11T14:23:04Z</time>
      </trkpt>
      <trkpt lat="48.6467" lon="1.7983">
        <ele>166</ele>
        <time>2018-11-11T14:23:12Z</time>
      </trkpt>
      <trkpt lat="48.64666" lon="1.79837">
        <ele>166</ele>
        <time>2018-11-11T14:24:02Z</time>
      </trkpt>
      <trkpt lat="48.64664" lon="1.79845">
        <ele>166</ele>
        <time>2018-11-11T14:24:14Z</time>
      </trkpt>
      <trkpt lat="48.6466" lon="1.79849">
        <ele>166</ele>
        <time>2018-11-11T14:24:38Z</time>
      </trkpt>
      <trkpt lat="48.64653" lon="1.79871">
        <ele>165</ele>
        <time>2018-11-11T14:25:06Z</time>
      </trkpt>
      <trkpt lat="48.64655" lon="1.79882">
        <ele>165</ele>
        <time>2018-11-11T14:25:14Z</time>
      </trkpt>
      <trkpt lat="48.64652" lon="1.79891">
        <ele>165</ele>
        <time>2018-11-11T14:25:27Z</time>
      </trkpt>
      <trkpt lat="48.64649" lon="1.79898">
        <ele>164</ele>
        <time>2018-11-11T14:25:39Z</time>
      </trkpt>
      <trkpt lat="48.64649" lon="1.79905">
        <ele>165</ele>
        <time>2018-11-11T14:25:51Z</time>
      </trkpt>
      <trkpt lat="48.64652" lon="1.79911">
        <ele>165</ele>
        <time>2018-11-11T14:26:03Z</time>
      </trkpt>
      <trkpt lat="48.64655" lon="1.79917">
        <ele>164</ele>
        <time>2018-11-11T14:26:21Z</time>
      </trkpt>
      <trkpt lat="48.64651" lon="1.79945">
        <ele>166</ele>
        <time>2018-11-11T14:55:14Z</time>
      </trkpt>
      <trkpt lat="48.64651" lon="1.79953">
        <ele>166</ele>
        <time>2018-11-11T14:55:18Z</time>
      </trkpt>
      <trkpt lat="48.64654" lon="1.79959">
        <ele>166</ele>
        <time>2018-11-11T14:55:22Z</time>
      </trkpt>
      <trkpt lat="48.64661" lon="1.79968">
        <ele>165</ele>
        <time>2018-11-11T14:55:31Z</time>
      </trkpt>
      <trkpt lat="48.64662" lon="1.79975">
        <ele>165</ele>
        <time>2018-11-11T14:55:38Z</time>
      </trkpt>
      <trkpt lat="48.64658" lon="1.7998">
        <ele>165</ele>
        <time>2018-11-11T14:55:43Z</time>
      </trkpt>
      <trkpt lat="48.64654" lon="1.79994">
        <ele>164</ele>
        <time>2018-11-11T14:55:53Z</time>
      </trkpt>
      <trkpt lat="48.64656" lon="1.80002">
        <ele>164</ele>
        <time>2018-11-11T14:55:57Z</time>
      </trkpt>
      <trkpt lat="48.64665" lon="1.80012">
        <ele>164</ele>
        <time>2018-11-11T14:56:07Z</time>
      </trkpt>
      <trkpt lat="48.64674" lon="1.8002">
        <ele>164</ele>
        <time>2018-11-11T14:56:15Z</time>
      </trkpt>
      <trkpt lat="48.64675" lon="1.80027">
        <ele>164</ele>
        <time>2018-11-11T14:56:25Z</time>
      </trkpt>
      <trkpt lat="48.6468" lon="1.8003">
        <ele>164</ele>
        <time>2018-11-11T14:56:50Z</time>
      </trkpt>
      <trkpt lat="48.64692" lon="1.80046">
        <ele>164</ele>
        <time>2018-11-11T14:57:06Z</time>
      </trkpt>
      <trkpt lat="48.64697" lon="1.80051">
        <ele>163</ele>
        <time>2018-11-11T14:57:11Z</time>
      </trkpt>
      <trkpt lat="48.64708" lon="1.80061">
        <ele>163</ele>
        <time>2018-11-11T14:57:26Z</time>
      </trkpt>
      <trkpt lat="48.64716" lon="1.8007">
        <ele>163</ele>
        <time>2018-11-11T14:57:34Z</time>
      </trkpt>
      <trkpt lat="48.6472" lon="1.80074">
        <ele>163</ele>
        <time>2018-11-11T14:57:38Z</time>
      </trkpt>
      <trkpt lat="48.64747" lon="1.80108">
        <ele>163</ele>
        <time>2018-11-11T14:58:10Z</time>
      </trkpt>
      <trkpt lat="48.64751" lon="1.80113">
        <ele>163</ele>
        <time>2018-11-11T14:58:14Z</time>
      </trkpt>
      <trkpt lat="48.64753" lon="1.8012">
        <ele>163</ele>
        <time>2018-11-11T14:58:19Z</time>
      </trkpt>
      <trkpt lat="48.64754" lon="1.80128">
        <ele>162</ele>
        <time>2018-11-11T14:58:24Z</time>
      </trkpt>
      <trkpt lat="48.6473" lon="1.80175">
        <ele>161</ele>
        <time>2018-11-11T14:58:56Z</time>
      </trkpt>
      <trkpt lat="48.64724" lon="1.80191">
        <ele>160</ele>
        <time>2018-11-11T14:59:07Z</time>
      </trkpt>
      <trkpt lat="48.6472" lon="1.80196">
        <ele>160</ele>
        <time>2018-11-11T14:59:11Z</time>
      </trkpt>
      <trkpt lat="48.64717" lon="1.80203">
        <ele>159</ele>
        <time>2018-11-11T14:59:17Z</time>
      </trkpt>
      <trkpt lat="48.64714" lon="1.80208">
        <ele>159</ele>
        <time>2018-11-11T14:59:20Z</time>
      </trkpt>
      <trkpt lat="48.64711" lon="1.80216">
        <ele>160</ele>
        <time>2018-11-11T14:59:24Z</time>
      </trkpt>
      <trkpt lat="48.64709" lon="1.80223">
        <ele>160</ele>
        <time>2018-11-11T14:59:28Z</time>
      </trkpt>
      <trkpt lat="48.64702" lon="1.80245">
        <ele>159</ele>
        <time>2018-11-11T14:59:42Z</time>
      </trkpt>
      <trkpt lat="48.64699" lon="1.80251">
        <ele>159</ele>
        <time>2018-11-11T14:59:47Z</time>
      </trkpt>
      <trkpt lat="48.64695" lon="1.80257">
        <ele>160</ele>
        <time>2018-11-11T14:59:51Z</time>
      </trkpt>
      <trkpt lat="48.64672" lon="1.80306">
        <ele>158</ele>
        <time>2018-11-11T15:00:23Z</time>
      </trkpt>
      <trkpt lat="48.64669" lon="1.80312">
        <ele>158</ele>
        <time>2018-11-11T15:00:26Z</time>
      </trkpt>
      <trkpt lat="48.64662" lon="1.80322">
        <ele>158</ele>
        <time>2018-11-11T15:00:32Z</time>
      </trkpt>
      <trkpt lat="48.64659" lon="1.80328">
        <ele>157</ele>
        <time>2018-11-11T15:00:36Z</time>
      </trkpt>
      <trkpt lat="48.64657" lon="1.80336">
        <ele>157</ele>
        <time>2018-11-11T15:00:41Z</time>
      </trkpt>
      <trkpt lat="48.64632" lon="1.80388">
        <ele>154</ele>
        <time>2018-11-11T15:01:16Z</time>
      </trkpt>
      <trkpt lat="48.64629" lon="1.80395">
        <ele>154</ele>
        <time>2018-11-11T15:01:21Z</time>
      </trkpt>
      <trkpt lat="48.64625" lon="1.80409">
        <ele>152</ele>
        <time>2018-11-11T15:01:30Z</time>
      </trkpt>
      <trkpt lat="48.64623" lon="1.80417">
        <ele>152</ele>
        <time>2018-11-11T15:01:34Z</time>
      </trkpt>
      <trkpt lat="48.64604" lon="1.80454">
        <ele>150</ele>
        <time>2018-11-11T15:01:59Z</time>
      </trkpt>
      <trkpt lat="48.64599" lon="1.80469">
        <ele>149</ele>
        <time>2018-11-11T15:02:07Z</time>
      </trkpt>
      <trkpt lat="48.6458" lon="1.805">
        <ele>148</ele>
        <time>2018-11-11T15:02:27Z</time>
      </trkpt>
      <trkpt lat="48.64577" lon="1.80507">
        <ele>148</ele>
        <time>2018-11-11T15:02:31Z</time>
      </trkpt>
      <trkpt lat="48.64552" lon="1.80563">
        <ele>146</ele>
        <time>2018-11-11T15:03:05Z</time>
      </trkpt>
      <trkpt lat="48.64548" lon="1.8057">
        <ele>146</ele>
        <time>2018-11-11T15:03:10Z</time>
      </trkpt>
      <trkpt lat="48.64545" lon="1.80577">
        <ele>147</ele>
        <time>2018-11-11T15:03:14Z</time>
      </trkpt>
      <trkpt lat="48.64531" lon="1.80608">
        <ele>146</ele>
        <time>2018-11-11T15:03:34Z</time>
      </trkpt>
      <trkpt lat="48.64528" lon="1.80613">
        <ele>146</ele>
        <time>2018-11-11T15:03:38Z</time>
      </trkpt>
      <trkpt lat="48.64505" lon="1.80662">
        <ele>145</ele>
        <time>2018-11-11T15:04:08Z</time>
      </trkpt>
      <trkpt lat="48.64502" lon="1.80669">
        <ele>146</ele>
        <time>2018-11-11T15:04:12Z</time>
      </trkpt>
      <trkpt lat="48.64491" lon="1.80698">
        <ele>145</ele>
        <time>2018-11-11T15:04:29Z</time>
      </trkpt>
      <trkpt lat="48.64486" lon="1.80712">
        <ele>145</ele>
        <time>2018-11-11T15:04:37Z</time>
      </trkpt>
      <trkpt lat="48.6448" lon="1.80733">
        <ele>144</ele>
        <time>2018-11-11T15:04:51Z</time>
      </trkpt>
      <trkpt lat="48.64479" lon="1.80747">
        <ele>144</ele>
        <time>2018-11-11T15:04:59Z</time>
      </trkpt>
      <trkpt lat="48.64473" lon="1.8077">
        <ele>143</ele>
        <time>2018-11-11T15:05:14Z</time>
      </trkpt>
      <trkpt lat="48.64462" lon="1.80788">
        <ele>143</ele>
        <time>2018-11-11T15:05:25Z</time>
      </trkpt>
      <trkpt lat="48.64458" lon="1.80801">
        <ele>143</ele>
        <time>2018-11-11T15:05:32Z</time>
      </trkpt>
      <trkpt lat="48.64426" lon="1.80858">
        <ele>143</ele>
        <time>2018-11-11T15:06:05Z</time>
      </trkpt>
      <trkpt lat="48.644" lon="1.80905">
        <ele>144</ele>
        <time>2018-11-11T15:06:36Z</time>
      </trkpt>
      <trkpt lat="48.64376" lon="1.8095">
        <ele>144</ele>
        <time>2018-11-11T15:07:07Z</time>
      </trkpt>
      <trkpt lat="48.64367" lon="1.80978">
        <ele>144</ele>
        <time>2018-11-11T15:07:26Z</time>
      </trkpt>
      <trkpt lat="48.64344" lon="1.81024">
        <ele>144</ele>
        <time>2018-11-11T15:07:57Z</time>
      </trkpt>
      <trkpt lat="48.64339" lon="1.81037">
        <ele>143</ele>
        <time>2018-11-11T15:08:03Z</time>
      </trkpt>
      <trkpt lat="48.64332" lon="1.8105">
        <ele>143</ele>
        <time>2018-11-11T15:08:10Z</time>
      </trkpt>
      <trkpt lat="48.64318" lon="1.81083">
        <ele>143</ele>
        <time>2018-11-11T15:08:34Z</time>
      </trkpt>
      <trkpt lat="48.64296" lon="1.81126">
        <ele>144</ele>
        <time>2018-11-11T15:09:01Z</time>
      </trkpt>
      <trkpt lat="48.64289" lon="1.81141">
        <ele>143</ele>
        <time>2018-11-11T15:09:12Z</time>
      </trkpt>
      <trkpt lat="48.64274" lon="1.81171">
        <ele>143</ele>
        <time>2018-11-11T15:09:30Z</time>
      </trkpt>
      <trkpt lat="48.64271" lon="1.8118">
        <ele>144</ele>
        <time>2018-11-11T15:09:37Z</time>
      </trkpt>
      <trkpt lat="48.64261" lon="1.81199">
        <ele>144</ele>
        <time>2018-11-11T15:09:51Z</time>
      </trkpt>
      <trkpt lat="48.64258" lon="1.81205">
        <ele>144</ele>
        <time>2018-11-11T15:09:55Z</time>
      </trkpt>
      <trkpt lat="48.64254" lon="1.81212">
        <ele>144</ele>
        <time>2018-11-11T15:10:00Z</time>
      </trkpt>
      <trkpt lat="48.64241" lon="1.81244">
        <ele>144</ele>
        <time>2018-11-11T15:10:18Z</time>
      </trkpt>
      <trkpt lat="48.64235" lon="1.81251">
        <ele>144</ele>
        <time>2018-11-11T15:10:25Z</time>
      </trkpt>
      <trkpt lat="48.64216" lon="1.81299">
        <ele>144</ele>
        <time>2018-11-11T15:10:56Z</time>
      </trkpt>
      <trkpt lat="48.64213" lon="1.81305">
        <ele>144</ele>
        <time>2018-11-11T15:11:00Z</time>
      </trkpt>
      <trkpt lat="48.64202" lon="1.81322">
        <ele>145</ele>
        <time>2018-11-11T15:11:10Z</time>
      </trkpt>
      <trkpt lat="48.64198" lon="1.81326">
        <ele>145</ele>
        <time>2018-11-11T15:11:13Z</time>
      </trkpt>
      <trkpt lat="48.64189" lon="1.81333">
        <ele>145</ele>
        <time>2018-11-11T15:11:21Z</time>
      </trkpt>
      <trkpt lat="48.64159" lon="1.8134">
        <ele>145</ele>
        <time>2018-11-11T15:11:44Z</time>
      </trkpt>
      <trkpt lat="48.64154" lon="1.81343">
        <ele>145</ele>
        <time>2018-11-11T15:11:48Z</time>
      </trkpt>
      <trkpt lat="48.6415" lon="1.81346">
        <ele>145</ele>
        <time>2018-11-11T15:11:52Z</time>
      </trkpt>
      <trkpt lat="48.64146" lon="1.81352">
        <ele>145</ele>
        <time>2018-11-11T15:11:57Z</time>
      </trkpt>
      <trkpt lat="48.64143" lon="1.81369">
        <ele>145</ele>
        <time>2018-11-11T15:12:09Z</time>
      </trkpt>
      <trkpt lat="48.64143" lon="1.81377">
        <ele>145</ele>
        <time>2018-11-11T15:12:14Z</time>
      </trkpt>
      <trkpt lat="48.64142" lon="1.81393">
        <ele>146</ele>
        <time>2018-11-11T15:12:23Z</time>
      </trkpt>
      <trkpt lat="48.64147" lon="1.81437">
        <ele>146</ele>
        <time>2018-11-11T15:12:48Z</time>
      </trkpt>
      <trkpt lat="48.64145" lon="1.81445">
        <ele>146</ele>
        <time>2018-11-11T15:12:53Z</time>
      </trkpt>
      <trkpt lat="48.6414" lon="1.81457">
        <ele>145</ele>
        <time>2018-11-11T15:13:03Z</time>
      </trkpt>
      <trkpt lat="48.64136" lon="1.81463">
        <ele>145</ele>
        <time>2018-11-11T15:13:08Z</time>
      </trkpt>
      <trkpt lat="48.64134" lon="1.81469">
        <ele>145</ele>
        <time>2018-11-11T15:13:12Z</time>
      </trkpt>
      <trkpt lat="48.64119" lon="1.81495">
        <ele>145</ele>
        <time>2018-11-11T15:13:32Z</time>
      </trkpt>
      <trkpt lat="48.64111" lon="1.81517">
        <ele>145</ele>
        <time>2018-11-11T15:13:45Z</time>
      </trkpt>
      <trkpt lat="48.64098" lon="1.81541">
        <ele>145</ele>
        <time>2018-11-11T15:13:59Z</time>
      </trkpt>
      <trkpt lat="48.64086" lon="1.81573">
        <ele>146</ele>
        <time>2018-11-11T15:14:19Z</time>
      </trkpt>
      <trkpt lat="48.64074" lon="1.81597">
        <ele>146</ele>
        <time>2018-11-11T15:14:32Z</time>
      </trkpt>
      <trkpt lat="48.64066" lon="1.81617">
        <ele>146</ele>
        <time>2018-11-11T15:14:46Z</time>
      </trkpt>
      <trkpt lat="48.64042" lon="1.8167">
        <ele>146</ele>
        <time>2018-11-11T15:15:21Z</time>
      </trkpt>
      <trkpt lat="48.64035" lon="1.8169">
        <ele>146</ele>
        <time>2018-11-11T15:15:31Z</time>
      </trkpt>
      <trkpt lat="48.64014" lon="1.81738">
        <ele>146</ele>
        <time>2018-11-11T15:16:01Z</time>
      </trkpt>
      <trkpt lat="48.64012" lon="1.81745">
        <ele>146</ele>
        <time>2018-11-11T15:16:06Z</time>
      </trkpt>
      <trkpt lat="48.63997" lon="1.81768">
        <ele>146</ele>
        <time>2018-11-11T15:16:24Z</time>
      </trkpt>
      <trkpt lat="48.63992" lon="1.81781">
        <ele>146</ele>
        <time>2018-11-11T15:16:30Z</time>
      </trkpt>
      <trkpt lat="48.63997" lon="1.81785">
        <ele>146</ele>
        <time>2018-11-11T15:16:35Z</time>
      </trkpt>
      <trkpt lat="48.6401" lon="1.81799">
        <ele>146</ele>
        <time>2018-11-11T15:16:46Z</time>
      </trkpt>
      <trkpt lat="48.6402" lon="1.81817">
        <ele>146</ele>
        <time>2018-11-11T15:16:57Z</time>
      </trkpt>
      <trkpt lat="48.64022" lon="1.81824">
        <ele>146</ele>
        <time>2018-11-11T15:17:02Z</time>
      </trkpt>
      <trkpt lat="48.64026" lon="1.81829">
        <ele>146</ele>
        <time>2018-11-11T15:17:07Z</time>
      </trkpt>
      <trkpt lat="48.64056" lon="1.81869">
        <ele>146</ele>
        <time>2018-11-11T15:17:39Z</time>
      </trkpt>
      <trkpt lat="48.64066" lon="1.81881">
        <ele>146</ele>
        <time>2018-11-11T15:17:51Z</time>
      </trkpt>
      <trkpt lat="48.64075" lon="1.81891">
        <ele>145</ele>
        <time>2018-11-11T15:17:59Z</time>
      </trkpt>
      <trkpt lat="48.64079" lon="1.81896">
        <ele>145</ele>
        <time>2018-11-11T15:18:03Z</time>
      </trkpt>
      <trkpt lat="48.64081" lon="1.81903">
        <ele>146</ele>
        <time>2018-11-11T15:18:07Z</time>
      </trkpt>
      <trkpt lat="48.64093" lon="1.81916">
        <ele>146</ele>
        <time>2018-11-11T15:18:19Z</time>
      </trkpt>
      <trkpt lat="48.64105" lon="1.81929">
        <ele>146</ele>
        <time>2018-11-11T15:18:30Z</time>
      </trkpt>
      <trkpt lat="48.64114" lon="1.81937">
        <ele>146</ele>
        <time>2018-11-11T15:18:39Z</time>
      </trkpt>
      <trkpt lat="48.64126" lon="1.81951">
        <ele>146</ele>
        <time>2018-11-11T15:18:52Z</time>
      </trkpt>
      <trkpt lat="48.64133" lon="1.81965">
        <ele>146</ele>
        <time>2018-11-11T15:19:02Z</time>
      </trkpt>
      <trkpt lat="48.64145" lon="1.81978">
        <ele>146</ele>
        <time>2018-11-11T15:19:13Z</time>
      </trkpt>
      <trkpt lat="48.64151" lon="1.81991">
        <ele>146</ele>
        <time>2018-11-11T15:19:22Z</time>
      </trkpt>
      <trkpt lat="48.64182" lon="1.82032">
        <ele>146</ele>
        <time>2018-11-11T15:19:57Z</time>
      </trkpt>
      <trkpt lat="48.64207" lon="1.82067">
        <ele>145</ele>
        <time>2018-11-11T15:20:28Z</time>
      </trkpt>
      <trkpt lat="48.64216" lon="1.82077">
        <ele>145</ele>
        <time>2018-11-11T15:20:36Z</time>
      </trkpt>
      <trkpt lat="48.64234" lon="1.82105">
        <ele>146</ele>
        <time>2018-11-11T15:20:57Z</time>
      </trkpt>
      <trkpt lat="48.64235" lon="1.82113">
        <ele>146</ele>
        <time>2018-11-11T15:21:01Z</time>
      </trkpt>
      <trkpt lat="48.64232" lon="1.82128">
        <ele>146</ele>
        <time>2018-11-11T15:21:09Z</time>
      </trkpt>
      <trkpt lat="48.6423" lon="1.82136">
        <ele>146</ele>
        <time>2018-11-11T15:21:17Z</time>
      </trkpt>
      <trkpt lat="48.64227" lon="1.82142">
        <ele>146</ele>
        <time>2018-11-11T15:21:21Z</time>
      </trkpt>
      <trkpt lat="48.64217" lon="1.8216">
        <ele>146</ele>
        <time>2018-11-11T15:21:31Z</time>
      </trkpt>
      <trkpt lat="48.64211" lon="1.82182">
        <ele>146</ele>
        <time>2018-11-11T15:21:42Z</time>
      </trkpt>
      <trkpt lat="48.6421" lon="1.8219">
        <ele>146</ele>
        <time>2018-11-11T15:21:46Z</time>
      </trkpt>
      <trkpt lat="48.64212" lon="1.82196">
        <ele>146</ele>
        <time>2018-11-11T15:21:50Z</time>
      </trkpt>
      <trkpt lat="48.64213" lon="1.82205">
        <ele>146</ele>
        <time>2018-11-11T15:21:55Z</time>
      </trkpt>
      <trkpt lat="48.64213" lon="1.82213">
        <ele>146</ele>
        <time>2018-11-11T15:22:00Z</time>
      </trkpt>
      <trkpt lat="48.6421" lon="1.82223">
        <ele>146</ele>
        <time>2018-11-11T15:22:08Z</time>
      </trkpt>
      <trkpt lat="48.64202" lon="1.82235">
        <ele>147</ele>
        <time>2018-11-11T15:22:16Z</time>
      </trkpt>
      <trkpt lat="48.64199" lon="1.82241">
        <ele>147</ele>
        <time>2018-11-11T15:22:21Z</time>
      </trkpt>
      <trkpt lat="48.64193" lon="1.82256">
        <ele>147</ele>
        <time>2018-11-11T15:22:31Z</time>
      </trkpt>
      <trkpt lat="48.64168" lon="1.8231">
        <ele>147</ele>
        <time>2018-11-11T15:23:02Z</time>
      </trkpt>
      <trkpt lat="48.64151" lon="1.82362">
        <ele>148</ele>
        <time>2018-11-11T15:23:30Z</time>
      </trkpt>
      <trkpt lat="48.64148" lon="1.82367">
        <ele>148</ele>
        <time>2018-11-11T15:23:33Z</time>
      </trkpt>
      <trkpt lat="48.64144" lon="1.8239">
        <ele>148</ele>
        <time>2018-11-11T15:23:46Z</time>
      </trkpt>
      <trkpt lat="48.64144" lon="1.82405">
        <ele>148</ele>
        <time>2018-11-11T15:23:55Z</time>
      </trkpt>
      <trkpt lat="48.64146" lon="1.82414">
        <ele>148</ele>
        <time>2018-11-11T15:24:01Z</time>
      </trkpt>
      <trkpt lat="48.64146" lon="1.82421">
        <ele>148</ele>
        <time>2018-11-11T15:24:06Z</time>
      </trkpt>
      <trkpt lat="48.64149" lon="1.82436">
        <ele>148</ele>
        <time>2018-11-11T15:24:14Z</time>
      </trkpt>
      <trkpt lat="48.64152" lon="1.82443">
        <ele>148</ele>
        <time>2018-11-11T15:24:18Z</time>
      </trkpt>
      <trkpt lat="48.64153" lon="1.82451">
        <ele>148</ele>
        <time>2018-11-11T15:24:22Z</time>
      </trkpt>
      <trkpt lat="48.64156" lon="1.82458">
        <ele>148</ele>
        <time>2018-11-11T15:24:26Z</time>
      </trkpt>
      <trkpt lat="48.64165" lon="1.82471">
        <ele>148</ele>
        <time>2018-11-11T15:24:36Z</time>
      </trkpt>
      <trkpt lat="48.64174" lon="1.82489">
        <ele>148</ele>
        <time>2018-11-11T15:24:47Z</time>
      </trkpt>
      <trkpt lat="48.64178" lon="1.82494">
        <ele>148</ele>
        <time>2018-11-11T15:24:51Z</time>
      </trkpt>
      <trkpt lat="48.64182" lon="1.82497">
        <ele>148</ele>
        <time>2018-11-11T15:24:55Z</time>
      </trkpt>
      <trkpt lat="48.64192" lon="1.82501">
        <ele>148</ele>
        <time>2018-11-11T15:25:03Z</time>
      </trkpt>
      <trkpt lat="48.64197" lon="1.82503">
        <ele>147</ele>
        <time>2018-11-11T15:25:07Z</time>
      </trkpt>
      <trkpt lat="48.64202" lon="1.82505">
        <ele>147</ele>
        <time>2018-11-11T15:25:11Z</time>
      </trkpt>
      <trkpt lat="48.64217" lon="1.82505">
        <ele>147</ele>
        <time>2018-11-11T15:25:23Z</time>
      </trkpt>
      <trkpt lat="48.64227" lon="1.825">
        <ele>147</ele>
        <time>2018-11-11T15:25:32Z</time>
      </trkpt>
      <trkpt lat="48.64242" lon="1.82489">
        <ele>147</ele>
        <time>2018-11-11T15:25:46Z</time>
      </trkpt>
      <trkpt lat="48.6425" lon="1.82481">
        <ele>146</ele>
        <time>2018-11-11T15:25:53Z</time>
      </trkpt>
      <trkpt lat="48.64255" lon="1.82478">
        <ele>146</ele>
        <time>2018-11-11T15:25:56Z</time>
      </trkpt>
      <trkpt lat="48.6426" lon="1.82478">
        <ele>147</ele>
        <time>2018-11-11T15:26:00Z</time>
      </trkpt>
      <trkpt lat="48.64277" lon="1.82502">
        <ele>148</ele>
        <time>2018-11-11T15:26:20Z</time>
      </trkpt>
      <trkpt lat="48.6428" lon="1.82509">
        <ele>148</ele>
        <time>2018-11-11T15:26:24Z</time>
      </trkpt>
      <trkpt lat="48.64284" lon="1.82539">
        <ele>149</ele>
        <time>2018-11-11T15:26:40Z</time>
      </trkpt>
      <trkpt lat="48.64287" lon="1.82544">
        <ele>149</ele>
        <time>2018-11-11T15:26:43Z</time>
      </trkpt>
      <trkpt lat="48.64291" lon="1.82555">
        <ele>150</ele>
        <time>2018-11-11T15:26:53Z</time>
      </trkpt>
      <trkpt lat="48.64291" lon="1.82563">
        <ele>149</ele>
        <time>2018-11-11T15:26:57Z</time>
      </trkpt>
      <trkpt lat="48.64286" lon="1.82564">
        <ele>149</ele>
        <time>2018-11-11T15:27:17Z</time>
      </trkpt>
      <trkpt lat="48.6429" lon="1.82571">
        <ele>149</ele>
        <time>2018-11-11T15:27:20Z</time>
      </trkpt>
      <trkpt lat="48.64291" lon="1.82579">
        <ele>149</ele>
        <time>2018-11-11T15:27:24Z</time>
      </trkpt>
      <trkpt lat="48.64291" lon="1.82587">
        <ele>149</ele>
        <time>2018-11-11T15:27:27Z</time>
      </trkpt>
      <trkpt lat="48.64292" lon="1.82593">
        <ele>149</ele>
        <time>2018-11-11T15:27:32Z</time>
      </trkpt>
      <trkpt lat="48.64297" lon="1.82601">
        <ele>149</ele>
        <time>2018-11-11T15:27:40Z</time>
      </trkpt>
      <trkpt lat="48.64304" lon="1.82609">
        <ele>150</ele>
        <time>2018-11-11T15:27:58Z</time>
      </trkpt>
      <trkpt lat="48.64313" lon="1.82612">
        <ele>151</ele>
        <time>2018-11-11T15:28:10Z</time>
      </trkpt>
      <trkpt lat="48.64317" lon="1.82621">
        <ele>151</ele>
        <time>2018-11-11T15:28:25Z</time>
      </trkpt>
      <trkpt lat="48.64317" lon="1.82629">
        <ele>151</ele>
        <time>2018-11-11T15:28:30Z</time>
      </trkpt>
      <trkpt lat="48.64309" lon="1.8265">
        <ele>151</ele>
        <time>2018-11-11T15:28:42Z</time>
      </trkpt>
      <trkpt lat="48.64305" lon="1.82674">
        <ele>150</ele>
        <time>2018-11-11T15:28:54Z</time>
      </trkpt>
      <trkpt lat="48.643" lon="1.82694">
        <ele>150</ele>
        <time>2018-11-11T15:29:05Z</time>
      </trkpt>
      <trkpt lat="48.64285" lon="1.82746">
        <ele>151</ele>
        <time>2018-11-11T15:29:36Z</time>
      </trkpt>
      <trkpt lat="48.64276" lon="1.82756">
        <ele>151</ele>
        <time>2018-11-11T15:29:45Z</time>
      </trkpt>
      <trkpt lat="48.64274" lon="1.82761">
        <ele>151</ele>
        <time>2018-11-11T15:29:50Z</time>
      </trkpt>
      <trkpt lat="48.64275" lon="1.82777">
        <ele>151</ele>
        <time>2018-11-11T15:29:58Z</time>
      </trkpt>
      <trkpt lat="48.64272" lon="1.82784">
        <ele>151</ele>
        <time>2018-11-11T15:30:01Z</time>
      </trkpt>
      <trkpt lat="48.64271" lon="1.82792">
        <ele>151</ele>
        <time>2018-11-11T15:30:05Z</time>
      </trkpt>
      <trkpt lat="48.64272" lon="1.828">
        <ele>151</ele>
        <time>2018-11-11T15:30:09Z</time>
      </trkpt>
      <trkpt lat="48.64272" lon="1.82807">
        <ele>151</ele>
        <time>2018-11-11T15:30:12Z</time>
      </trkpt>
      <trkpt lat="48.64275" lon="1.82822">
        <ele>151</ele>
        <time>2018-11-11T15:30:20Z</time>
      </trkpt>
      <trkpt lat="48.64277" lon="1.82873">
        <ele>152</ele>
        <time>2018-11-11T15:30:42Z</time>
      </trkpt>
      <trkpt lat="48.64275" lon="1.82886">
        <ele>152</ele>
        <time>2018-11-11T15:30:47Z</time>
      </trkpt>
      <trkpt lat="48.64276" lon="1.82902">
        <ele>152</ele>
        <time>2018-11-11T15:30:56Z</time>
      </trkpt>
      <trkpt lat="48.64274" lon="1.82911">
        <ele>152</ele>
        <time>2018-11-11T15:31:00Z</time>
      </trkpt>
      <trkpt lat="48.64271" lon="1.82925">
        <ele>153</ele>
        <time>2018-11-11T15:31:06Z</time>
      </trkpt>
      <trkpt lat="48.64273" lon="1.82972">
        <ele>153</ele>
        <time>2018-11-11T15:31:29Z</time>
      </trkpt>
      <trkpt lat="48.64275" lon="1.82979">
        <ele>153</ele>
        <time>2018-11-11T15:31:33Z</time>
      </trkpt>
      <trkpt lat="48.64278" lon="1.82984">
        <ele>153</ele>
        <time>2018-11-11T15:31:36Z</time>
      </trkpt>
      <trkpt lat="48.64281" lon="1.82991">
        <ele>154</ele>
        <time>2018-11-11T15:31:41Z</time>
      </trkpt>
      <trkpt lat="48.64288" lon="1.82998">
        <ele>154</ele>
        <time>2018-11-11T15:31:48Z</time>
      </trkpt>
      <trkpt lat="48.64294" lon="1.83017">
        <ele>154</ele>
        <time>2018-11-11T15:32:16Z</time>
      </trkpt>
      <trkpt lat="48.64313" lon="1.83049">
        <ele>156</ele>
        <time>2018-11-11T15:32:48Z</time>
      </trkpt>
      <trkpt lat="48.64346" lon="1.83094">
        <ele>160</ele>
        <time>2018-11-11T15:33:25Z</time>
      </trkpt>
      <trkpt lat="48.6435" lon="1.83098">
        <ele>160</ele>
        <time>2018-11-11T15:33:29Z</time>
      </trkpt>
      <trkpt lat="48.64353" lon="1.83104">
        <ele>160</ele>
        <time>2018-11-11T15:33:33Z</time>
      </trkpt>
    </trkseg>
  </trk>
</gpx>